[[{"header":{"parameterUnit":"m.s-1","parameterCategory":1,"la1":30.6,"la2":29.2853,"lo1":-89.7004,"lo2":-87.6739,"dy":0.0162,"dx":0.0183,"nx":112,"ny":82,"refTime":"2026-04-04T12:00:00:Z","depth":0,"parameterNumber":2,"parameterNumberName":"U-component_of_WINDS"},"data":[0.0,0.0,0.0,0.0,0.0,0.0,0.0,0.0,0.0,0.0,0.0,0.0,0.0,0.0,0.0,0.0,0.0,0.0,0.0,0.0,0.0,0.0,0.0,0.0,0.0,0.0,0.0,0.0,0.0,0.0,0.0,0.0,0.0,0.0,0.0,0.0,0.0,0.0,0.0,0.0,0.0,0.0,0.0,0.0,0.0,0.0,0.0,0.0,0.0,0.0,0.0,0.0,0.0,0.0,0.0,0.0,0.0,0.0,0.0,0.0,0.0,0.0,0.0,0.0,0.0,0.0,0.0,0.0,0.0,0.0,0.0,0.0,0.0,0.0,0.0,0.0,0.0,0.0,0.0,0.0,0.0,0.0,0.0,0.0,0.0,0.0,0.0,0.0,0.0,0.0,0.0,0.2644,0.2957,0.3084,0.3043,0.2957,0.2791,0.2514,0.0,0.0,0.0,0.0,0.0,0.0,0.0,0.0,0.0,0.0,0.0,0.0,0.0,0.0,0.0,0.0,0.0,0.0,0.0,0.0,0.0,0.0,0.0,0.0,0.0,0.0,0.0,0.0,0.0,0.0,0.0,0.0,0.0,0.0,0.0,0.0,0.0,0.0,0.0,0.0,0.0,0.0,0.0,0.0,0.0,0.0,0.0,0.0,0.0,0.0,0.0,0.0,0.0,0.0,0.0,0.0,0.0,0.0,0.0,0.0,0.0,0.0,0.0,0.0,0.0,0.0,0.0,0.0,0.0,0.0,0.0,0.0,0.0,0.0,0.0,0.0,0.0,0.0,0.0,0.0,0.0,0.0,0.0,0.0,0.0,0.0,0.0,0.0,0.0,0.0,0.0,0.0,0.0,0.0,0.0,0.0,0.0,0.0,0.0,0.0,0.0,0.0,0.0,0.0,0.2478,0.2975,0.3167,0.3258,0.3168,0.3101,0.2936,0.2597,0.0,0.0,0.0,0.0,0.0,0.0,0.0,0.0,0.0,0.0,0.0,0.0,0.0,0.0,0.0,0.0,0.0,0.0,0.0,0.0,0.0,0.0,0.0,0.0,0.0,0.0,0.0,0.0,0.0,0.0,0.0,0.0,0.0,0.0,0.0,0.0,0.0,0.0,0.0,0.0,0.0,0.0,0.0,0.0,0.0,0.0,0.0,0.0,0.0,0.0,0.0,0.0,0.0,0.0,0.0,0.0,0.0,0.0,0.0,0.0,0.0,0.0,0.0,0.0,0.0,0.0,0.0,0.0,0.0,0.0,0.0,0.0,0.0,0.0,0.0,0.0,0.0,0.0,0.0,0.0,0.0,0.0,0.0,0.0,0.0,0.0,0.0,0.0,0.0,0.0,0.0,0.0,0.0,0.0,0.0,0.0,0.0,0.0,0.0,0.0,0.0,0.0,0.0,0.248,0.2789,0.3142,0.3243,0.3279,0.3172,0.3078,0.2896,0.2554,0.2282,0.0,0.0,0.0,0.0,0.0,0.0,0.0,0.0,0.0,0.0,0.0,0.0,0.0,0.0,0.0,0.0,0.0,0.0,0.0,0.0,0.0,0.0,0.0,0.0,0.0,0.0,0.0,0.0,0.0,0.0,0.0,0.0,0.0,0.0,0.0,0.0,0.0,0.0,0.0,0.0,0.0,0.0,0.0,0.0,0.0,0.0,0.0,0.0,0.0,0.0,0.0,0.0,0.0,0.0,0.0,0.0,0.0,0.0,0.0,0.0,0.0,0.0,0.0,0.0,0.0,0.0,0.0,0.0,0.0,0.0,0.0,0.0,0.0,0.0,0.0,0.0,0.0,0.0,0.0,0.0,0.0,0.0,0.0,0.0,0.0,0.0,0.0,0.0,0.0,0.0,0.0,0.0,0.0,0.0,0.0,0.0,0.0,0.0,0.0,0.0,0.0,0.0,0.2821,0.3112,0.3195,0.3288,0.3288,0.3105,0.3018,0.2812,0.2512,0.2232,0.0,0.0,0.0,0.0,0.0,0.0,0.0,0.0,0.0,0.0,0.0,0.0,0.0,0.0,0.0,0.0,0.0,0.0,0.0,0.0,0.0,0.0,0.0,0.0,0.0,0.0,0.0,0.0,0.0,0.0,0.0,0.0,0.0,0.0,0.0,0.0,0.0,0.0,0.0,0.0,0.0,0.0,0.0,0.0,0.0,0.0,0.0,0.0,0.0,0.0,0.0,0.0,0.0,0.0,0.0,0.0,0.0,0.0,0.0,0.0,0.0,0.0,0.0,0.0,0.0,0.0,0.0,0.0,0.0,0.0,0.0,0.0,0.0,0.0,0.0,0.0,0.0,0.0,0.0,0.0,0.0,0.0,0.0,0.0,0.0,0.0,0.0,0.0,0.0,0.0,0.0,0.0,0.0,0.0,0.0,0.0,0.0,0.0,0.0,0.0,0.0,0.0,0.295,0.3197,0.3262,0.3351,0.3335,0.3108,0.2981,0.2751,0.241,0.215,0.0,0.0,0.0,0.0,0.0,0.0,0.0,0.0,0.0,0.0,0.0,0.0,0.0,0.0,0.0,0.0,0.0,0.0,0.0,0.0,0.0,0.0,0.0,0.0,0.0,0.0,0.0,0.0,0.0,0.0,0.0,0.0,0.0,0.0,0.0,0.0,0.0,0.0,0.0,0.0,0.0,0.0,0.0,0.0,0.0,0.0,0.0,0.0,0.0,0.0,0.0,0.0,0.0,0.0,0.0,0.0,0.0,0.0,0.0,0.0,0.0,0.0,0.0,0.0,0.0,0.0,0.0,0.0,0.0,0.0,0.0,0.0,0.0,0.0,0.0,0.0,0.0,0.0,0.0,0.0,0.0,0.0,0.0,0.0,0.0,0.0,0.0,0.0,0.0,0.0,0.0,0.0,0.0,0.0,0.0,0.0,0.0,0.0,0.0,0.0,0.0,0.0,0.3014,0.3245,0.0,0.338,0.3339,0.3109,0.2977,0.2746,0.2405,0.0,0.0,0.0,0.0,0.0,0.0,0.0,0.0,0.0,0.0,0.0,0.0,0.0,0.0,0.0,0.0,0.0,0.0,0.0,0.0,0.0,0.0,0.0,0.0,0.0,0.0,0.0,0.0,0.0,0.0,0.0,0.0,0.0,0.0,0.0,0.0,0.0,0.0,0.0,0.0,0.0,0.0,0.0,0.0,0.0,0.0,0.0,0.0,0.0,0.0,0.0,0.0,0.0,0.0,0.0,0.0,0.0,0.0,0.0,0.0,0.0,0.0,0.0,0.0,0.0,0.0,0.0,0.0,0.0,0.0,0.0,0.0,0.0,0.0,0.0,0.0,0.0,0.0,0.0,0.0,0.0,0.0,0.0,0.0,0.0,0.0,0.0,0.0,0.0,0.0,0.0,0.0,0.0,0.0,0.0,0.0,0.0,0.0,0.0,0.0,0.0,0.0,0.2739,0.307,0.33,0.0,0.3416,0.3367,0.3136,0.3005,0.2769,0.2458,0.0,0.0,0.0,0.0,0.0,0.0,0.0,0.0,0.0,0.0,0.0,0.0,0.0,0.0,0.0,0.0,0.0,0.0,0.0,0.0,0.0,0.0,0.0,0.0,0.0,0.0,0.0,0.0,0.0,0.0,0.0,0.0,0.0,0.0,0.0,0.0,0.0,0.0,0.0,0.0,0.0,0.0,0.0,0.0,0.0,0.0,0.0,0.0,0.0,0.0,0.0,0.0,0.0,0.0,0.0,0.0,0.0,0.0,0.0,0.0,0.0,0.0,0.0,0.0,0.0,0.0,0.0,0.0,0.0,0.0,0.0,0.0,0.0,0.0,0.0,0.0,0.0,0.0,0.0,0.0,0.0,0.0,0.0,0.0,0.0,0.0,0.0,0.0,0.0,0.0,0.0,0.0,0.0,0.0,0.0,0.0,0.0,0.0,0.0,0.0,0.0,0.0,0.2746,0.3175,0.338,0.341,0.3467,0.3429,0.3195,0.3067,0.2867,0.0,0.0,0.0,0.0,0.0,0.0,0.0,0.0,0.0,0.0,0.0,0.0,0.0,0.0,0.0,0.0,0.0,0.0,0.0,0.0,0.0,0.0,0.0,0.0,0.0,0.0,0.0,0.0,0.0,0.0,0.0,0.0,0.0,0.0,0.0,0.0,0.0,0.0,0.0,0.0,0.0,0.0,0.0,0.0,0.0,0.0,0.0,0.0,0.0,0.0,0.0,0.0,0.0,0.0,0.0,0.0,0.0,0.0,0.0,0.0,0.0,0.0,0.0,0.0,0.0,0.0,0.0,0.0,0.0,0.0,0.0,0.0,0.0,0.0,0.0,0.0,0.0,0.0,0.0,0.0,0.0,0.0,0.0,0.0,0.0,0.0,0.0,0.0,0.0,0.0,0.0,0.0,0.0,0.0,0.0,0.0,0.0,0.0,0.0,0.0,0.0,0.0,0.0,0.2906,0.3265,0.3496,0.3472,0.3509,0.3414,0.3307,0.3168,0.2957,0.2646,0.0,0.0,0.0,0.0,0.0,0.0,0.0,0.0,0.0,0.0,0.0,0.0,0.0,0.0,0.0,0.0,0.0,0.0,0.0,0.0,0.0,0.0,0.0,0.0,0.0,0.0,0.0,0.0,0.0,0.0,0.0,0.0,0.0,0.0,0.0,0.0,0.0,0.0,0.0,0.0,0.0,0.0,0.0,0.0,0.0,0.0,0.0,0.0,0.0,0.0,0.0,0.0,0.0,0.0,0.0,0.0,0.0,0.0,0.0,0.0,0.0,0.0,0.0,0.0,0.0,0.0,0.0,0.0,0.0,0.0,0.0,0.0,0.0,0.0,0.0,0.0,0.0,0.0,0.0,0.0,0.0,0.0,0.0,0.0,0.0,0.0,0.0,0.0,0.0,0.0,0.0,0.0,0.0,0.0,0.0,0.0,0.0,0.0,0.0,0.0,0.0,0.0,0.2962,0.3334,0.3517,0.3534,0.3562,0.3478,0.3367,0.326,0.3116,0.2801,0.0,0.0,0.0,0.0,0.0,0.0,0.0,0.0,0.0,0.0,0.0,0.0,0.0,0.0,0.0,0.0,0.0,0.0,0.0,0.0,0.0,0.0,0.0,0.0,0.0,0.0,0.0,0.0,0.0,0.0,0.0,0.0,0.0,0.0,0.0,0.0,0.0,0.0,0.0,0.0,0.0,0.0,0.0,0.0,0.0,0.0,0.0,0.0,0.0,0.0,0.0,0.0,0.0,0.0,0.0,0.0,0.0,0.0,0.0,0.0,0.0,0.0,0.0,0.0,0.0,0.0,0.0,0.0,0.0,0.0,0.0,0.0,0.0,0.0,0.0,0.0,0.0,0.0,0.0,0.0,0.0,0.0,0.0,0.0,0.0,0.0,0.0,0.0,0.0,0.0,0.0,0.0,0.0,0.0,0.0,0.0,0.0,0.0,0.0,0.0,0.0,0.0,0.2981,0.334,0.3596,0.3596,0.3628,0.3564,0.35,0.3472,0.3284,0.2957,0.0,0.0,0.0,0.0,0.0,0.0,0.0,0.0,0.0,0.0,0.0,0.0,0.0,0.0,0.0,0.0,0.0,0.0,0.0,0.0,0.0,0.0,0.0,0.0,0.0,0.0,0.0,0.0,0.0,0.0,0.0,0.0,0.0,0.0,0.0,0.0,0.0,0.0,0.0,0.0,0.0,0.0,0.0,0.0,0.0,0.0,0.0,0.0,0.0,0.0,0.0,0.0,0.0,0.0,0.0,0.0,0.0,0.0,0.0,0.0,0.1576,0.1548,0.0,0.0,0.0,0.0,0.0,0.0,0.0,0.0,0.0,0.0,0.0,0.0,0.0,0.0,0.0,0.0,0.0,0.0,0.0,0.0,0.0,0.0,0.0,0.0,0.0,0.0,0.0,0.0,0.0,0.0,0.0,0.0,0.0,0.0,0.0,0.0,0.0,0.0,0.0,0.0,0.3021,0.3415,0.366,0.366,0.3708,0.3699,0.3589,0.354,0.3343,0.3064,0.2806,0.0,0.0,0.0,0.0,0.0,0.0,0.0,0.0,0.0,0.0,0.0,0.0,0.0,0.0,0.0,0.0,0.0,0.0,0.0,0.0,0.0,0.0,0.0,0.0,0.0,0.0,0.0,0.0,0.0,0.0,0.0,0.0,0.0,0.0,0.0,0.0,0.0,0.0,0.0,0.0,0.0,0.0,0.0,0.0,0.0,0.0,0.0,0.0,0.0,0.0,0.0,0.0,0.0,0.0,0.0,0.0,0.0,0.0,0.0,0.1555,0.1493,0.0,0.0,0.0,0.0,0.0,0.0,0.0,0.0,0.0,0.0,0.0,0.0,0.0,0.0,0.0,0.0,0.0,0.0,0.0,0.0,0.0,0.0,0.0,0.0,0.0,0.0,0.0,0.0,0.0,0.0,0.0,0.0,0.0,0.0,0.0,0.0,0.0,0.0,0.0,0.0,0.2638,0.3028,0.3245,0.3257,0.3578,0.3739,0.3663,0.36,0.3464,0.3221,0.2951,0.0,0.0,0.0,0.0,0.0,0.0,0.0,0.0,0.0,0.0,0.0,0.0,0.0,0.0,0.0,0.0,0.0,0.0,0.0,0.0,0.0,0.0,0.0,0.0,0.0,0.0,0.0,0.0,0.0,0.0,0.0,0.0,0.0,0.0,0.0,0.0,0.0,0.0,0.0,0.0,0.0,0.0,0.0,0.0,0.0,0.0,0.0,0.0,0.0,0.0,0.0,0.0,0.0,-0.0384,0.0342,0.0347,0.0406,0.0412,0.0415,0.0708,0.0936,0.0999,0.0884,0.0,0.0,0.0,0.0,0.0,0.0,0.0,0.0,0.0,0.0,0.0,0.0,0.0,0.0,0.0,0.0,0.0,0.0,0.0,0.0,0.0,0.0,0.0,0.0,0.1565,0.1819,0.1581,0.0,0.0,0.0,0.0,0.0,0.0,0.0,0.0,0.0,0.0,0.0,0.2043,0.2515,0.2812,0.283,0.3433,0.3782,0.3744,0.3667,0.3538,0.3336,0.3107,0.2874,0.0,0.0,0.0,0.0,0.0,0.0,0.0,0.0,0.0,0.0,0.0,0.0,0.0,0.0,0.0,0.0,0.0,0.0,0.0,0.0,0.0,0.0,0.0,0.0,0.0,0.0,0.0,0.0,0.0,0.0,0.0,0.0,-0.4961,-0.5904,0.0,0.0,0.0,0.0,0.0,0.0,0.0,0.0,0.0,0.0,0.0,0.0,0.0,-0.8746,-0.8095,-0.6772,-0.5646,-0.4691,-0.301,-0.2222,-0.2215,-0.2221,-0.2475,-0.286,-0.2899,0.0,0.0641,0.029,0.0,0.0,0.0,0.0,0.0,0.0,0.0,0.0,0.0,0.0,0.0,0.0,0.0,0.0,0.0,0.0,0.0,0.0,0.0,0.0,0.0,0.0,0.0861,0.0875,0.094,0.094,0.0,0.1983,0.2886,0.2735,0.2629,0.0,0.0,0.0,0.0,0.0,0.0,0.0,0.169,0.2393,0.2913,0.2916,0.3494,0.3866,0.381,0.3768,0.3681,0.3465,0.3332,0.318,0.2963,0.2687,0.0,0.0,0.0,0.0,0.0,0.0,0.0,0.0,0.0,0.0,0.0,0.0,0.0,0.0,0.0,0.0,0.0,0.0,0.0,0.0,0.0,0.0,0.0,0.0,0.0,0.0,0.0,0.0,0.0,-0.6206,-0.7034,-0.7891,-0.8722,-0.9149,0.0,0.0,0.0,0.0,0.0,0.0,0.0,0.0,0.0,-1.1252,-1.1919,-1.1945,-1.1307,-1.0361,-0.9314,-0.8247,-0.6856,-0.619,-0.6221,-0.627,-0.6446,-0.6677,-0.6757,-0.607,-0.4699,-0.3033,-0.2889,-0.384,0.0,0.0,0.0,0.0,-0.4483,-0.3637,-0.2702,-0.2105,-0.1672,-0.1359,0.0,0.0,0.0,0.0,0.0,0.0,0.0,0.0,0.0,0.0,0.0686,0.0406,0.0586,0.0885,0.0874,0.1623,0.2273,0.0,0.1929,0.1814,0.1585,0.0,0.0,0.0,0.0,0.1013,0.1072,0.1521,0.1855,0.1811,0.237,0.274,0.272,0.276,0.2652,0.2568,0.2434,0.2326,0.218,0.2261,0.2227,0.0,0.0,0.0,0.0,0.0,0.0,0.0,0.0,0.0,0.0,0.0,0.0,0.0,0.0,0.0,0.0,0.0,0.0,0.0,0.0,0.0,0.0,0.0,0.0,0.0,0.0,0.0,0.0,-0.822,-0.9048,-0.9761,-1.0351,-1.0645,0.0,0.0,0.0,0.0,0.0,0.0,-1.2121,-1.2683,-1.3205,-1.377,-1.4434,-1.4501,-1.3997,-1.3384,-1.2608,-1.1647,-1.0578,-1.0077,-1.0171,-1.0209,-1.025,-1.0257,-1.0387,-1.0314,-0.9919,-0.6752,-0.5973,-0.685,-0.7653,-0.8033,-0.8204,-0.8068,-0.747,-0.6665,-0.5747,-0.4839,-0.3911,-0.3102,-0.1906,-0.0647,-0.0143,0.0,0.0,0.0,0.0,0.0878,0.0603,0.0578,0.0481,0.0122,0.0369,0.0678,0.067,0.1028,0.1352,0.0,0.1418,0.1296,0.1112,0.0,0.0,0.0,0.0,0.0432,0.0527,0.0799,0.1022,0.0975,0.1529,0.1897,0.1897,0.1884,0.1858,0.1818,0.1787,0.1676,0.1534,0.1962,0.208,0.1924,0.0,0.0,0.0,0.0,0.0,0.0,0.0,0.0,0.0,0.0,0.0,0.0,0.0,0.0,0.0,0.0,0.0,0.0,0.0,0.0,0.0,0.0,0.0,0.0,0.0,0.0,0.0,0.0,0.0,-1.1238,-1.1825,0.0,0.0,0.0,0.0,-1.2247,-1.2786,-1.333,-1.3857,-1.4348,-1.4787,-1.5266,-1.5755,-1.5818,-1.5481,-1.5056,-1.4667,-1.4217,-1.3412,-1.3165,-1.3401,-1.3339,-1.3339,-1.3352,-1.3445,-1.3331,-1.2851,-0.9997,-0.9392,-1.0337,-1.1053,-1.1536,-1.1723,-1.1466,-1.0886,-1.0114,-0.9169,-0.7814,-0.6305,-0.5008,-0.254,-0.0055,0.0,0.0,0.0,0.0,0.0054,0.0056,0.0059,0.0061,0.0063,0.0,0.0,0.0064,0.0064,0.0063,0.0427,0.0,0.1575,0.1459,0.1329,0.0,0.1037,0.0658,0.0539,0.036,0.0055,0.0582,0.1028,0.0976,0.1597,0.1972,0.1972,0.196,0.1879,0.1908,0.1818,0.1775,0.1714,0.2135,0.2295,0.2166,0.2529,0.0,0.0,0.0,0.0,0.0,0.0,0.0,0.0,0.0,0.0,0.0,0.0,0.0,0.0,0.0,0.0,0.0,0.0,0.0,0.0,0.0,0.0,0.0,0.0,0.0,0.0,0.0,0.0,-1.2904,-1.3324,0.0,-1.3278,-1.3134,-1.3281,-1.3971,-1.445,-1.4956,-1.5434,-1.5907,-1.6315,-1.6706,-1.7049,-1.7218,-1.7219,-1.7172,-1.7042,-1.6877,-1.6662,-1.6572,-1.6652,-1.6646,-1.6681,-1.6681,-1.68,-1.6745,-1.6481,-1.5476,-1.408,-1.2672,-1.3268,-1.3533,-1.3671,-1.3586,-1.3154,-1.2513,-1.1957,-1.0755,-0.8997,-0.661,-0.4481,-0.272,-0.2244,-0.1757,-0.1297,-0.0862,-0.0352,0.0,0.0,0.0,0.0,0.0,0.0,0.0,0.0,0.0,0.0124,0.0537,0.0582,0.051,0.049,0.0418,0.0357,0.026,0.0212,0.0109,0.0,0.0238,0.0368,0.0369,0.0557,0.0683,0.0741,0.0677,0.0672,0.0661,0.0658,0.0647,0.063,0.1126,0.136,0.1238,0.1974,0.2272,0.0,0.0,0.0,0.0,0.0,0.0,0.0,0.0,0.0,0.0,0.0,0.0,0.0,0.0,0.0,0.0,0.0,0.0,0.0,0.0,0.0,0.0,0.0,0.0,0.0,-1.2786,-1.3814,-1.4222,-1.4586,-1.4754,-1.4629,-1.4521,-1.4689,-1.5233,-1.5728,-1.6163,-1.657,-1.6935,-1.7228,-1.7467,-1.775,-1.7962,-1.8076,-1.8201,-1.8343,-1.8315,-1.8315,-1.8343,-1.8381,-1.8468,-1.8495,-1.8439,-1.8582,-1.8549,-1.8369,-1.8353,-1.7153,-1.533,-1.5577,-1.5715,-1.5755,-1.5765,-1.5597,-1.5191,-1.4436,-1.3233,-1.1523,-0.8948,-0.7171,-0.5802,-0.469,-0.3709,-0.2771,-0.1742,-0.0753,0.0,0.0,0.0,0.0,0.0,0.0,0.0,0.0,0.0,0.0,0.0,0.0,0.0,0.0,0.0,0.0,0.0,0.0,0.0,0.0,0.0,0.0,0.0,0.0,0.0,0.0,0.0,0.0,0.0,0.0,0.0,0.0,0.0574,0.084,0.0753,0.1691,0.2143,0.2067,0.0,0.0,0.0,0.0,0.0,0.0,0.0,0.0,0.0,0.0,0.0,0.0,0.0,0.0,0.0,0.0,0.0,0.0,0.0,0.0,0.0,0.0,0.0,-1.2439,-1.3705,-1.4716,-1.5206,-1.5586,-1.5816,-1.5641,-1.5805,-1.5912,-1.6146,-1.6597,-1.6962,-1.7201,-1.7315,-1.7484,-1.7706,-1.7837,-1.7962,-1.8076,-1.8272,-1.8326,-1.844,-1.844,-1.8439,-1.862,-1.862,-1.862,-1.862,-1.862,-1.8549,-1.844,-1.8369,-1.837,-1.8315,-1.8005,-1.7989,-1.8146,-1.8146,-1.8158,-1.8125,-1.6549,-1.5195,-1.3787,-1.2057,-1.0477,-0.896,-0.729,-0.5822,-0.4327,-0.2798,-0.1259,-0.0132,-0.0133,-0.0067,-0.0067,-0.0067,0.0,0.0,0.0,0.0,0.0,0.0,0.0,0.0,0.0,0.0,0.0,0.0,0.0,0.0,0.0,0.0,0.0,0.0,0.0,0.0,0.0,0.0,0.0,0.0,0.0,0.0,0.0,0.0566,0.0835,0.0821,0.1623,0.2215,0.257,0.0,0.0,0.0,0.0,0.0,0.0,0.0,0.0,0.0,0.0,0.0,0.0,0.0,0.0,0.0,0.0,0.0,0.0,0.0,0.0,0.0,-1.1993,-1.2867,-1.3265,-1.4521,-1.5647,-1.6065,-1.6527,-1.6809,-1.6929,-1.6978,-1.7147,-1.7397,-1.7609,-1.7723,-1.7706,-1.7652,-1.7652,-1.7723,-1.7837,-1.8005,-1.8272,-1.8413,-1.8538,-1.8565,-1.8565,-1.8593,-1.862,-1.862,-1.862,-1.862,-1.862,-1.8609,-1.8565,-1.8407,-1.8424,-1.837,-1.8212,-1.8245,-1.8272,-1.8272,-1.8283,-1.8238,-1.7142,-1.6242,-1.5397,-1.4112,-1.3099,-1.1991,-1.0286,-0.8689,-0.723,-0.5664,-0.4174,-0.2838,-0.2394,-0.1872,-0.1412,-0.0881,-0.0407,0.0,0.0,0.0,0.0,0.0,0.0,0.0,0.0,0.0,0.0,0.0,0.0,0.0,0.0,0.0,0.0,0.0,0.0,0.0,0.0,0.0,0.0,0.0,0.0,0.0,0.0,0.0169,0.0387,0.0698,0.0903,0.1215,0.0,0.0,0.0,0.0,0.0,0.0,0.0,0.0,0.0,0.0,0.0,0.0,0.0,0.0,0.0,0.0,0.0,0.0,0.0,0.0,0.0,0.0,-1.3134,-1.408,-1.4586,-1.5499,-1.626,-1.6652,-1.7076,-1.7386,-1.75,-1.7625,-1.7766,-1.7962,-1.8087,-1.8103,-1.7973,-1.7821,-1.775,-1.7793,-1.7864,-1.8044,-1.8326,-1.8565,-1.8718,-1.8761,-1.8718,-1.8718,-1.8761,-1.8718,-1.869,-1.869,-1.869,-1.8663,-1.862,-1.8549,-1.8511,-1.8495,0.0,0.0,0.0,0.0,-1.8451,-1.8434,-1.7929,-1.752,-1.7095,-1.638,-1.5861,-1.5174,-1.3317,-1.1621,-1.0011,-0.8395,-0.6792,-0.5316,-0.4452,-0.3508,-0.2608,-0.1756,-0.0747,0.0,0.0,0.0,0.0,0.0,0.0,0.0,0.0,0.0,0.0,0.0,0.0,0.0,0.0,0.0,0.0,0.0,0.0,0.0,0.0,0.0,0.0,0.0,0.0,0.0,0.0,0.0,0.0,0.0,0.0,0.0,0.0,0.0,0.0,0.0,0.2385,0.2662,0.0,0.0,0.0,0.0,0.0,0.0,0.0,0.0,0.0,0.0,0.0,0.0,0.0,0.0,0.0,0.0,-1.4266,-1.5292,-1.6048,-1.6527,-1.6798,-1.7076,-1.7413,-1.7663,-1.7777,-1.7891,-1.8005,-1.8103,-1.8228,-1.8245,-1.8103,-1.7875,0.0,0.0,0.0,-1.8071,-1.8369,-1.868,-1.8848,-1.8973,-1.8848,-1.8859,-1.8973,-1.8848,-1.8805,-1.8805,-1.8788,-1.8734,-1.8636,-1.862,-1.8636,-1.862,-1.8397,-1.8397,-1.8511,-1.862,-1.8663,-1.8663,-1.8647,0.0,0.0,-1.8353,-1.8343,-1.7957,-1.6041,-1.4264,-1.2661,-1.0991,-0.9304,-0.7788,-0.6495,-0.5157,-0.3775,-0.2487,-0.1086,0.0,0.0,0.0,0.0,0.0,0.0,0.0,0.0,0.0,0.0,0.0,0.0,0.0,0.0,0.0,0.0,0.0,0.0,0.0,0.0,0.0,0.0,0.0,0.0,0.0,0.0,0.0,0.0225,0.0676,0.0662,0.0808,0.1262,0.1222,0.1596,0.2216,0.2247,0.2653,0.0,0.0,0.0,0.0,0.0,0.0,0.0,0.0,0.0,0.0,0.0,0.0,0.0,0.0,0.0,-1.4069,-1.4983,-1.5809,-1.6445,-1.719,-1.7679,-1.7723,-1.7962,-1.8131,-1.8217,-1.8272,-1.8343,-1.837,-1.8478,-1.8451,-1.8299,-1.8005,-1.7875,-1.7902,-1.7902,-1.8071,-1.8369,-1.868,-1.8848,-1.8973,-1.8848,0.0,-1.8973,-1.8848,-1.8848,-1.893,-1.8832,-1.8777,-1.875,-1.8663,-1.868,-1.875,-1.8707,-1.8761,-1.8875,-1.8902,-1.8902,-1.8892,-1.8788,-1.8761,-1.8718,-1.8478,-1.8343,-1.8044,-1.6831,-1.5591,0.0,-1.3306,-1.2268,-1.1001,-0.9201,-0.722,-0.524,-0.3409,-0.1444,0.0,0.0,0.0,0.0,0.0,0.0,0.0,0.0,0.0,0.0,0.0,0.0,0.0,0.0,0.0,0.0,0.0,0.0,0.0,0.0,0.0,0.0,0.0,0.0,0.0,0.0,0.0,0.0057,0.0173,0.0115,0.0172,0.0285,0.0289,0.0584,0.1231,0.212,0.2934,0.0,0.0,0.0,0.0,0.0,0.0,0.0,0.0,0.0,0.0,0.0,-1.196,-1.2743,0.0,-1.4042,-1.4825,-1.5559,-1.6206,-1.675,-1.7554,-1.8033,-1.7918,-1.8114,-1.8283,-1.8343,-1.8397,-1.8396,-1.8522,-1.8593,-1.8538,-1.8353,-1.8174,-1.8114,-1.8174,-1.8174,-1.8343,-1.8707,-1.8886,-1.9028,-1.9142,-1.9028,-1.9028,-1.9142,-1.9028,-1.9074,-1.9134,-1.9,-1.8946,-1.8875,-1.8821,-1.8859,-1.8973,-1.8973,-1.8973,-1.8973,-1.8973,-1.8973,-1.8957,-1.8902,-1.8848,-1.8761,-1.8593,-1.8451,-1.8212,-1.7506,-1.6805,-1.6153,-1.5527,-1.4939,-1.3944,-1.1535,-0.9104,-0.6607,-0.431,-0.1864,0.0,0.0,0.0,0.0,0.0,0.0,0.0,0.0,0.0,0.0,0.0,0.0,0.0,0.0,0.0,0.0,0.0,0.0,0.0,0.0,0.0,0.0,0.0,0.0,0.0,0.0,0.0,0.0,0.0,0.0,0.0,0.0,0.0,0.0308,0.0993,0.1527,0.2183,0.0,0.0,0.0,0.0,0.0,0.0,0.0,-1.0715,-1.1036,-1.1851,-1.2569,-1.3259,-1.3939,-1.4407,-1.4869,-1.5434,-1.5994,-1.6516,-1.6978,-1.7723,-1.8147,-1.7935,-1.8158,-1.837,-1.8396,-1.8407,-1.8511,-1.8609,-1.862,-1.8576,-1.8407,-1.8381,-1.8381,-1.8511,-1.8511,-1.8663,-1.9074,-1.9172,-1.9212,-1.9327,-1.9212,-1.9212,-1.9327,-1.9212,-1.9243,-1.9185,-1.9243,-1.9087,-1.8973,-1.9,-1.9071,-1.9232,-1.9185,-1.9125,-1.9044,-1.9044,-1.9044,-1.9044,-1.9017,-1.893,-1.8805,-1.869,-1.8549,-1.8381,-1.8071,-1.7739,-1.748,-1.7201,-1.6924,-1.6078,-1.3506,-1.0861,-0.8079,-0.5442,-0.257,-0.0419,-0.0279,-0.0139,0.0,0.0,0.0,0.0,0.0,0.0,0.0,0.0,0.0,0.0,0.0,0.0,0.0,0.0,0.0,0.0,0.0,0.0,0.0,0.0,0.0,0.0,0.0,0.0,0.0,0.0,0.0,0.0,0.0,0.0,0.0255,0.0835,0.0782,0.1231,-0.8556,-0.9307,-1.0484,-1.1008,-1.1444,-1.1846,0.0,-1.2205,-1.2504,-1.3232,-1.3874,-1.4461,-1.4967,-1.5195,-1.5445,-1.5951,-1.6342,-1.6739,-1.7119,-1.7706,-1.8044,-1.7918,-1.8299,-1.8582,-1.8593,-1.8609,-1.8609,-1.862,-1.862,-1.862,-1.8609,-1.8593,-1.8636,-1.875,-1.875,-1.8875,-1.9205,-1.9158,-1.9212,-1.9327,-1.9212,-1.9212,-1.9327,-1.9212,-1.9212,-1.9294,-1.9196,-1.9087,-1.8989,-1.9161,-1.9216,-1.9243,-1.9267,-1.9294,-1.9283,-1.9283,-1.9283,-1.9267,-1.9169,-1.906,-1.893,-1.8805,-1.862,-1.8408,-1.8256,-1.8044,-1.7821,-1.7679,-1.7538,-1.6904,-1.4716,-1.247,-1.0049,-0.7179,-0.4252,-0.1851,-0.1204,-0.0492,0.0,0.0,0.0,0.0,0.0,0.0,0.0,0.0,0.0,0.0,0.0,0.0,0.0,0.0,0.0,0.0,0.0,0.0,0.0,0.0,0.0,0.0,0.0,0.0,0.0,0.0,0.0,0.0,0.0,0.0,0.0066,0.0131,0.0133,0.0791,-1.0364,-1.097,-1.1776,-1.2389,-1.2875,-1.3287,-1.3461,-1.3645,-1.3966,-1.4619,-1.5124,-1.5516,-1.5798,-1.588,-1.601,-1.6277,-1.6554,-1.688,-1.7234,-1.7739,-1.8005,-1.7821,-1.7918,-1.8071,-1.8283,-1.8299,-1.837,-1.8439,-1.8582,-1.862,-1.862,-1.868,-1.8777,-1.8892,-1.8957,-1.9087,-1.9256,-1.9256,-1.9283,-1.9327,-1.9283,-1.9283,-1.9327,-1.9283,-1.9283,-1.9327,-1.9267,-1.9229,-1.9185,-1.9229,-1.9256,-1.9256,-1.931,-1.9327,-1.9327,-1.9327,-1.9327,-1.9327,-1.9267,-1.9185,-1.906,-1.893,-1.8777,-1.862,-1.8511,-1.8353,-1.8201,-1.8087,-1.8044,-1.7549,-1.5776,-1.3974,-1.1892,-0.8883,-0.5917,-0.3354,-0.2127,-0.0848,0.0,0.0,0.0,0.0,0.0,0.0,0.0,0.0,0.0,0.0,0.0,0.0,0.0,0.0,0.0,0.0,0.0,0.0,0.0,0.0,0.0,0.0,0.0,0.0,0.0,0.0,0.0,0.0,0.0,0.0,0.0,0.0,0.0,0.0269,-1.185,-1.234,-1.2832,-1.3538,-1.4019,-1.4378,-1.4575,-1.4798,-1.5108,-1.557,-1.5896,-1.6135,-1.6217,-1.6233,-1.6288,-1.6445,-1.6722,-1.7021,-1.7382,-1.775,-1.7935,-1.7696,-1.7511,-1.7494,-1.775,-1.7864,-1.8044,-1.831,-1.8478,-1.8593,-1.8663,-1.875,-1.8859,-1.9017,-1.9115,-1.9212,-1.9327,-1.9327,-1.9327,-1.9327,-1.9327,-1.9327,-1.9327,-1.9327,-1.9327,-1.9327,-1.9327,-1.9327,-1.9327,-1.9327,-1.9327,-1.9327,-1.9327,-1.9327,-1.9327,-1.9327,-1.9327,-1.9327,-1.9327,-1.9256,-1.9216,-1.906,-1.8919,-1.8777,-1.869,-1.8582,-1.8495,-1.8495,-1.8424,-1.8063,-1.6785,-1.5482,-1.3697,-1.0621,-0.7539,-0.4804,-0.2995,-0.128,0.0,0.0,0.0,0.0,0.0,0.0,0.0,0.0,0.0,0.0,0.0,0.0,0.0,0.0,0.0,0.0,0.0,0.0,0.0,0.0,0.0,0.0,0.0,0.0,0.0,0.0,0.0,0.0,0.0,0.0,0.0,0.0,0.0,0.0,-1.2441,-1.3061,-1.355,-1.4353,-1.4775,-1.5064,-1.5304,-1.5543,-1.5816,-1.588,-1.6021,-1.6108,-1.6108,-1.6108,-1.619,-1.6429,-1.6864,-1.7217,-1.741,-1.7679,-1.7821,-1.7565,-1.7228,-1.7021,-1.7032,-1.7359,-1.7706,-1.806,-1.831,-1.8538,-1.8777,-1.8788,-1.8902,-1.9216,-1.9232,-1.9212,-1.9327,-1.9327,-1.9327,-1.9327,-1.9327,-1.9327,-1.9327,-1.9327,-1.9327,-1.9327,-1.9327,-1.9327,-1.9327,-1.9327,-1.9327,-1.9327,-1.9327,-1.9327,-1.9327,-1.9327,-1.9327,-1.9327,-1.9327,-1.9256,-1.9232,-1.9232,-1.8989,-1.8788,-1.8788,-1.8707,-1.862,-1.862,-1.8609,-1.8387,-1.7664,-1.6869,-1.5413,-1.2293,-0.916,-0.632,-0.3976,-0.1652,0.0,0.0,0.0,0.0,0.0,0.0,0.0,0.0,0.0,0.0,0.0,0.0,0.0,0.0,0.0,0.0,0.0,0.0,0.0,0.0,0.0,0.0,0.0,0.0,0.0,0.0,0.0,0.0,0.0,0.0,0.0,0.0,0.0,0.0,-1.4079,-1.476,-1.5403,-1.623,-1.6749,-1.7083,-1.7361,-1.7622,-1.7787,-1.7677,-1.7125,-1.6676,-1.6614,-1.6365,-1.6206,-1.6527,-1.706,-1.7467,-1.7581,-1.7777,-1.7777,-1.7456,-1.7174,-1.6907,-1.6668,-1.6907,-1.7244,-1.7679,-1.8016,-1.8343,-1.8663,-1.8832,-1.8989,-1.9158,-1.9229,-1.9283,-1.9327,-1.9327,-1.9327,-1.9327,-1.9327,-1.9327,-1.9327,-1.9327,-1.9327,-1.9327,-1.9327,-1.9327,-1.9327,-1.9327,-1.9327,-1.9327,-1.9327,-1.9327,-1.9327,-1.9327,-1.9327,-1.9327,-1.9327,-1.9294,-1.9256,-1.9185,-1.9172,-1.9017,-1.893,-1.8832,-1.8734,-1.8734,-1.868,-1.8548,-1.8253,-1.8047,-1.7014,-1.3896,-1.0769,-0.7772,-0.4916,-0.2019,0.0,0.0,0.0,0.0,0.0,0.0,0.0,0.0,0.0,0.0,0.0,0.0,0.0,0.0,0.0,0.0,0.0,0.0,0.0,0.0,0.0,0.0,0.0,0.0,0.0,0.0,0.0,0.0,0.0,0.0,0.0,0.0,0.0,0.0,-1.5472,-1.6247,-1.6853,-1.7652,-1.8014,-1.823,-1.8408,-1.8647,-1.872,-1.8184,-1.7334,-1.6608,-1.6455,-1.6004,-1.5825,-1.6304,-1.6962,-1.7467,-1.7636,-1.7804,-1.7804,-1.7527,-1.7244,-1.6951,-1.6625,-1.6652,-1.6864,-1.7188,-1.7609,-1.8033,-1.8522,-1.8821,-1.9044,-1.9212,-1.9283,-1.9327,-1.9327,-1.9327,-1.9327,-1.9327,-1.9327,-1.9327,-1.9327,-1.9327,-1.9327,-1.9327,-1.9327,-1.9327,-1.9327,-1.9327,-1.9327,-1.9327,-1.9327,-1.9327,-1.9327,-1.9327,-1.9327,-1.9327,-1.9327,-1.9327,-1.931,-1.924,-1.9185,-1.9205,-1.9017,-1.8892,-1.8777,-1.875,-1.868,-1.862,-1.862,-1.862,-1.7897,-1.5055,-1.222,-0.93,-0.616,-0.3038,-0.0722,-0.0503,-0.0214,0.0,0.0,0.0,0.0,0.0,0.0,0.0,0.0,0.0,0.0,0.0,0.0,0.0,0.0,0.0,0.0,0.0,0.0,0.0,0.0,0.0,0.0,0.0,0.0,0.0,0.0,0.0,0.0,0.0,0.0,0.0,-1.6646,-1.7372,-1.7917,-1.8602,-1.8761,-1.8725,-1.8713,-1.884,-1.869,-1.766,-1.6756,-1.593,-1.556,-1.5111,-1.5037,-1.5721,-1.6625,-1.7261,-1.7443,-1.775,-1.7848,-1.7734,-1.7413,-1.7103,-1.6864,-1.6625,-1.6587,-1.682,-1.7174,-1.7679,-1.8326,-1.8761,-1.9071,-1.931,-1.931,-1.9327,-1.9327,-1.9327,-1.9327,-1.9327,-1.9327,-1.9327,-1.9327,-1.9327,-1.9327,-1.9327,-1.9327,-1.9327,-1.9327,-1.9327,-1.9327,-1.9327,-1.9327,-1.9327,-1.9327,-1.9327,-1.9327,-1.9327,-1.9327,-1.9327,-1.9327,-1.9327,-1.9256,-1.9205,-1.9017,-1.8892,-1.8761,-1.8663,-1.862,-1.862,-1.862,-1.862,-1.8031,-1.5707,-1.3381,-1.0914,-0.7794,-0.4641,-0.2168,-0.1373,-0.0575,0.0,0.0,0.0,0.0,0.0,0.0,0.0,0.0,0.0,0.0,0.0,0.0,0.0,0.0,0.0,0.0,0.0,0.0,0.0,0.0,0.0,0.0,0.0,0.0,0.0,0.0,0.0,0.0,0.0,0.0,0.0,-1.7629,-1.8713,-1.9548,-1.9964,-2.0284,-2.0467,-2.0307,-2.0262,-1.9965,-1.8714,-1.7002,-1.5596,-1.5271,-1.4485,-1.4249,-1.5249,-1.6331,-1.7157,-1.7427,-1.7663,-1.775,-1.7723,-1.7565,-1.7359,-1.7119,-1.688,-1.6837,-1.7076,-1.7342,-1.7734,-1.8272,-1.8636,-1.8946,-1.9196,-1.9196,-1.924,-1.9327,-1.9327,-1.9327,-1.9327,-1.9327,-1.9327,-1.9327,-1.9327,-1.9327,-1.9327,-1.9327,-1.9327,-1.9327,-1.9327,-1.9327,-1.9327,-1.9327,-1.9327,-1.9327,-1.9327,-1.9327,-1.9327,-1.9327,-1.9327,-1.9327,-1.9327,-1.9256,-1.9158,-1.9189,-1.8957,-1.8788,-1.8761,-1.869,-1.862,-1.862,-1.862,-1.8181,-1.644,-1.4689,-1.2503,-0.9394,-0.6253,-0.3706,-0.2254,-0.0941,0.0,0.0,0.0,0.0,0.0,0.0,0.0,0.0,0.0,0.0,0.0,0.0,0.0,0.0,0.0,0.0,0.0,0.0,0.0,0.0,0.0,0.0,0.0,0.0,0.0,0.0,0.0,0.0,0.0,0.0,0.0,-1.8599,-1.959,-2.0363,-2.0668,-2.0878,-2.0912,-2.0471,-2.0173,-1.959,-1.8179,-1.6295,-1.4762,-1.4488,-1.3767,-1.358,-1.4716,-1.5951,-1.6891,-1.7255,-1.7494,-1.7636,-1.7636,-1.7538,-1.7413,-1.7272,-1.713,-1.713,-1.7326,-1.7413,-1.7696,-1.8299,-1.8593,-1.8875,-1.9145,-1.9205,-1.9212,-1.9327,-1.9327,-1.9327,-1.9327,-1.9327,-1.9327,-1.9327,-1.9327,-1.9327,-1.9327,-1.9327,-1.9327,-1.9327,-1.9327,-1.9294,-1.9256,-1.9256,-1.9212,-1.9169,-1.9169,-1.9169,-1.9169,-1.9169,-1.9169,-1.9185,-1.9229,-1.9212,-1.9216,-1.9028,-1.8902,-1.8777,-1.8734,-1.8663,-1.862,-1.862,-1.862,-1.8181,-1.6662,-1.5132,-1.3163,-0.997,-0.6846,-0.4006,-0.175,-0.0582,0.0,0.0,0.0,0.0,0.0,0.0,0.0,0.0,0.0,0.0,0.0,0.0,0.0,0.0,0.0,0.0,0.0,0.0,0.0,0.0,0.0,0.0,0.0,0.0,0.0,0.0,0.0,0.0,0.0,0.0,0.0,-1.9488,-2.0187,-2.0682,-2.0933,-2.0878,-2.0594,-1.997,-1.9257,-1.8355,-1.6777,-1.4964,-1.3564,-1.344,-1.3041,-1.3088,-1.4321,-1.5669,-1.6671,-1.7011,-1.7234,-1.7389,-1.7399,-1.7369,-1.7399,-1.7402,-1.7497,-1.7511,-1.7584,-1.7554,-1.7792,-1.8299,-1.8582,-1.8832,-1.8973,-1.9161,-1.9212,-1.9327,-1.9327,-1.9327,-1.9327,-1.9327,-1.9327,-1.9327,-1.9327,-1.9327,-1.9327,-1.9327,-1.9327,-1.9327,-1.9327,-1.9256,-1.9232,-1.9232,-1.9087,-1.8973,-1.8973,-1.8973,-1.8973,-1.8973,-1.8973,-1.8989,-1.9172,-1.9189,-1.9071,-1.8859,-1.8777,-1.875,-1.8647,-1.862,-1.862,-1.862,-1.862,-1.8181,-1.6662,-1.5132,-1.3171,-0.997,-0.6705,-0.3501,-0.0584,0.0,0.0,0.0,0.0,0.0,0.0,0.0,0.0,0.0,0.0,0.0,0.0,0.0,0.0,0.0,0.0,0.0,0.0,0.0,0.0,0.0,0.0,0.0,0.0,0.0,0.0,0.0,0.0,0.0,0.0,0.0,0.0,-2.0064,-2.0648,-2.1089,-2.1021,-2.0878,-2.0492,-1.94,-1.8389,-1.7236,-1.5615,-1.3621,-1.2237,-1.2411,-1.2579,-1.311,-1.4438,-1.5944,-1.7017,-1.7285,-1.7113,-1.6989,-1.7087,-1.7076,-1.7217,-1.7625,-1.7837,-1.8044,-1.8201,-1.8256,-1.8256,-1.8326,-1.8511,-1.875,-1.8973,-1.9161,-1.9212,-1.9327,-1.9327,-1.9327,-1.9327,-1.9327,-1.9327,-1.9327,-1.9327,-1.9327,-1.9327,-1.9327,0.0,-1.9327,-1.9327,-1.9256,-1.9232,-1.9232,-1.9087,-1.8973,-1.8973,-1.8973,-1.8973,-1.8973,-1.8973,-1.8973,-1.9,-1.893,-1.8848,-1.8805,-1.8718,-1.8647,-1.862,-1.862,-1.862,-1.862,-1.862,-1.8181,-1.6662,-1.5132,-1.3163,-0.997,-0.5829,-0.2188,-0.0365,0.0,0.0,0.0,0.0,0.0,0.0,0.0,0.0,0.0,0.0,0.0,0.0,0.0,0.0,0.0,0.0,0.0,0.0,0.0,0.0,0.0,0.0,0.0,0.0,0.0,0.0,0.0,0.0,0.0,0.0,0.0,0.0,-2.0438,-2.0878,-2.1143,-2.0845,-2.0471,-1.9902,-1.8477,-1.7182,-1.5852,-1.4448,-1.2587,-1.1282,-1.1546,-1.1819,-1.2367,-1.3339,-1.4959,-1.6132,-1.6266,-1.6428,-1.6587,-1.6712,-1.6837,-1.7076,-1.75,-1.7804,-1.8087,-1.8326,-1.8343,-1.837,-1.844,-1.8549,-1.8734,-1.8957,-1.9028,-1.9142,-1.9327,-1.9327,-1.9327,-1.9327,-1.9327,-1.9327,-1.9327,-1.9327,-1.9327,-1.9327,-1.9327,-1.9327,-1.9327,-1.9327,-1.9223,-1.9134,-1.9134,-1.8946,-1.8788,-1.8788,-1.8788,-1.8788,-1.8788,-1.8788,-1.8788,-1.8788,-1.8788,-1.8777,-1.8718,-1.8663,-1.862,-1.862,-1.862,-1.862,-1.862,-1.862,-1.8109,-1.6146,-1.2953,-0.9462,-0.6339,-0.3571,-0.1386,-0.0219,0.0,0.0,0.0,0.0,0.0,0.0,0.0,0.0,0.0,0.0,0.0,0.0,0.0,0.0,0.0,0.0,0.0,0.0,0.0,0.0,0.0,0.0,0.0,0.0,0.0,0.0,0.0,0.0,0.0,0.0,0.0,0.0,-2.0702,-2.1034,-2.1143,-2.0564,-1.9997,-1.9115,-1.7541,-1.5974,-1.4516,-1.3356,-1.1733,-1.0577,-1.0803,-1.1067,-1.1492,-1.2266,-1.3891,-1.5107,-1.516,-1.569,-1.6146,-1.6304,-1.657,-1.6907,-1.7382,-1.7706,-1.8033,-1.8315,-1.8283,-1.8397,-1.8609,-1.862,-1.8718,-1.893,-1.893,-1.9028,-1.924,-1.9256,-1.9256,-1.9256,-1.9256,-1.9256,-1.9256,-1.9256,-1.9267,-1.9283,-1.9283,-1.9294,-1.9327,-1.9294,-1.9169,-1.8973,-1.8946,-1.8805,-1.862,-1.862,-1.862,-1.862,-1.862,-1.862,-1.862,-1.862,-1.868,-1.8734,-1.8647,-1.862,-1.862,-1.862,-1.862,-1.862,-1.862,-1.862,-1.7825,-1.4616,-1.0118,-0.5614,-0.2479,-0.1386,-0.0729,-0.0146,0.0,0.0,0.0,0.0,0.0,0.0,0.0,0.0,0.0,0.0,0.0,0.0,0.0,0.0,0.0,0.0,0.0,0.0,0.0,0.0,0.0,0.0,0.0,0.0,0.0,0.0,0.0,0.0,0.0,0.0,0.0,0.0,-2.0892,-2.1197,-2.1179,-2.0526,-1.9698,-1.8586,-1.6815,-1.5045,-1.3471,-1.2445,-1.0931,-0.9909,-1.0195,-1.0525,-1.1117,-1.2199,-1.3502,-1.4556,-1.5052,-1.5293,-1.5559,-1.586,-1.628,-1.6787,-1.7366,-1.7777,-1.8114,-1.8315,-1.8353,-1.8478,-1.8609,-1.862,-1.868,-1.8805,-1.8805,-1.8875,-1.9,-1.9,-1.9,-1.9,-1.9,-1.9,-1.9,-1.9,-1.9071,-1.9243,-1.9243,-1.9229,0.0,-1.9212,-1.9098,-1.8957,-1.8848,-1.8734,-1.862,-1.862,-1.862,-1.862,-1.862,-1.862,-1.862,-1.862,-1.8636,-1.8636,-1.862,-1.862,-1.862,-1.862,-1.862,-1.862,-1.862,-1.862,-1.7091,-1.1198,-0.7279,-0.4082,-0.0876,-0.0146,-0.0073,0.0,0.0,0.0,0.0,0.0,0.0,0.0,0.0,0.0,0.0,0.0,0.0,0.0,0.0,0.0,0.0,0.0,0.0,0.0,0.0,0.0,0.0,0.0,0.0,0.0,0.0,0.0,0.0,0.0,0.0,0.0,0.0,0.0,-2.0471,-2.0946,-2.1055,-1.9982,-1.9115,-1.7948,-1.6062,-1.4312,-1.2801,-1.1972,-1.067,-0.9768,-0.9938,-1.0072,-1.037,-1.0973,-1.2278,-1.3338,-1.3609,-1.4294,-1.4841,-1.5139,-1.5647,-1.6135,-1.6668,-1.7217,-1.7739,-1.8288,-1.837,-1.8495,-1.862,-1.862,-1.868,-1.8788,-1.8788,-1.8848,-1.8973,-1.8973,-1.8973,-1.8973,-1.8973,-1.8973,-1.8973,-1.8973,-1.9,-1.9044,-1.9044,-1.9071,0.0,-1.906,-1.8973,-1.8859,-1.8805,-1.8718,-1.862,-1.862,-1.862,-1.862,-1.862,-1.862,-1.862,-1.862,-1.862,-1.862,-1.862,-1.862,-1.862,-1.862,-1.862,-1.8636,-1.8707,-1.7319,-1.4843,-1.0464,-0.7029,-0.3884,-0.0657,0.0,0.0,0.0,0.0,0.0,0.0,0.0,0.0,0.0,0.0,0.0,0.0,0.0,0.0,0.0,0.0,0.0,0.0,0.0,0.0,0.0,0.0,0.0,0.0,0.0,0.0,0.0,0.0,0.0,0.0,0.0,0.0,0.0,0.0,0.0,-1.9922,-2.0594,-2.0804,-1.9644,-1.862,-1.7392,-1.5486,-1.3777,-1.2361,-1.1694,-1.056,-0.9725,-0.9777,-0.9606,-0.958,-0.9916,-1.1031,-1.1989,-1.2345,-1.3319,-1.4097,-1.4379,-1.4997,-1.5516,-1.6021,-1.6755,-1.7484,-1.8272,-1.8343,-1.8451,-1.8609,-1.862,-1.8663,-1.8734,-1.8734,-1.8777,-1.8875,-1.8875,-1.8875,-1.8875,-1.8875,-1.8875,-1.8875,-1.8875,-1.8886,-1.8919,-1.8919,-1.8946,0.0,-1.893,-1.8875,-1.8788,-1.875,-1.869,-1.862,-1.862,-1.862,-1.862,-1.862,-1.862,-1.862,-1.862,-1.862,-1.862,-1.862,-1.862,-1.862,-1.862,-1.8647,-1.869,-1.8777,-1.6528,-1.3402,-1.0225,-0.7059,-0.3895,-0.0731,0.0,0.0,0.0,0.0,0.0,0.0,0.0,0.0,0.0,0.0,0.0,0.0,0.0,0.0,0.0,0.0,0.0,0.0,0.0,0.0,0.0,0.0,0.0,0.0,0.0,0.0,0.0,0.0,0.0,0.0,0.0,0.0,0.0,0.0,0.0,-1.9439,-2.0269,-2.0526,-1.9468,-1.8301,-1.6905,-1.5107,-1.3471,-1.2121,-1.1518,-1.049,-0.9694,-0.9694,-0.9095,-0.8825,-0.9394,-1.0003,-1.0693,-1.1486,-1.2526,-1.3333,-1.3754,-1.432,-1.497,-1.5576,-1.6554,-1.7484,-1.8272,-1.8326,-1.837,-1.8609,-1.862,-1.862,-1.862,-1.862,-1.862,-1.862,-1.862,-1.862,-1.862,-1.862,-1.862,-1.862,-1.862,-1.869,-1.8788,-1.8788,-1.8859,0.0,-1.8848,-1.8788,-1.8777,-1.8663,-1.862,-1.862,-1.862,-1.862,-1.862,-1.862,-1.862,-1.862,-1.862,-1.862,-1.862,-1.862,-1.862,-1.862,-1.862,-1.8707,-1.8788,-1.8788,-1.6528,-1.3402,-1.0225,-0.7059,-0.3895,-0.0731,0.0,0.0,0.0,0.0,0.0,0.0,0.0,0.0,0.0,0.0,0.0,0.0,0.0,0.0,0.0,0.0,0.0,0.0,0.0,0.0,0.0,0.0,0.0,0.0,0.0,0.0,0.0,0.0,0.0,0.0,0.0,0.0,0.0,0.0,0.0,-1.7738,-1.8674,-1.9174,-1.7968,-1.7087,-1.6062,-1.4322,-1.2902,-1.1763,-1.1019,-1.0249,-0.9628,-0.9356,-0.8917,-0.8731,-0.9177,-0.9639,-1.0335,-1.1259,-1.2319,-1.3194,-1.3722,-1.4673,-1.5532,-1.6135,-1.6793,-1.7484,-1.8272,-1.8245,-1.8245,-1.8478,-1.8413,-1.8451,-1.862,-1.862,-1.862,-1.862,-1.862,-1.862,-1.862,-1.862,-1.862,-1.862,-1.862,-1.8636,-1.868,-1.868,-1.869,-1.8734,-1.869,-1.868,-1.868,-1.8636,-1.862,-1.862,-1.862,-1.862,-1.862,-1.862,-1.862,-1.862,-1.862,-1.862,-1.862,-1.862,-1.862,-1.8636,-1.8718,-1.8886,-1.9044,-1.9044,-1.6747,-1.3579,-1.0426,-0.7149,-0.3944,-0.0666,0.0,0.0,0.0,0.0,0.0,0.0,0.0,0.0,0.0,0.0,0.0,0.0,0.0,0.0,0.0,0.0,0.0,0.0,0.0,0.0,0.0,0.0,0.0,0.0,0.0,0.0,0.0,0.0,0.0,0.0,0.0,0.0,0.0,0.0,0.0,-1.6029,-1.6934,-1.7317,-1.6413,-1.5549,-1.4613,-1.315,-1.2023,-1.1051,-1.0467,-0.9875,-0.9389,-0.915,-0.8817,-0.8693,-0.8979,-0.9314,-0.9899,-1.0992,-1.2069,-1.3145,-1.4211,-1.5151,-1.5907,-1.6482,-1.6907,-1.7467,-1.8147,-1.8114,-1.8158,-1.8353,-1.8299,-1.8326,-1.8478,-1.8484,-1.8484,-1.8484,-1.8484,-1.8511,-1.8549,-1.8549,-1.8576,-1.862,-1.862,-1.862,-1.862,-1.862,-1.862,0.0,-1.862,-1.862,-1.862,-1.862,-1.862,-1.862,-1.862,-1.862,-1.862,-1.862,-1.862,-1.862,-1.862,-1.862,-1.862,-1.862,-1.8647,-1.8707,-1.8777,-1.8973,-1.9216,-1.9172,-1.6809,-1.3648,-1.0385,-0.7174,-0.3893,-0.067,0.0,0.0,0.0,0.0,0.0,0.0,0.0,0.0,0.0,0.0,0.0,0.0,0.0,0.0,0.0,0.0,0.0,0.0,0.0,0.0,0.0,0.0,0.0,0.0,0.0,0.0,0.0,0.0,0.0,0.0,0.0,0.0,0.0,0.0,0.0,0.0,-1.5012,-1.5244,-1.4759,-1.3821,-1.2774,-1.1795,-1.089,0.0,-0.9905,-0.9438,-0.9084,-0.9084,-0.8828,-0.8682,-0.8892,-0.9054,-0.9563,-1.076,-1.193,-1.3305,-1.5092,-1.565,-1.6135,-1.6483,-1.6935,-1.7456,-1.8033,-1.806,-1.8114,-1.8315,-1.8315,-1.8299,-1.8299,-1.8299,-1.8315,-1.8326,-1.8326,-1.8315,-1.8369,-1.8369,-1.8439,-1.862,-1.862,-1.862,0.0,-1.862,-1.862,-1.862,-1.862,-1.862,-1.862,-1.862,-1.862,-1.862,-1.862,-1.862,-1.862,-1.862,-1.862,-1.862,-1.862,-1.862,-1.862,-1.862,-1.8707,-1.8805,-1.8805,-1.8973,-1.9216,-1.9028,-1.6771,-1.3637,-1.0346,-0.7089,-0.3895,-0.0671,0.0,0.0,0.0,0.0,0.0,0.0,0.0,0.0,0.0,0.0,0.0,0.0,0.0,0.0,0.0,0.0,0.0,0.0,0.0,0.0,0.0,0.0,0.0,0.0,0.0,0.0,0.0,0.0,0.0,0.0,0.0,0.0,0.0,0.0,0.0,-1.0831,0.0,-1.372,-1.2991,-1.2513,-1.2074,0.0,-1.0614,-1.0024,-0.9547,-0.9276,-0.9017,-0.8751,-0.8733,-0.8807,-0.9017,-0.9379,-1.0056,-1.1253,-1.3138,-1.4841,-1.5907,-1.6375,-1.6722,-1.6994,-1.7288,-1.7625,-1.8044,-1.7989,-1.7989,-1.8114,-1.8033,-1.7989,-1.7989,-1.7989,-1.8076,-1.8326,-1.8326,-1.8315,-1.8369,-1.8369,-1.8439,-1.862,-1.862,-1.862,-1.862,-1.862,-1.862,-1.862,-1.862,-1.862,-1.862,-1.862,-1.862,-1.862,-1.862,-1.862,-1.862,-1.862,-1.862,-1.862,-1.862,-1.862,-1.862,-1.862,-1.8761,-1.893,-1.893,-1.9098,-1.9283,-1.9256,-1.6881,-1.3667,-1.0459,-0.7158,-0.3926,-0.0679,0.0,0.0,0.0,0.0,0.0,0.0,0.0,0.0,0.0,0.0,0.0,0.0,0.0,0.0,0.0,0.0,0.0,0.0,0.0,0.0,0.0,0.0,0.0,0.0,0.0,0.0,0.0,0.0,0.0,0.0,0.0,0.0,0.0,0.0,0.0,-0.9276,-1.0589,-1.1684,-1.1267,-1.0964,-1.0632,-1.0133,-0.9719,-0.9341,-0.9036,-0.8934,-0.8834,-0.8727,-0.8769,-0.897,-0.9323,-0.978,-1.0742,-1.2558,-1.4407,-1.5853,-1.675,-1.713,-1.7369,-1.75,-1.7636,-1.7793,-1.7973,-1.7935,-1.7935,-1.7989,-1.7935,-1.7902,-1.7902,-1.7902,-1.7962,-1.8087,-1.8103,-1.8158,-1.8272,-1.8272,-1.837,-1.8538,-1.8538,-1.8565,-1.862,-1.862,-1.862,-1.862,-1.862,-1.862,-1.862,-1.862,-1.862,-1.862,-1.862,-1.862,-1.862,-1.862,-1.862,-1.862,-1.862,-1.862,-1.862,-1.862,-1.875,-1.8892,-1.8892,-1.906,-1.924,-1.9185,-1.6847,-1.3667,-1.0384,-0.7168,-0.3935,-0.0682,0.0,0.0,0.0,0.0,0.0,0.0,0.0,0.0,0.0,0.0,0.0,0.0,0.0,0.0,0.0,0.0,0.0,0.0,0.0,0.0,0.0,0.0,0.0,0.0,0.0,0.0,0.0,0.0,0.0,0.0,0.0,0.0,0.0,0.0,0.0,-0.869,-0.9247,-0.9818,-0.9858,-0.9627,-0.9334,-0.9098,-0.8849,-0.8704,-0.872,-0.8693,-0.8715,-0.889,-0.9008,-0.9239,-0.9753,-1.0422,-1.1716,-1.4124,-1.5461,-1.6527,-1.7356,-1.775,-1.7902,-1.7902,-1.7902,-1.7902,-1.7902,-1.7902,-1.7902,-1.7902,-1.7902,-1.7902,-1.7902,-1.7902,-1.7902,-1.7902,-1.7902,-1.7962,-1.8076,-1.8076,-1.8201,-1.8369,-1.8369,-1.8439,-1.862,0.0,0.0,-1.862,-1.862,-1.862,-1.862,-1.862,-1.862,-1.862,-1.862,-1.8609,-1.8593,-1.8593,-1.8609,-1.862,-1.862,-1.862,-1.862,-1.862,-1.869,-1.8761,-1.8761,-1.8883,-1.8977,-1.8727,-1.6408,-1.3287,-0.9977,-0.6851,-0.3783,-0.0682,0.0,0.0,0.0,0.0,0.0,0.0,0.0,0.0,0.0,0.0,0.0,0.0,0.0,0.0,0.0,0.0,0.0,0.0,0.0,0.0,0.0,0.0,0.0,0.0,0.0,0.0,0.0,0.0,0.0,0.0,0.0,0.0,0.0,0.0,0.0,-0.8367,-0.8912,-0.9465,-0.9674,-0.9725,-0.971,-0.9672,-0.9401,-0.9226,-0.9329,-0.9188,-0.9082,-0.9334,-0.9639,-0.9975,-1.0457,-1.1998,-1.3569,-1.4896,-1.5934,-1.6744,-1.7389,-1.775,-1.7902,-1.7902,-1.7902,-1.7902,-1.7902,-1.7902,-1.7902,-1.7902,-1.7902,-1.7902,-1.7902,-1.7902,-1.7902,-1.7902,-1.7902,-1.7962,-1.8076,-1.8076,-1.8201,-1.8369,-1.8369,-1.8439,-1.862,0.0,-1.862,-1.862,-1.862,-1.862,-1.862,-1.862,-1.862,-1.862,-1.862,-1.8549,-1.8396,-1.8396,-1.8538,-1.862,-1.862,-1.862,-1.862,-1.862,-1.8636,-1.8647,-1.8647,-1.8378,-1.7958,-1.7263,-1.4733,-1.1644,-0.8383,-0.5669,-0.3104,-0.053,0.0,0.0,0.0,0.0,0.0,0.0,0.0,0.0,0.0,0.0,0.0,0.0,0.0,0.0,0.0,0.0,0.0,0.0,0.0,0.0,0.0,0.0,0.0,0.0,0.0,0.0,0.0,0.0,0.0,0.0,0.0,0.0,0.0,0.0,0.0,-0.8334,-0.8773,-0.9266,-0.9671,-1.0008,-1.0267,-1.0242,-1.0095,-0.9943,-0.9802,-0.9601,-0.9569,-0.9916,-1.0264,-1.0916,-1.2183,-1.345,-1.4619,-1.557,-1.6358,-1.7005,-1.7484,-1.775,-1.7902,-1.7902,-1.7902,-1.7902,-1.7902,-1.7902,-1.7902,-1.7902,-1.7902,-1.7902,-1.7902,-1.7902,-1.7902,-1.7902,-1.7902,-1.7935,-1.7989,-1.7989,-1.8076,-1.8245,-1.8245,-1.8343,-1.8522,0.0,-1.8565,-1.862,-1.862,-1.862,-1.862,-1.862,-1.862,-1.862,-1.862,-1.8582,-1.8538,-1.8538,-1.8576,-1.862,-1.862,-1.862,-1.862,-1.862,-1.862,-1.862,-1.862,-1.7949,-1.6898,-1.5621,-1.3052,-0.9981,-0.6729,-0.439,-0.2423,-0.0455,0.0,0.0,0.0,0.0,0.0,0.0,0.0,0.0,0.0,0.0,0.0,0.0,0.0,0.0,0.0,0.0,0.0,0.0,0.0,0.0,0.0,0.0,0.0,0.0,0.0,0.0,0.0,0.0,0.0,0.0,0.0,0.0,0.0,0.0,0.0,-0.8361,-0.8713,-0.9168,-0.9645,-1.0248,-1.0699,-1.0762,-1.079,-1.0746,-1.0487,-1.0305,-1.0311,-1.0666,-1.1107,-1.1982,-1.3678,-1.4559,-1.5352,-1.6076,-1.6712,-1.7201,-1.7494,-1.775,-1.7902,-1.7902,-1.7902,-1.7902,-1.7902,-1.7902,-1.7902,-1.7902,-1.7902,-1.7902,-1.7902,-1.7902,-1.7902,-1.7902,-1.7902,-1.7902,-1.7902,-1.7902,-1.7962,-1.8076,-1.8076,-1.8212,-1.8369,-1.8369,-1.8511,-1.862,-1.862,-1.862,-1.862,-1.862,-1.862,-1.862,-1.8593,-1.8593,-1.862,-1.8593,-1.8593,-1.862,-1.862,-1.862,-1.862,-1.862,-1.862,-1.862,-1.862,-1.7334,-1.565,-1.4008,-1.1376,-0.8319,-0.4991,-0.3178,-0.1741,-0.0303,0.0,0.0,0.0,0.0,0.0,0.0,0.0,0.0,0.0,0.0,0.0,0.0,0.0,0.0,0.0,0.0,0.0,0.0,0.0,0.0,0.0,0.0,0.0,0.0,0.0,0.0,0.0,0.0,0.0,0.0,0.0,0.0,0.0,0.0,0.0,-0.835,-0.8654,-0.9044,-0.9563,-1.0167,-1.0724,-1.1161,-1.1352,-1.1494,-1.165,-1.1546,-1.1502,-1.1688,-1.2373,-1.3254,-1.4282,-1.5053,-1.5738,-1.6358,-1.6962,-1.7386,-1.7459,-1.775,-1.7902,-1.7902,-1.7902,-1.7902,-1.7902,-1.7902,-1.7902,-1.7902,-1.7902,-1.7902,-1.7902,-1.7902,-1.7902,-1.7902,-1.7902,-1.7902,-1.7902,-1.7902,-1.7962,-1.8076,-1.8076,-1.8212,-1.8369,-1.8369,-1.8511,-1.862,-1.862,-1.862,-1.862,-1.862,-1.862,-1.8609,-1.8495,-1.8522,-1.8609,-1.8495,-1.8522,-1.862,-1.862,-1.862,-1.862,-1.862,-1.862,-1.862,-1.862,-1.6589,-1.4016,-1.2312,-0.9664,-0.6657,-0.3331,-0.1893,-0.1061,-0.0152,0.0,0.0,0.0,0.0,0.0,0.0,0.0,0.0,0.0,0.0,0.0,0.0,0.0,0.0,0.0,0.0,0.0,0.0,0.0,0.0,0.0,0.0,0.0,0.0,0.0,0.0,0.0,0.0,0.0,0.0,0.0,0.0,0.0,0.0,0.0,-0.8426,-0.8622,-0.897,-0.9567,-1.0156,-1.0784,-1.1449,-1.2053,-1.2536,-1.258,-1.2738,-1.2808,-1.2629,-1.3221,-1.395,-1.4619,-1.5391,-1.6092,-1.6614,-1.7076,-1.7437,-1.7429,-1.7636,-1.7793,-1.7793,-1.7864,-1.7875,-1.7793,-1.7793,-1.7766,-1.7679,-1.775,-1.7793,-1.7793,-1.7864,-1.7902,-1.7902,-1.7902,-1.7902,-1.7902,-1.7902,-1.7935,-1.7973,-1.7973,-1.806,-1.8212,-1.8212,-1.8326,-1.8511,-1.8511,-1.8549,-1.862,-1.862,-1.862,-1.862,-1.8565,-1.8582,-1.862,-1.8565,-1.8582,-1.862,-1.862,-1.862,-1.862,-1.862,-1.8253,-1.7825,-1.7308,-1.5054,-1.2312,-1.0607,-0.8015,-0.4919,-0.1666,-0.0682,-0.0379,-0.0076,0.0,0.0,0.0,0.0,0.0,0.0,0.0,0.0,0.0,0.0,0.0,0.0,0.0,0.0,0.0,0.0,0.0,0.0,0.0,0.0,0.0,0.0,0.0,0.0,0.0,0.0,0.0,0.0,0.0,0.0,0.0,0.0,0.0,0.0,0.0,-0.8552,-0.8622,-0.889,-0.9496,-1.0156,-1.0862,-1.1824,-1.2661,-1.3281,-1.3433,-1.3689,-1.3776,-1.3469,-1.3847,-1.4407,-1.4841,-1.5586,-1.6277,-1.675,-1.713,-1.7426,-1.7426,-1.7565,-1.7723,-1.7723,-1.7793,-1.7804,-1.7723,-1.7679,-1.7625,-1.747,-1.7625,-1.7679,-1.7723,-1.7766,-1.7804,-1.7848,-1.7804,-1.7793,-1.7793,-1.7793,-1.7837,-1.7902,-1.7902,-1.7962,-1.8076,-1.8076,-1.8212,-1.8369,-1.8369,-1.8511,-1.862,-1.862,-1.862,-1.862,-1.862,-1.862,-1.862,-1.862,-1.862,-1.862,-1.862,-1.862,-1.862,-1.862,-1.7897,-1.6869,-1.5852,-1.3417,-1.0582,-0.843,-0.6132,-0.3711,-0.0682,0.0,0.0,0.0,0.0,0.0,0.0,0.0,0.0,0.0,0.0,0.0,0.0,0.0,0.0,0.0,0.0,0.0,0.0,0.0,0.0,0.0,0.0,0.0,0.0,0.0,0.0,0.0,0.0,0.0,0.0,0.0,0.0,0.0,0.0,0.0,0.0,0.0,0.0,-0.8808,-0.8716,-0.8736,-0.9345,-1.0128,-1.102,-1.2259,-1.3096,-1.3754,-1.4238,-1.4434,-1.4407,-1.4086,-1.4265,-1.4629,-1.4925,-1.5641,-1.6277,-1.675,-1.713,-1.7426,-1.7426,-1.7565,-1.7723,-1.7723,-1.7723,-1.7723,-1.7723,-1.754,-1.747,-1.747,-1.747,-1.7524,-1.7706,-1.7598,-1.7524,-1.7723,-1.7598,-1.747,-1.747,-1.747,-1.7663,-1.7902,-1.7902,-1.7962,-1.8076,-1.8076,-1.8212,-1.8369,-1.8369,-1.8511,-1.862,-1.862,-1.862,-1.862,-1.862,-1.862,-1.862,-1.862,-1.862,-1.862,-1.862,-1.862,-1.862,-1.862,-1.753,-1.6001,-1.4399,-1.1771,-0.8675,-0.5513,-0.4102,-0.2953,-0.0606,0.0,0.0,0.0,0.0,0.0,0.0,0.0,0.0,0.0,0.0,0.0,0.0,0.0,0.0,0.0,0.0,0.0,0.0,0.0,0.0,0.0,0.0,0.0,0.0,0.0,0.0,0.0,0.0,0.0,0.0,0.0,0.0,0.0,0.0,0.0,0.0,0.0,0.0,-0.8872,-0.8992,-0.9296,-1.011,-1.0896,-1.1789,-1.3118,-1.3901,-1.4629,-1.563,-1.5532,-1.5124,-1.473,-1.4814,-1.5037,-1.5093,-1.5771,-1.6402,-1.688,-1.7119,-1.7244,-1.7244,-1.7369,-1.7467,-1.7467,-1.7538,-1.7554,-1.7467,-1.7429,-1.7369,-1.7299,-1.7369,-1.7429,-1.7467,-1.7511,-1.7554,-1.7524,-1.7554,-1.747,-1.747,-1.747,-1.7513,-1.7652,-1.7734,-1.7793,-1.7837,-1.7918,-1.8044,-1.8201,-1.837,-1.8396,-1.8495,-1.8593,-1.862,-1.862,-1.862,-1.862,-1.862,-1.862,-1.862,-1.862,-1.862,-1.862,-1.862,-1.862,-1.7163,-1.4983,-1.2942,-1.009,-0.6992,-0.3827,-0.2455,-0.1581,-0.0301,0.0,0.0,0.0,0.0,0.0,0.0,0.0,0.0,0.0,0.0,0.0,0.0,0.0,0.0,0.0,0.0,0.0,0.0,0.0,0.0,0.0,0.0,0.0,0.0,0.0,0.0,0.0,0.0,0.0,0.0,0.0,0.0,0.0,0.0,0.0,0.0,0.0,0.0,-0.9033,-0.9336,-0.984,-1.0858,-1.1773,-1.2863,-1.4417,-1.4983,-1.5418,-1.6288,-1.6108,-1.5657,-1.5222,-1.5304,-1.5445,-1.5488,-1.5978,-1.6516,-1.6951,-1.7119,-1.719,-1.719,-1.7288,-1.7426,-1.7426,-1.7429,-1.744,-1.7426,-1.7382,-1.7261,-1.719,-1.7261,-1.7315,-1.7426,-1.7386,-1.7429,-1.7467,-1.7429,-1.7397,-1.7397,-1.7397,-1.7397,-1.7397,-1.7565,-1.7679,-1.7734,-1.7902,-1.8016,-1.8087,-1.8343,-1.8369,-1.838,-1.8576,-1.862,-1.862,-1.862,-1.862,-1.862,-1.862,-1.862,-1.862,-1.862,-1.862,-1.862,-1.862,-1.6734,-1.4113,-1.1416,-0.8471,-0.5353,-0.2201,-0.1035,-0.0597,-0.015,0.0,0.0,0.0,0.0,0.0,0.0,0.0,0.0,0.0,0.0,0.0,0.0,0.0,0.0,0.0,0.0,0.0,0.0,0.0,0.0,0.0,0.0,0.0,0.0,0.0,0.0,0.0,0.0,0.0,0.0,0.0,0.0,0.0,0.0,0.0,0.0,0.0,0.0,-0.9291,-0.9791,-1.0349,-1.1596,-1.2765,-1.408,-1.588,-1.6119,-1.6076,-1.6445,-1.6331,-1.6065,-1.5728,-1.5832,-1.588,-1.5994,-1.6288,-1.6641,-1.6978,-1.7119,-1.719,-1.719,-1.7339,-1.741,-1.741,-1.741,-1.741,-1.741,-1.7244,-1.719,-1.719,-1.719,-1.7234,-1.741,-1.7244,-1.7244,-1.741,-1.7244,-1.719,-1.719,-1.719,-1.719,-1.7201,-1.7429,-1.7598,-1.7734,-1.7962,-1.806,-1.8076,-1.831,-1.8336,-1.8424,-1.8549,-1.8609,-1.8609,-1.862,-1.862,-1.862,-1.862,-1.862,-1.862,-1.862,-1.862,-1.862,-1.862,-1.644,-1.3308,-1.0182,-0.7058,-0.4009,-0.0803,0.0,0.0,0.0,0.0,0.0,0.0,0.0,0.0,0.0,0.0,0.0,0.0,0.0,0.0,0.0,0.0,0.0,0.0,0.0,0.0,0.0,0.0,0.0,0.0,0.0,0.0,0.0,0.0,0.0,0.0,0.0,0.0,0.0,0.0,0.0,0.0,0.0,0.0,0.0,0.0,0.0,-0.9291,-1.0095,-1.1014,-1.2216,-1.3825,-1.532,-1.6108,-1.6315,-1.6456,-1.682,-1.6766,-1.6614,-1.6445,-1.651,-1.6597,-1.6625,-1.6782,-1.6951,-1.7119,-1.7174,-1.719,-1.719,-1.7217,-1.7228,-1.7228,-1.7228,-1.7228,-1.7228,-1.7201,-1.719,-1.719,-1.719,-1.7201,-1.7228,-1.7201,-1.7201,-1.7228,-1.7201,-1.719,-1.719,-1.719,-1.719,-1.719,-1.7331,-1.7511,-1.7734,-1.7875,-1.7946,-1.7946,-1.8087,-1.8158,-1.8174,-1.8397,-1.8407,-1.8495,-1.8582,-1.862,-1.862,-1.862,-1.862,-1.862,-1.862,-1.862,-1.862,-1.862,-1.644,-1.3308,-1.0182,-0.7058,-0.4009,-0.0803,0.0,0.0,0.0,0.0,0.0,0.0,0.0,0.0,0.0,0.0,0.0,0.0,0.0,0.0,0.0,0.0,0.0,0.0,0.0,0.0,0.0,0.0,0.0,0.0,0.0,0.0,0.0,0.0,0.0,0.0,0.0,0.0,0.0,0.0,0.0,0.0,0.0,0.0,0.0,0.0,0.0,-0.94,-1.0403,-1.1699,-1.3531,-1.4869,-1.5869,-1.6347,-1.65,-1.6625,-1.6864,-1.6782,-1.6641,-1.657,-1.6614,-1.6695,-1.6809,-1.688,-1.6978,-1.7163,-1.719,-1.719,-1.719,-1.719,-1.719,-1.719,-1.719,-1.719,-1.719,-1.719,-1.719,-1.719,-1.719,-1.719,-1.719,-1.719,-1.719,-1.719,-1.719,-1.719,-1.719,-1.719,-1.719,-1.719,-1.7369,-1.7511,-1.7636,-1.7821,-1.7902,-1.7918,-1.8033,-1.8076,-1.8103,-1.8343,-1.8369,-1.8451,-1.8576,-1.862,-1.862,-1.862,-1.862,-1.862,-1.862,-1.862,-1.862,-1.862,-1.644,-1.3308,-1.0182,-0.7058,-0.4009,-0.0803,0.0,0.0,0.0,0.0,0.0,0.0,0.0,0.0,0.0,0.0,0.0,0.0,0.0,0.0,0.0,0.0,0.0,0.0,0.0,0.0,0.0,0.0,0.0,0.0,0.0,0.0,0.0,0.0,0.0,0.0,0.0,0.0,0.0,0.0,0.0,0.0,0.0,0.0,0.0,0.0,0.0,-0.9481,-1.0825,-1.2531,-1.4841,-1.5684,-1.6065,-1.6446,-1.6614,-1.6641,-1.6739,-1.6641,-1.6527,-1.6527,-1.6527,-1.6597,-1.682,-1.6853,-1.6935,-1.7163,-1.719,-1.719,-1.719,-1.7174,-1.7163,-1.7163,-1.713,-1.713,-1.713,-1.7147,-1.7163,-1.7163,-1.7174,-1.7174,-1.7163,-1.7174,-1.7174,-1.7163,-1.7174,-1.719,-1.719,-1.719,-1.719,-1.7201,-1.7413,-1.7459,-1.7486,-1.7777,-1.7891,-1.7918,-1.8005,-1.8044,-1.806,-1.8283,-1.8381,-1.8397,-1.8538,-1.8593,-1.8593,-1.8609,-1.862,-1.862,-1.862,-1.862,-1.862,-1.862,-1.644,-1.3308,-1.0182,-0.7058,-0.4009,-0.0803,0.0,0.0,0.0,0.0,0.0,0.0,0.0,0.0,0.0,0.0,0.0,0.0,0.0,0.0,0.0,0.0,0.0,0.0,0.0,0.0,0.0,0.0,0.0,0.0,0.0,0.0,0.0,0.0,0.0,0.0,0.0,0.0,0.0,0.0,0.0,0.0,0.0,0.0,0.0,0.0,0.0,-0.9403,-1.1476,-1.3694,-1.5179,-1.5809,-1.6146,-1.6429,-1.65,-1.65,-1.6516,-1.6652,-1.6782,-1.6782,-1.6782,-1.682,-1.6962,-1.6978,-1.7032,-1.7174,-1.719,-1.719,-1.719,-1.7092,-1.7032,-1.7032,-1.6935,-1.6864,-1.6864,-1.6962,-1.7032,-1.7032,-1.713,-1.7147,-1.7032,-1.713,-1.713,-1.7032,-1.713,-1.719,-1.719,-1.719,-1.719,-1.719,-1.7331,-1.744,-1.7486,-1.7679,-1.7804,-1.7902,-1.7918,-1.7935,-1.7946,-1.8076,-1.8114,-1.8141,-1.8381,-1.8396,-1.8407,-1.8582,-1.862,-1.862,-1.862,-1.862,-1.862,-1.862,-1.644,-1.3308,-1.0182,-0.7058,-0.4009,-0.0803,0.0,0.0,0.0,0.0,0.0,0.0,0.0,0.0,0.0,0.0,0.0,0.0,0.0,0.0,0.0,0.0,0.0,0.0,0.0,0.0,0.0,0.0,0.0,0.0,0.0,0.0,0.0,0.0,0.0,0.0,0.0,0.0,0.0,0.0,0.0,0.0,0.0,0.0,0.0,0.0,0.0,-1.0226,-1.2107,-1.3836,-1.5222,-1.5782,-1.6065,-1.6315,-1.6482,-1.6472,-1.6472,-1.6554,-1.6625,-1.6625,-1.6625,-1.6668,-1.6782,-1.6793,-1.6837,-1.6962,-1.6978,-1.7005,-1.7076,-1.6978,-1.6907,-1.6907,-1.6793,-1.6695,-1.6625,-1.6793,-1.6907,-1.6907,-1.7021,-1.706,-1.7005,-1.6989,-1.6989,-1.7005,-1.706,-1.7119,-1.719,-1.719,-1.719,-1.719,-1.7244,-1.7331,-1.744,-1.7636,-1.775,-1.7804,-1.7875,-1.7902,-1.7918,-1.8033,-1.8076,-1.8103,-1.8353,-1.8369,-1.8451,-1.8576,-1.862,-1.862,-1.862,-1.862,-1.862,-1.862,-1.644,-1.3308,-1.0182,-0.7058,-0.4009,-0.0803,0.0,0.0,0.0,0.0,0.0,0.0,0.0,0.0,0.0,0.0,0.0,0.0,0.0,0.0,0.0,0.0,0.0,0.0,0.0,0.0,0.0,0.0,0.0,0.0,0.0,0.0,0.0,0.0,0.0,0.0,0.0,0.0,0.0,0.0,0.0,0.0,0.0,0.0,0.0,0.0,0.0,-1.0636,-1.2167,-1.3428,-1.4787,-1.5363,-1.5684,-1.5994,-1.6206,-1.6358,-1.6418,-1.6509,-1.6472,-1.6472,-1.6472,-1.6516,-1.656,-1.6576,-1.6679,-1.6809,-1.682,-1.6864,-1.6989,-1.6864,-1.6782,-1.6782,-1.6641,-1.65,-1.6385,-1.657,-1.6684,-1.6684,-1.6809,-1.6853,-1.682,-1.6793,-1.6809,-1.6864,-1.6935,-1.7021,-1.7147,-1.7147,-1.7163,-1.719,-1.719,-1.7228,-1.7331,-1.7538,-1.7663,-1.7734,-1.7821,-1.7875,-1.7918,-1.8005,-1.8033,-1.806,-1.8299,-1.8397,-1.8413,-1.8565,-1.862,-1.862,-1.862,-1.862,-1.862,-1.862,-1.644,-1.3308,-1.0182,-0.7058,-0.4009,-0.0803,0.0,0.0,0.0,0.0,0.0,0.0,0.0,0.0,0.0,0.0,0.0,0.0,0.0,0.0,0.0,0.0,0.0,0.0,0.0,0.0,0.0,0.0,0.0,0.0,0.0,0.0,0.0,0.0,0.0,0.0,0.0,0.0,0.0,0.0,0.0,0.0,0.0,0.0,0.0,0.0,0.0,-1.0025,-1.1237,-1.2504,-1.3602,-1.4309,-1.4858,-1.5331,-1.5711,-1.6021,-1.6244,-1.6385,-1.6472,-1.6472,-1.6472,-1.6516,-1.656,-1.6576,-1.6679,-1.6809,-1.682,-1.6864,-1.6989,-1.6793,-1.6587,-1.6587,-1.6445,-1.626,-1.6135,-1.6244,-1.6315,-1.6315,-1.6429,-1.6445,-1.6331,-1.6543,-1.6597,-1.65,-1.6722,-1.6891,-1.7021,-1.7021,-1.7076,-1.719,-1.719,-1.719,-1.7201,-1.7331,-1.7511,-1.7723,-1.7723,-1.7804,-1.7902,-1.7908,-1.7918,-1.7946,-1.8245,-1.8343,-1.8299,-1.8538,-1.862,-1.862,-1.862,-1.862,-1.862,-1.862,-1.644,-1.3308,-1.0182,-0.7058,-0.4009,-0.0803,0.0,0.0,0.0,0.0,0.0,0.0,0.0,0.0,0.0,0.0,0.0,0.0,0.0,0.0,0.0,0.0,0.0,0.0,0.0,0.0,0.0,0.0,0.0,0.0,0.0,0.0,0.0,0.0,0.0,0.0,0.0,0.0,0.0,0.0,0.0,0.0,0.0,0.0,0.0,0.0,0.0,-0.9179,-1.0199,-1.1286,-1.2362,-1.3194,-1.3917,-1.4559,-1.5162,-1.57,-1.6092,-1.6277,-1.6375,-1.6456,-1.6472,-1.6483,-1.6527,-1.6527,-1.6543,-1.6597,-1.6597,-1.6641,-1.675,-1.6625,-1.6527,-1.6527,-1.6385,-1.6233,-1.6119,-1.6288,-1.6375,-1.6288,-1.6472,-1.6527,-1.6418,-1.6483,-1.6543,-1.6581,-1.6739,-1.688,-1.7005,-1.7005,-1.7076,-1.719,-1.719,-1.719,-1.719,-1.7228,-1.7342,-1.75,-1.7652,-1.775,-1.7793,-1.7875,-1.7902,-1.7935,-1.8174,-1.8326,-1.8354,-1.8538,-1.862,-1.862,-1.862,-1.862,-1.862,-1.862,-1.6488,-1.3378,-1.0191,-0.7081,-0.403,-0.0803,0.0,0.0,0.0,0.0,0.0,0.0,0.0,0.0,0.0,0.0,0.0,0.0,0.0,0.0,0.0,0.0,0.0,0.0,0.0,0.0,0.0,0.0,0.0,0.0,0.0,0.0,0.0,0.0,0.0,0.0,0.0,0.0,0.0,0.0,0.0,0.0,0.0,0.0,0.0,0.0,0.0,-0.8519,-0.9296,-1.0177,-1.1047,-1.19,-1.2721,-1.3488,-1.4282,-1.5037,-1.5668,-1.6005,-1.6233,-1.6429,-1.6445,-1.6429,-1.6472,-1.6472,-1.6472,-1.6472,-1.6472,-1.6516,-1.656,-1.6543,-1.6472,-1.6472,-1.6358,-1.6233,-1.6119,-1.626,-1.6304,-1.6173,-1.6358,-1.6445,-1.6418,-1.6418,-1.6472,-1.6581,-1.6668,-1.6782,-1.6951,-1.6951,-1.7032,-1.719,-1.719,-1.719,-1.719,-1.719,-1.7261,-1.7437,-1.7581,-1.7679,-1.7734,-1.7864,-1.7902,-1.7935,-1.8174,-1.8326,-1.8354,-1.8538,-1.862,-1.862,-1.862,-1.862,-1.862,-1.862,-1.6638,-1.3831,-1.0946,-0.7913,-0.4781,-0.1617,-0.044,0.0,0.0,0.0,0.0,0.0,0.0,0.0,0.0,0.0,0.0,0.0,0.0,0.0,0.0,0.0,0.0,0.0,0.0,0.0,0.0,0.0,0.0,0.0,0.0,0.0,0.0,0.0,0.0,0.0,0.0,0.0,0.0,0.0,0.0,0.0,0.0,0.0,0.0,0.0,0.0,0.0,0.0,0.0,-0.9628,-1.0381,-1.127,-1.2154,-1.3047,-1.4015,-1.4983,-1.551,-1.6021,-1.6385,-1.6358,-1.6315,-1.6445,-1.652,-1.6472,-1.6472,-1.6472,-1.6516,-1.656,-1.6543,-1.6472,-1.6472,-1.6358,-1.6244,-1.6119,-1.6119,-1.6065,-1.5951,-1.6048,-1.6163,-1.6288,-1.6288,-1.6347,-1.6472,-1.6472,-1.6587,-1.682,-1.682,-1.6951,-1.719,-1.719,-1.719,-1.719,-1.719,-1.7261,-1.7437,-1.7484,-1.7609,-1.7734,-1.7848,-1.7902,-1.7935,-1.8174,-1.8326,-1.8354,-1.8538,-1.862,-1.862,-1.862,-1.862,-1.862,-1.862,-1.6956,-1.4638,-1.2386,-0.9485,-0.6337,-0.3191,-0.1183,0.0,0.0,0.0,0.0,0.0,0.0,0.0,0.0,0.0,0.0,0.0,0.0,0.0,0.0,0.0,0.0,0.0,0.0,0.0,0.0,0.0,0.0,0.0,0.0,0.0,0.0,0.0,0.0,0.0,0.0,0.0,0.0,0.0,0.0,0.0,0.0,0.0,0.0,0.0,0.0,-0.744,0.0,0.0,0.0,0.0,0.0,-1.08,-1.1854,-1.2966,-1.4178,-1.4838,-1.5472,-1.6092,-1.6179,-1.6163,-1.6206,-1.6277,-1.6347,-1.6347,-1.6418,-1.6483,-1.6516,-1.6483,-1.6472,-1.6472,-1.6445,-1.6402,-1.6375,-1.6375,-1.6315,-1.6206,-1.6217,-1.6288,-1.6418,-1.6418,-1.6445,-1.6472,-1.6385,-1.65,-1.682,-1.6674,-1.6864,-1.719,-1.719,-1.719,-1.719,-1.719,-1.7261,-1.7437,-1.7484,-1.7554,-1.7609,-1.7821,-1.7902,-1.7935,-1.8174,-1.8326,-1.8354,-1.8538,-1.862,-1.862,-1.862,-1.862,-1.862,-1.862,-1.7436,-1.5676,-1.3945,-1.1202,-0.7848,-0.3489,-0.118,0.0,0.0,0.0,0.0,0.0,0.0,0.0,0.0,0.0,0.0,0.0,0.0,0.0,0.0,0.0,0.0,0.0,0.0,0.0,0.0,0.0,0.0,0.0,0.0,0.0,0.0,0.0,0.0,0.0,0.0,0.0,0.0,0.0,0.0,0.0,0.0,0.0,0.0,0.0,0.0,-0.6953,-0.7286,-0.7699,-0.8019,0.0,0.0,-0.9791,-1.0786,-1.1933,-1.3154,-1.3988,-1.4657,-1.5374,-1.5472,-1.5429,-1.5429,-1.5586,-1.5825,-1.6233,-1.6347,-1.6418,-1.6472,-1.6472,-1.6472,-1.6472,-1.6472,-1.6472,-1.6472,-1.6472,-1.6445,-1.6375,-1.6315,-1.6347,-1.6472,-1.6472,-1.6472,-1.6472,-1.6402,-1.6516,-1.682,-1.675,-1.688,-1.719,-1.719,-1.719,-1.719,-1.719,-1.7261,-1.7437,-1.7484,-1.7497,-1.7567,-1.7837,-1.7902,-1.7935,-1.8174,-1.8326,-1.8354,-1.8538,-1.862,-1.862,-1.862,-1.862,-1.862,-1.862,-1.7794,-1.6628,-1.546,-1.1946,-0.7698,-0.388,-0.1482,0.0,0.0,0.0,0.0,0.0,0.0,0.0,0.0,0.0,0.0,0.0,0.0,0.0,0.0,0.0,0.0,0.0,0.0,0.0,0.0,0.0,0.0,0.0,0.0,0.0,0.0,0.0,0.0,0.0,0.0,0.0,0.0,0.0,0.0,0.0,0.0,0.0,0.0,0.0,0.0,-0.6512,-0.705,0.0,0.0,-0.8334,0.0,-0.9084,-0.9861,-1.0852,-1.2027,-1.2873,-1.3586,-1.4309,-1.4347,-1.4282,-1.4282,-1.4521,-1.5096,-1.6037,-1.6206,-1.6277,-1.6418,-1.6429,-1.6429,-1.6429,-1.6429,-1.6445,-1.6509,-1.652,-1.6472,-1.6472,-1.6375,-1.6358,-1.6472,-1.6472,-1.6472,-1.6472,-1.652,-1.657,-1.682,-1.6809,-1.6935,-1.719,-1.719,-1.719,-1.719,-1.719,-1.7261,-1.7453,-1.7494,-1.7609,-1.7734,-1.7864,-1.7902,-1.7935,-1.8174,-1.8326,-1.8354,-1.8538,-1.862,-1.862,-1.862,-1.862,-1.862,-1.862,-1.8109,-1.7436,-1.6552,-1.212,-0.6946,-0.4435,-0.1868,0.0,0.0,0.0,0.0,0.0,0.0,0.0,0.0,0.0,0.0,0.0,0.0,0.0,0.0,0.0,0.0,0.0,0.0,0.0,0.0,0.0,0.0,0.0,0.0,0.0,0.0,0.0,0.0,0.0,0.0,0.0,0.0,0.0,0.0,0.0,0.0,0.0,0.0,0.0,0.0,-0.5981,-0.6696,-0.7338,-0.8007,0.0,0.0,-0.8367,-0.893,-0.9693,-1.0779,-1.1483,-1.2143,-1.2819,-1.2933,-1.2867,-1.2867,-1.3357,-1.4108,-1.526,-1.5673,-1.6001,-1.6146,-1.6179,-1.6179,-1.6179,-1.6179,-1.6217,-1.6315,-1.6418,-1.6472,-1.6472,-1.6509,-1.6445,-1.6472,-1.6472,-1.6472,-1.6472,-1.6375,-1.6483,-1.682,-1.6658,-1.6853,-1.719,-1.719,-1.719,-1.719,-1.719,-1.7315,-1.7511,-1.7459,-1.7609,-1.7734,-1.7864,-1.7902,-1.7935,-1.8174,-1.8326,-1.8354,-1.8538,-1.862,-1.862,-1.862,-1.862,-1.862,-1.862,-1.8475,-1.7866,-1.5371,-1.2045,-0.8534,-0.5363,-0.2323,0.0,0.0,0.0,0.0,0.0,0.0,0.0,0.0,0.0,0.0,0.0,0.0,0.0,0.0,0.0,0.0,0.0,0.0,0.0,0.0,0.0,0.0,0.0,0.0,0.0,0.0,0.0,0.0,0.0,0.0,0.0,0.0,0.0,0.0,0.0,0.0,0.0,0.0,0.0,0.0,-0.5011,-0.5802,-0.6492,-0.7137,0.0,0.0,0.0,-0.7709,-0.8478,-0.9346,-1.013,-1.0827,-1.1491,-1.1643,-1.1681,-1.1681,-1.2281,-1.2999,-1.3847,-1.4841,-1.5641,-1.6048,-1.6108,-1.6108,-1.6108,-1.6108,-1.6163,-1.6277,-1.6402,-1.6472,-1.6472,-1.6472,-1.6472,-1.6472,-1.6472,-1.6472,-1.6472,-1.6418,-1.65,-1.6722,-1.6603,-1.6793,-1.7103,-1.7103,-1.713,-1.719,-1.719,-1.7326,-1.747,-1.747,-1.7652,-1.7821,-1.7875,-1.7902,-1.7935,-1.8174,-1.8326,-1.8354,-1.8538,-1.862,-1.862,-1.862,-1.862,-1.862,-1.862,-1.8707,-1.8236,-1.554,-1.2947,-1.0117,-0.6886,-0.36,-0.1115,-0.0669,-0.0295,0.0,0.0,0.0,0.0,0.0,0.0,0.0,0.0,0.0,0.0,0.0,0.0,0.0,0.0,0.0,0.0,0.0,0.0,0.0,0.0,0.0,0.0,0.0,0.0,0.0,0.0,0.0,0.0,0.0,0.0,0.0,0.0,0.0,0.0,0.0,0.0,0.0,0.0,0.0,0.0,0.0,0.0,-0.5926,0.0,0.0,0.0,-0.7913,-0.874,-0.9519,-1.0214,-1.0435,-1.0506,-1.0533,-1.1177,-1.183,-1.2357,-1.37,-1.4912,-1.5668,-1.5798,-1.5853,-1.5896,-1.5967,-1.6048,-1.6146,-1.626,-1.6358,-1.6402,-1.6429,-1.6445,-1.6472,-1.6472,-1.6472,-1.6472,-1.6472,-1.6527,-1.6576,-1.6576,-1.6766,-1.7005,-1.7005,-1.7076,-1.719,-1.719,-1.7326,-1.747,-1.747,-1.7679,-1.7902,-1.7902,-1.7902,-1.7935,-1.8174,-1.8326,-1.8354,-1.8538,-1.862,-1.862,-1.862,-1.862,-1.862,-1.862,-1.8788,-1.8537,-1.624,-1.4141,-1.1853,-0.8622,-0.5323,-0.26,-0.1636,-0.0663,0.0,0.0,0.0,0.0,0.0,0.0,0.0,0.0,0.0,0.0,0.0,0.0,0.0,0.0,0.0,0.0,0.0,0.0,0.0,0.0,0.0,0.0,0.0,0.0,0.0,0.0,0.0,0.0,0.0,0.0,0.0,0.0,0.0,0.0,0.0,0.0,0.0,0.0,0.0,0.0,0.0,-0.454,0.0,0.0,0.0,-0.5653,-0.6463,0.0,-0.8174,-0.8951,0.0,0.0,-0.9282,-0.9938,-1.065,-1.1384,-1.2058,-1.3015,-1.4363,-1.4716,-1.4923,-1.5135,-1.5445,-1.5641,-1.5657,-1.5832,-1.5985,-1.6135,-1.6244,-1.6358,-1.6472,-1.6472,-1.6472,-1.6472,-1.6472,-1.6527,-1.6576,-1.6576,-1.6766,-1.7005,-1.7005,-1.7076,-1.719,-1.719,-1.7326,-1.747,-1.747,-1.7679,-1.7902,-1.7902,-1.7902,-1.7935,-1.8174,-1.8326,-1.8354,-1.8538,-1.862,-1.862,-1.862,-1.862,-1.862,-1.862,-1.8788,-1.8673,-1.6914,-1.5412,-1.3517,-1.0277,-0.6966,-0.4158,-0.26,-0.1104,0.0,0.0,0.0,0.0,0.0,0.0,0.0,0.0,0.0,0.0,0.0,0.0,0.0,0.0,0.0,0.0,0.0,0.0,0.0,0.0,0.0,0.0,0.0,0.0,0.0,0.0,0.0,0.0,0.0,0.0,0.0,0.0,0.0,0.0,0.0,0.0,0.0,0.0,0.0,0.0,0.0,0.0,0.0,0.0,0.0,-0.427,0.0,0.0,0.0,0.0,0.0,0.0,0.0,-0.9085,-0.9887,-1.0452,-1.0944,-1.1843,-1.3308,-1.376,-1.4124,-1.4575,-1.4885,-1.5139,-1.521,-1.5266,-1.5472,-1.5782,-1.6108,-1.6315,-1.6358,-1.6429,-1.6472,-1.6472,-1.6472,-1.65,-1.6543,-1.6543,-1.6668,-1.6891,-1.6891,-1.7005,-1.719,-1.719,-1.7326,-1.747,-1.747,-1.7679,-1.7902,-1.7902,-1.7902,-1.7918,-1.8087,-1.8201,-1.8283,-1.8451,-1.8565,-1.862,-1.862,-1.862,-1.862,-1.862,-1.8734,-1.865,-1.7472,-1.6476,-1.5101,-1.2336,-0.9584,-0.6938,-0.4946,-0.2861,-0.124,-0.0802,-0.0365,0.0,0.0,0.0,0.0,0.0,0.0,0.0,0.0,0.0,0.0,0.0,0.0,0.0,0.0,0.0,0.0,0.0,0.0,0.0,0.0,0.0,0.0,0.0,0.0,0.0,0.0,0.0,0.0,0.0,0.0,0.0,0.0,0.0,0.0,-0.3188,0.0,0.0,0.0,0.0,0.0,0.0,0.0,0.0,0.0,0.0,0.0,0.0,0.0,0.0,0.0,0.0,-0.9161,-0.9731,-1.0019,-1.071,-1.2172,-1.2841,-1.339,-1.3928,-1.4222,-1.4417,-1.4561,-1.4657,-1.4912,-1.5304,-1.5842,-1.6179,-1.6233,-1.6385,-1.6472,-1.6472,-1.6472,-1.6472,-1.6472,-1.6472,-1.6597,-1.682,-1.682,-1.6962,-1.719,-1.719,-1.7326,-1.747,-1.747,-1.7679,-1.7902,-1.7902,-1.7902,-1.7918,-1.8033,-1.8131,-1.8228,-1.8381,-1.8522,-1.862,-1.862,-1.862,-1.862,-1.862,-1.8707,-1.8715,-1.8059,-1.7634,-1.6762,-1.4542,-1.2329,-1.0069,-0.7502,-0.4833,-0.2697,-0.1677,-0.073,0.0,0.0,0.0,0.0,0.0,0.0,0.0,0.0,0.0,0.0,0.0,0.0,0.0,0.0,0.0,0.0,0.0,0.0,0.0,0.0,0.0,0.0,0.0,0.0,0.0,0.0,0.0,0.0,0.0,0.0,0.0,0.0,0.0,0.0,0.0,0.0,0.0,-0.0341,0.0,0.0,0.0,0.0,-0.1371,0.0,0.0,0.0,0.0,0.0,0.0,0.0,0.0,0.0,0.0,-0.9206,-0.9591,-1.084,-1.187,-1.2705,-1.3075,-1.3428,-1.364,-1.3645,-1.3857,-1.425,-1.4673,-1.5434,-1.588,-1.6108,-1.6347,-1.6472,-1.6472,-1.6472,-1.6472,-1.6472,-1.6472,-1.6597,-1.682,-1.682,-1.6962,-1.719,-1.719,-1.7326,-1.747,-1.747,-1.7679,-1.7902,-1.7902,-1.7902,-1.7918,-1.8033,-1.8076,-1.8114,-1.8353,-1.8522,-1.862,-1.862,-1.862,-1.862,-1.862,-1.8707,-1.8788,-1.8788,-1.8875,-1.8537,-1.6914,-1.5197,-1.3144,-0.9996,-0.6876,-0.4224,-0.2625,-0.1095,0.0,0.0,0.0,0.0,0.0,0.0,0.0,0.0,0.0,0.0,0.0,0.0,0.0,0.0,0.0,0.0,0.0,0.0,0.0,0.0,0.0,0.0,0.0,0.0,0.0,0.0,0.0,0.0,0.0,0.0,0.0,0.0,0.0,0.0,0.0,0.0,-0.3858,-0.2686,0.0,0.0,0.0,0.0,0.0,0.0,0.0,0.0,0.0,0.0,0.0,0.0,0.0,0.0,0.0,0.0,-0.8981,0.0,0.0,0.0,-1.1996,-1.2324,-1.2602,-1.2814,-1.2922,-1.3325,-1.4048,-1.4923,-1.5543,-1.5869,-1.626,-1.6472,-1.6472,-1.6472,-1.6472,-1.6472,-1.6472,-1.6597,-1.682,-1.682,-1.6962,-1.719,-1.719,-1.7326,-1.747,-1.747,-1.7679,-1.7902,-1.7902,-1.7902,-1.7908,-1.7946,-1.806,-1.8228,-1.8478,-1.8593,-1.862,-1.862,-1.862,-1.862,-1.862,-1.8647,-1.868,-1.868,-1.8707,-1.8527,-1.7429,-1.6429,-1.5045,-1.2278,-0.9722,-0.7242,-0.5104,-0.2991,-0.1386,-0.0875,-0.0366,0.0,0.0,0.0,0.0,0.0,0.0,0.0,0.0,0.0,0.0,0.0,0.0,0.0,0.0,0.0,0.0,0.0,0.0,0.0,0.0,0.0,0.0,0.0,0.0,0.0,0.0,0.0,0.0,0.0,0.0,0.0,-0.9149,-0.7902,0.0,-0.554,-0.4508,0.0,-0.2764,0.0,0.0,0.0,0.0,0.0,0.0,0.0,0.0,0.0,0.0,0.0,0.0,-0.8025,0.0,0.0,0.0,0.0,0.0,-1.14,-1.1694,-1.1941,-1.2053,-1.2493,0.0,-1.4292,-1.5064,-1.5543,-1.6108,-1.6429,-1.6472,-1.6472,-1.6483,-1.6527,-1.6527,-1.6652,-1.6891,-1.6891,-1.6989,-1.719,-1.719,-1.7326,-1.747,-1.747,-1.7679,-1.7902,-1.7902,-1.7902,-1.7902,-1.7902,-1.806,-1.8283,-1.8478,-1.8582,-1.862,-1.862,-1.862,-1.862,-1.862,-1.862,-1.862,-1.862,-1.862,-1.8475,-1.8047,-1.7612,-1.6798,-1.4612,-1.2598,-1.0421,-0.7678,-0.5034,-0.2844,-0.1828,-0.0734,0.0,0.0,0.0,0.0,0.0,0.0,0.0,0.0,0.0,0.0,0.0,0.0,0.0,0.0,0.0,0.0,0.0,0.0,0.0,0.0,0.0,0.0,0.0,0.0,0.0,0.0,0.0,0.0,0.0,0.0,0.0]},{"header":{"parameterUnit":"m.s-1","parameterCategory":1,"la1":30.6,"la2":29.2853,"lo1":-89.7004,"lo2":-87.6739,"dy":0.0162,"dx":0.0183,"nx":112,"ny":82,"refTime":"2026-04-04T12:00:00:Z","depth":0,"parameterNumber":3,"parameterNumberName":"V-component_of_WINDS"},"data":[0.0,0.0,0.0,0.0,0.0,0.0,0.0,0.0,0.0,0.0,0.0,0.0,0.0,0.0,0.0,0.0,0.0,0.0,0.0,0.0,0.0,0.0,0.0,0.0,0.0,0.0,0.0,0.0,0.0,0.0,0.0,0.0,0.0,0.0,0.0,0.0,0.0,0.0,0.0,0.0,0.0,0.0,0.0,0.0,0.0,0.0,0.0,0.0,0.0,0.0,0.0,0.0,0.0,0.0,0.0,0.0,0.0,0.0,0.0,0.0,0.0,0.0,0.0,0.0,0.0,0.0,0.0,0.0,0.0,0.0,0.0,0.0,0.0,0.0,0.0,0.0,0.0,0.0,0.0,0.0,0.0,0.0,0.0,0.0,0.0,0.0,0.0,0.0,0.0,0.0,0.0,7.4562,8.4675,8.9712,8.7134,8.4675,7.9912,7.1987,0.0,0.0,0.0,0.0,0.0,0.0,0.0,0.0,0.0,0.0,0.0,0.0,0.0,0.0,0.0,0.0,0.0,0.0,0.0,0.0,0.0,0.0,0.0,0.0,0.0,0.0,0.0,0.0,0.0,0.0,0.0,0.0,0.0,0.0,0.0,0.0,0.0,0.0,0.0,0.0,0.0,0.0,0.0,0.0,0.0,0.0,0.0,0.0,0.0,0.0,0.0,0.0,0.0,0.0,0.0,0.0,0.0,0.0,0.0,0.0,0.0,0.0,0.0,0.0,0.0,0.0,0.0,0.0,0.0,0.0,0.0,0.0,0.0,0.0,0.0,0.0,0.0,0.0,0.0,0.0,0.0,0.0,0.0,0.0,0.0,0.0,0.0,0.0,0.0,0.0,0.0,0.0,0.0,0.0,0.0,0.0,0.0,0.0,0.0,0.0,0.0,0.0,0.0,0.0,7.0972,8.3892,9.0687,9.3302,9.0726,8.8813,8.4089,7.5541,0.0,0.0,0.0,0.0,0.0,0.0,0.0,0.0,0.0,0.0,0.0,0.0,0.0,0.0,0.0,0.0,0.0,0.0,0.0,0.0,0.0,0.0,0.0,0.0,0.0,0.0,0.0,0.0,0.0,0.0,0.0,0.0,0.0,0.0,0.0,0.0,0.0,0.0,0.0,0.0,0.0,0.0,0.0,0.0,0.0,0.0,0.0,0.0,0.0,0.0,0.0,0.0,0.0,0.0,0.0,0.0,0.0,0.0,0.0,0.0,0.0,0.0,0.0,0.0,0.0,0.0,0.0,0.0,0.0,0.0,0.0,0.0,0.0,0.0,0.0,0.0,0.0,0.0,0.0,0.0,0.0,0.0,0.0,0.0,0.0,0.0,0.0,0.0,0.0,0.0,0.0,0.0,0.0,0.0,0.0,0.0,0.0,0.0,0.0,0.0,0.0,0.0,0.0,7.1011,7.9873,8.8577,9.2873,9.3888,9.0843,8.8149,8.2918,7.4292,6.5351,0.0,0.0,0.0,0.0,0.0,0.0,0.0,0.0,0.0,0.0,0.0,0.0,0.0,0.0,0.0,0.0,0.0,0.0,0.0,0.0,0.0,0.0,0.0,0.0,0.0,0.0,0.0,0.0,0.0,0.0,0.0,0.0,0.0,0.0,0.0,0.0,0.0,0.0,0.0,0.0,0.0,0.0,0.0,0.0,0.0,0.0,0.0,0.0,0.0,0.0,0.0,0.0,0.0,0.0,0.0,0.0,0.0,0.0,0.0,0.0,0.0,0.0,0.0,0.0,0.0,0.0,0.0,0.0,0.0,0.0,0.0,0.0,0.0,0.0,0.0,0.0,0.0,0.0,0.0,0.0,0.0,0.0,0.0,0.0,0.0,0.0,0.0,0.0,0.0,0.0,0.0,0.0,0.0,0.0,0.0,0.0,0.0,0.0,0.0,0.0,0.0,0.0,8.0771,8.7757,9.1507,9.4161,9.4161,9.0337,8.6431,8.0537,7.1948,6.3906,0.0,0.0,0.0,0.0,0.0,0.0,0.0,0.0,0.0,0.0,0.0,0.0,0.0,0.0,0.0,0.0,0.0,0.0,0.0,0.0,0.0,0.0,0.0,0.0,0.0,0.0,0.0,0.0,0.0,0.0,0.0,0.0,0.0,0.0,0.0,0.0,0.0,0.0,0.0,0.0,0.0,0.0,0.0,0.0,0.0,0.0,0.0,0.0,0.0,0.0,0.0,0.0,0.0,0.0,0.0,0.0,0.0,0.0,0.0,0.0,0.0,0.0,0.0,0.0,0.0,0.0,0.0,0.0,0.0,0.0,0.0,0.0,0.0,0.0,0.0,0.0,0.0,0.0,0.0,0.0,0.0,0.0,0.0,0.0,0.0,0.0,0.0,0.0,0.0,0.0,0.0,0.0,0.0,0.0,0.0,0.0,0.0,0.0,0.0,0.0,0.0,0.0,8.448,9.1546,9.3419,9.5957,9.5488,9.0415,8.5377,7.878,7.0115,6.1564,0.0,0.0,0.0,0.0,0.0,0.0,0.0,0.0,0.0,0.0,0.0,0.0,0.0,0.0,0.0,0.0,0.0,0.0,0.0,0.0,0.0,0.0,0.0,0.0,0.0,0.0,0.0,0.0,0.0,0.0,0.0,0.0,0.0,0.0,0.0,0.0,0.0,0.0,0.0,0.0,0.0,0.0,0.0,0.0,0.0,0.0,0.0,0.0,0.0,0.0,0.0,0.0,0.0,0.0,0.0,0.0,0.0,0.0,0.0,0.0,0.0,0.0,0.0,0.0,0.0,0.0,0.0,0.0,0.0,0.0,0.0,0.0,0.0,0.0,0.0,0.0,0.0,0.0,0.0,0.0,0.0,0.0,0.0,0.0,0.0,0.0,0.0,0.0,0.0,0.0,0.0,0.0,0.0,0.0,0.0,0.0,0.0,0.0,0.0,0.0,0.0,0.0,8.6314,9.2912,0.0,9.6777,9.5606,9.0454,8.526,7.8624,6.9959,0.0,0.0,0.0,0.0,0.0,0.0,0.0,0.0,0.0,0.0,0.0,0.0,0.0,0.0,0.0,0.0,0.0,0.0,0.0,0.0,0.0,0.0,0.0,0.0,0.0,0.0,0.0,0.0,0.0,0.0,0.0,0.0,0.0,0.0,0.0,0.0,0.0,0.0,0.0,0.0,0.0,0.0,0.0,0.0,0.0,0.0,0.0,0.0,0.0,0.0,0.0,0.0,0.0,0.0,0.0,0.0,0.0,0.0,0.0,0.0,0.0,0.0,0.0,0.0,0.0,0.0,0.0,0.0,0.0,0.0,0.0,0.0,0.0,0.0,0.0,0.0,0.0,0.0,0.0,0.0,0.0,0.0,0.0,0.0,0.0,0.0,0.0,0.0,0.0,0.0,0.0,0.0,0.0,0.0,0.0,0.0,0.0,0.0,0.0,0.0,0.0,0.0,7.8429,8.7915,9.4512,0.0,9.7831,9.6425,9.1235,8.6041,7.9287,7.0387,0.0,0.0,0.0,0.0,0.0,0.0,0.0,0.0,0.0,0.0,0.0,0.0,0.0,0.0,0.0,0.0,0.0,0.0,0.0,0.0,0.0,0.0,0.0,0.0,0.0,0.0,0.0,0.0,0.0,0.0,0.0,0.0,0.0,0.0,0.0,0.0,0.0,0.0,0.0,0.0,0.0,0.0,0.0,0.0,0.0,0.0,0.0,0.0,0.0,0.0,0.0,0.0,0.0,0.0,0.0,0.0,0.0,0.0,0.0,0.0,0.0,0.0,0.0,0.0,0.0,0.0,0.0,0.0,0.0,0.0,0.0,0.0,0.0,0.0,0.0,0.0,0.0,0.0,0.0,0.0,0.0,0.0,0.0,0.0,0.0,0.0,0.0,0.0,0.0,0.0,0.0,0.0,0.0,0.0,0.0,0.0,0.0,0.0,0.0,0.0,0.0,0.0,7.8624,8.9514,9.6777,9.7636,9.9275,9.8182,9.2953,8.7837,8.0847,0.0,0.0,0.0,0.0,0.0,0.0,0.0,0.0,0.0,0.0,0.0,0.0,0.0,0.0,0.0,0.0,0.0,0.0,0.0,0.0,0.0,0.0,0.0,0.0,0.0,0.0,0.0,0.0,0.0,0.0,0.0,0.0,0.0,0.0,0.0,0.0,0.0,0.0,0.0,0.0,0.0,0.0,0.0,0.0,0.0,0.0,0.0,0.0,0.0,0.0,0.0,0.0,0.0,0.0,0.0,0.0,0.0,0.0,0.0,0.0,0.0,0.0,0.0,0.0,0.0,0.0,0.0,0.0,0.0,0.0,0.0,0.0,0.0,0.0,0.0,0.0,0.0,0.0,0.0,0.0,0.0,0.0,0.0,0.0,0.0,0.0,0.0,0.0,0.0,0.0,0.0,0.0,0.0,0.0,0.0,0.0,0.0,0.0,0.0,0.0,0.0,0.0,0.0,8.194,9.2051,9.8571,9.9431,10.0485,9.9316,9.4708,9.0726,8.4675,7.5774,0.0,0.0,0.0,0.0,0.0,0.0,0.0,0.0,0.0,0.0,0.0,0.0,0.0,0.0,0.0,0.0,0.0,0.0,0.0,0.0,0.0,0.0,0.0,0.0,0.0,0.0,0.0,0.0,0.0,0.0,0.0,0.0,0.0,0.0,0.0,0.0,0.0,0.0,0.0,0.0,0.0,0.0,0.0,0.0,0.0,0.0,0.0,0.0,0.0,0.0,0.0,0.0,0.0,0.0,0.0,0.0,0.0,0.0,0.0,0.0,0.0,0.0,0.0,0.0,0.0,0.0,0.0,0.0,0.0,0.0,0.0,0.0,0.0,0.0,0.0,0.0,0.0,0.0,0.0,0.0,0.0,0.0,0.0,0.0,0.0,0.0,0.0,0.0,0.0,0.0,0.0,0.0,0.0,0.0,0.0,0.0,0.0,0.0,0.0,0.0,0.0,0.0,8.3502,9.4003,10.072,10.1188,10.2008,10.119,9.795,9.4827,8.9242,8.0224,0.0,0.0,0.0,0.0,0.0,0.0,0.0,0.0,0.0,0.0,0.0,0.0,0.0,0.0,0.0,0.0,0.0,0.0,0.0,0.0,0.0,0.0,0.0,0.0,0.0,0.0,0.0,0.0,0.0,0.0,0.0,0.0,0.0,0.0,0.0,0.0,0.0,0.0,0.0,0.0,0.0,0.0,0.0,0.0,0.0,0.0,0.0,0.0,0.0,0.0,0.0,0.0,0.0,0.0,0.0,0.0,0.0,0.0,0.0,0.0,0.0,0.0,0.0,0.0,0.0,0.0,0.0,0.0,0.0,0.0,0.0,0.0,0.0,0.0,0.0,0.0,0.0,0.0,0.0,0.0,0.0,0.0,0.0,0.0,0.0,0.0,0.0,0.0,0.0,0.0,0.0,0.0,0.0,0.0,0.0,0.0,0.0,0.0,0.0,0.0,0.0,0.0,8.4049,9.5645,10.2984,10.2984,10.3882,10.3689,10.1815,9.9431,9.4044,8.4675,0.0,0.0,0.0,0.0,0.0,0.0,0.0,0.0,0.0,0.0,0.0,0.0,0.0,0.0,0.0,0.0,0.0,0.0,0.0,0.0,0.0,0.0,0.0,0.0,0.0,0.0,0.0,0.0,0.0,0.0,0.0,0.0,0.0,0.0,0.0,0.0,0.0,0.0,0.0,0.0,0.0,0.0,0.0,0.0,0.0,0.0,0.0,0.0,0.0,0.0,0.0,0.0,0.0,0.0,0.0,0.0,0.0,0.0,0.0,0.0,6.2793,5.912,0.0,0.0,0.0,0.0,0.0,0.0,0.0,0.0,0.0,0.0,0.0,0.0,0.0,0.0,0.0,0.0,0.0,0.0,0.0,0.0,0.0,0.0,0.0,0.0,0.0,0.0,0.0,0.0,0.0,0.0,0.0,0.0,0.0,0.0,0.0,0.0,0.0,0.0,0.0,0.0,8.651,9.7792,10.4819,10.4819,10.6185,10.5912,10.2789,10.1383,9.7247,8.9127,8.0341,0.0,0.0,0.0,0.0,0.0,0.0,0.0,0.0,0.0,0.0,0.0,0.0,0.0,0.0,0.0,0.0,0.0,0.0,0.0,0.0,0.0,0.0,0.0,0.0,0.0,0.0,0.0,0.0,0.0,0.0,0.0,0.0,0.0,0.0,0.0,0.0,0.0,0.0,0.0,0.0,0.0,0.0,0.0,0.0,0.0,0.0,0.0,0.0,0.0,0.0,0.0,0.0,0.0,0.0,0.0,0.0,0.0,0.0,0.0,7.3108,6.8421,0.0,0.0,0.0,0.0,0.0,0.0,0.0,0.0,0.0,0.0,0.0,0.0,0.0,0.0,0.0,0.0,0.0,0.0,0.0,0.0,0.0,0.0,0.0,0.0,0.0,0.0,0.0,0.0,0.0,0.0,0.0,0.0,0.0,0.0,0.0,0.0,0.0,0.0,0.0,0.0,8.7929,9.9094,10.62,10.6591,10.7518,10.7083,10.4897,10.3101,9.9197,9.2248,8.4519,0.0,0.0,0.0,0.0,0.0,0.0,0.0,0.0,0.0,0.0,0.0,0.0,0.0,0.0,0.0,0.0,0.0,0.0,0.0,0.0,0.0,0.0,0.0,0.0,0.0,0.0,0.0,0.0,0.0,0.0,0.0,0.0,0.0,0.0,0.0,0.0,0.0,0.0,0.0,0.0,0.0,0.0,0.0,0.0,0.0,0.0,0.0,0.0,0.0,0.0,0.0,0.0,0.0,8.7968,8.9609,9.0819,9.2968,9.453,9.5038,8.6559,8.1713,7.9603,7.7182,0.0,0.0,0.0,0.0,0.0,0.0,0.0,0.0,0.0,0.0,0.0,0.0,0.0,0.0,0.0,0.0,0.0,0.0,0.0,0.0,0.0,0.0,0.0,0.0,8.9674,8.7754,7.8343,0.0,0.0,0.0,0.0,0.0,0.0,0.0,0.0,0.0,0.0,0.0,8.9156,10.0203,10.7385,10.8088,10.85,10.8293,10.72,10.5014,10.1305,9.5527,8.8969,8.2293,0.0,0.0,0.0,0.0,0.0,0.0,0.0,0.0,0.0,0.0,0.0,0.0,0.0,0.0,0.0,0.0,0.0,0.0,0.0,0.0,0.0,0.0,0.0,0.0,0.0,0.0,0.0,0.0,0.0,0.0,0.0,0.0,6.1323,6.1671,0.0,0.0,0.0,0.0,0.0,0.0,0.0,0.0,0.0,0.0,0.0,0.0,0.0,8.5452,8.9713,9.3192,9.6632,9.9929,10.0306,10.1811,10.4117,10.439,10.5518,10.6993,10.6288,0.0,9.0427,8.8554,0.0,0.0,0.0,0.0,0.0,0.0,0.0,0.0,0.0,0.0,0.0,0.0,0.0,0.0,0.0,0.0,0.0,0.0,0.0,0.0,0.0,0.0,9.8668,10.0308,10.1402,10.1402,0.0,9.0877,8.2645,7.8311,7.4133,0.0,0.0,0.0,0.0,0.0,0.0,0.0,9.1117,10.2003,10.8984,10.9101,11.0413,11.0714,10.9113,10.7903,10.5404,10.08,9.541,8.967,8.3541,7.5772,0.0,0.0,0.0,0.0,0.0,0.0,0.0,0.0,0.0,0.0,0.0,0.0,0.0,0.0,0.0,0.0,0.0,0.0,0.0,0.0,0.0,0.0,0.0,0.0,0.0,0.0,0.0,0.0,0.0,6.3722,6.7996,6.8925,6.8864,6.806,0.0,0.0,0.0,0.0,0.0,0.0,0.0,0.0,0.0,8.6931,9.2083,9.6844,10.1206,10.5194,10.8507,11.0983,11.2095,11.3386,11.5105,11.6002,11.6892,11.7584,11.8988,11.5817,10.9,10.1087,9.4565,8.9058,0.0,0.0,0.0,0.0,8.5546,8.7698,9.1718,9.189,9.018,8.8974,0.0,0.0,0.0,0.0,0.0,0.0,0.0,0.0,0.0,0.0,10.488,10.621,10.7498,10.8199,10.6793,10.2604,9.6887,0.0,8.4196,7.9159,7.2639,0.0,0.0,0.0,0.0,8.4447,9.3548,10.3309,10.9711,11.0688,11.142,11.1607,11.0787,11.0004,10.8014,10.4617,10.1416,9.6886,9.0833,8.4579,7.8484,0.0,0.0,0.0,0.0,0.0,0.0,0.0,0.0,0.0,0.0,0.0,0.0,0.0,0.0,0.0,0.0,0.0,0.0,0.0,0.0,0.0,0.0,0.0,0.0,0.0,0.0,0.0,0.0,7.0774,7.5042,7.6725,7.6687,7.574,0.0,0.0,0.0,0.0,0.0,0.0,8.5907,8.9891,9.3959,9.7982,10.2701,10.699,11.0996,11.469,11.7489,11.959,12.0905,12.2085,12.3213,12.4504,12.501,12.5088,12.6684,12.5788,12.2607,11.2414,10.5182,10.0313,9.5906,9.4189,9.437,9.5833,9.7644,10.0012,10.4216,10.4302,10.2386,10.1515,9.7051,9.1247,8.7187,0.0,0.0,0.0,0.0,9.4644,10.0506,10.6014,11.0311,11.1601,11.2812,11.3084,11.1599,11.0893,10.7804,0.0,9.2841,8.7998,8.1516,0.0,0.0,0.0,0.0,8.8046,9.6639,10.4684,11.019,11.1714,11.2099,11.221,11.221,11.139,10.9906,10.7484,10.5688,10.2408,9.698,9.2205,8.6655,8.0172,0.0,0.0,0.0,0.0,0.0,0.0,0.0,0.0,0.0,0.0,0.0,0.0,0.0,0.0,0.0,0.0,0.0,0.0,0.0,0.0,0.0,0.0,0.0,0.0,0.0,0.0,0.0,0.0,0.0,8.4648,8.6185,0.0,0.0,0.0,0.0,8.6796,9.0981,9.4849,9.8207,10.1688,10.5216,10.862,11.2101,11.5287,11.8091,11.9918,12.2209,12.4778,12.4985,12.5915,12.7501,12.7586,12.7586,12.7702,12.8596,12.7508,12.4887,12.1111,11.6889,11.2495,10.799,10.6407,10.6505,10.7397,10.9303,11.2083,11.5692,11.63,11.5492,11.4695,10.829,10.0312,9.6836,9.4492,0.0,0.0,9.9531,10.3515,10.8711,11.2695,11.6015,11.8515,11.8515,11.7695,11.6797,11.539,11.1913,0.0,9.9597,9.5496,9.0263,0.0,8.2689,8.6208,8.9803,9.4335,10.0508,10.6717,11.0893,11.1792,11.2606,11.299,11.299,11.2287,11.1117,10.9319,10.7484,10.4985,10.1392,9.7828,9.3487,8.8215,8.1328,0.0,0.0,0.0,0.0,0.0,0.0,0.0,0.0,0.0,0.0,0.0,0.0,0.0,0.0,0.0,0.0,0.0,0.0,0.0,0.0,0.0,0.0,0.0,0.0,0.0,0.0,0.0,0.0,9.3291,9.556,0.0,9.4856,9.3456,9.4501,9.9019,10.2817,10.6415,10.9819,11.3184,11.6085,11.8397,12.1308,12.3493,12.4991,12.618,12.7302,12.819,12.8179,12.8585,12.9205,12.9717,12.9988,12.9988,13.0918,13.0492,12.899,12.7187,12.2985,11.7482,11.4782,11.3807,11.3909,11.4784,11.6014,11.7814,12.1404,12.1399,11.9309,11.6414,11.2489,10.8403,10.5484,10.3891,10.339,10.5387,10.7694,11.0312,11.3789,11.6484,11.8593,12.0117,12.0195,11.9414,11.7383,11.6093,11.3984,10.9491,10.6795,10.3905,9.9842,9.5741,9.3632,9.5429,9.7226,9.9961,10.4297,10.9218,11.2382,11.2694,11.3514,11.3787,11.32,11.2888,11.199,11.0193,10.9607,10.7888,10.4998,10.3197,9.9756,9.4601,8.8259,8.1648,0.0,0.0,0.0,0.0,0.0,0.0,0.0,0.0,0.0,0.0,0.0,0.0,0.0,0.0,0.0,0.0,0.0,0.0,0.0,0.0,0.0,0.0,0.0,0.0,0.0,9.0981,9.8292,10.1193,10.3784,10.4984,10.4094,10.332,10.4519,10.8388,11.1908,11.5002,11.7904,12.0495,12.2584,12.4286,12.6298,12.7806,12.8618,12.9508,13.0001,13.0321,13.0321,13.0514,13.0785,13.1404,13.1597,13.1723,13.2216,13.1984,13.122,13.0591,12.7602,12.319,12.1387,12.0897,12.1207,12.1796,12.2605,12.3719,12.609,12.5908,12.3918,12.041,11.8298,11.6809,11.4591,11.3298,11.2895,11.4088,11.5114,11.6289,11.8203,11.9609,12.0703,12.1601,12.1601,12.0703,11.8398,11.6484,11.4687,11.2695,11.0703,10.8515,10.5898,10.3086,10.1484,10.2304,10.3008,10.4492,10.7617,11.0781,11.289,11.3203,11.3711,11.3789,11.3203,11.289,11.1992,11.0312,10.9609,10.8398,10.6406,10.5194,10.2692,9.8669,9.1195,8.3566,7.5792,0.0,0.0,0.0,0.0,0.0,0.0,0.0,0.0,0.0,0.0,0.0,0.0,0.0,0.0,0.0,0.0,0.0,0.0,0.0,0.0,0.0,0.0,0.0,8.886,9.7518,10.4713,10.8194,11.0902,11.2093,11.1289,11.2015,11.3223,11.4886,11.8097,12.0689,12.2391,12.3203,12.4402,12.5988,12.6916,12.7806,12.8618,12.9498,13.0398,13.121,13.121,13.1723,13.2487,13.2487,13.2487,13.2487,13.2487,13.1984,13.121,13.122,13.0707,12.9808,12.8116,12.8,12.8609,12.8609,12.9199,12.9992,13.0084,13.021,12.9816,12.7399,12.6089,12.5187,12.3613,12.2596,12.1993,12.2116,12.1517,12.1093,12.1992,12.2187,12.25,12.3281,12.289,12.1797,12.0,11.6992,11.4297,11.3398,11.1211,10.9101,10.8281,10.6797,10.6015,10.6797,10.6914,0.0,11.039,11.1406,11.2304,11.3086,11.3203,11.3281,11.3203,11.2383,11.1211,10.9414,10.7617,10.6289,10.5508,10.3787,10.2106,10.0309,9.018,8.122,7.3588,0.0,0.0,0.0,0.0,0.0,0.0,0.0,0.0,0.0,0.0,0.0,0.0,0.0,0.0,0.0,0.0,0.0,0.0,0.0,0.0,0.0,8.5333,9.1916,9.4385,10.332,11.0894,11.4306,11.7594,11.9606,11.9983,12.0805,12.2004,12.3783,12.5292,12.6104,12.5988,12.5601,12.5601,12.6104,12.6916,12.8116,12.9498,13.1017,13.1906,13.21,13.21,13.2293,13.2487,13.2487,13.2487,13.2487,13.2487,13.2409,13.21,13.1491,13.1094,13.0707,12.9586,12.9305,12.9498,12.9498,13.0088,13.0805,13.0204,13.0516,13.0697,12.821,12.7296,12.6699,12.4615,12.3288,12.2599,12.2095,12.1412,12.0982,12.189,12.2603,12.3312,12.4215,12.4218,12.3398,12.1093,11.8281,11.5898,11.4414,11.3086,11.1914,11.1015,11.1015,11.1211,11.1406,11.1406,0.0,11.2383,11.3203,11.3593,11.3203,11.4297,11.4492,11.3281,11.3008,11.1601,10.8515,10.6797,10.5195,10.3711,10.3203,10.1483,9.8474,9.1948,8.5694,0.0,0.0,0.0,0.0,0.0,0.0,0.0,0.0,0.0,0.0,0.0,0.0,0.0,0.0,0.0,0.0,0.0,0.0,0.0,0.0,0.0,0.0,9.3456,10.0187,10.3784,11.0283,11.5699,11.8484,12.1501,12.3706,12.4518,12.5408,12.6414,12.7806,12.8696,12.8812,12.7884,12.68,12.6298,12.6607,12.711,12.8386,13.0398,13.21,13.3183,13.3492,13.3183,13.3183,13.3492,13.3183,13.299,13.299,13.299,13.2796,13.2487,13.1984,13.1713,13.1597,0.0,0.0,0.0,0.0,13.1288,13.1684,13.1202,13.1415,13.151,12.9318,12.8596,12.8206,12.5388,12.3517,12.209,12.0998,11.9612,11.8787,11.9995,12.1316,12.2589,12.3815,12.449,12.4218,12.1914,11.9101,11.6718,11.5703,11.4297,0.0,11.3515,11.3984,11.4297,11.4297,11.4218,11.4297,11.4297,11.4687,11.4804,11.4297,11.5117,11.5195,11.3906,11.3398,0.0,0.0,0.0,10.4687,10.3008,10.289,0.0,0.0,0.0,0.0,0.0,0.0,0.0,0.0,7.9495,8.2691,0.0,0.0,0.0,0.0,0.0,0.0,0.0,0.0,0.0,0.0,0.0,0.0,0.0,0.0,0.0,0.0,10.1108,10.8379,11.419,11.7594,12.0002,12.1501,12.3899,12.5679,12.6491,12.7303,12.8116,12.8812,12.9702,12.9818,12.8812,12.7187,0.0,0.0,0.0,12.858,13.122,13.2912,13.4111,13.5001,13.4111,13.4189,13.5001,13.4111,13.3802,13.3802,13.3686,13.3299,13.2603,13.2487,13.2603,13.2487,13.0901,13.0901,13.1713,13.2487,13.2796,13.2796,13.268,0.0,0.0,13.0591,13.0001,12.9306,12.6093,12.3397,12.1097,11.9613,11.7405,11.591,11.779,11.9615,12.1386,12.3217,12.4409,12.4609,12.3008,12.0,11.7617,11.75,11.5508,11.4414,11.6015,11.6015,11.5781,11.5703,11.5703,11.5703,11.5781,11.5703,11.5703,11.5703,0.0,0.0,11.4687,11.3789,11.2187,10.9609,10.6992,10.4804,10.3281,10.3203,10.3203,10.3318,10.1091,9.8746,9.6398,9.7375,9.7526,9.6732,9.1535,9.1758,0.0,0.0,0.0,0.0,0.0,0.0,0.0,0.0,0.0,0.0,0.0,0.0,0.0,0.0,0.0,10.011,10.6608,11.2488,11.7014,12.2313,12.5795,12.6104,12.7806,12.9005,12.9111,13.0011,13.0514,13.0707,13.1481,13.1288,12.9692,12.8116,12.7187,12.7381,12.7381,12.858,13.122,13.2912,13.4111,13.5001,13.4111,0.0,13.5001,13.4111,13.4111,13.4692,13.3995,13.3609,13.3415,13.2796,13.2912,13.3415,13.3106,13.3492,13.4305,13.4498,13.4498,13.4421,13.3686,13.3492,13.3183,13.1481,13.0514,12.9412,12.6778,12.4181,0.0,12.0282,11.8586,11.7611,11.9411,12.1308,12.3091,12.4992,12.6085,12.6484,12.5508,12.3086,12.1015,12.0312,11.9218,11.8515,11.8789,11.7109,11.5703,11.5703,11.5703,11.5703,11.5703,11.5703,11.5703,11.5781,11.6406,11.6406,11.5508,11.4687,11.3086,11.0508,10.7304,10.5312,10.5,10.5,10.5312,10.6015,10.5508,10.5,10.4492,10.6015,10.7108,10.7493,10.2282,10.1481,0.0,0.0,0.0,0.0,0.0,0.0,0.0,0.0,0.0,0.0,0.0,8.5101,9.0671,0.0,9.9916,10.5487,11.0709,11.5312,11.918,12.4905,12.8309,12.7497,12.8889,13.0088,13.0514,13.0901,13.1414,13.179,13.2293,13.1906,13.0591,12.9315,12.8889,12.9315,12.9315,13.0514,13.3106,13.4382,13.5388,13.62,13.5388,13.5388,13.62,13.5388,13.5184,13.561,13.5194,13.4808,13.4305,13.3918,13.4189,13.5001,13.5001,13.5001,13.5001,13.5001,13.5001,13.4885,13.4498,13.4111,13.3492,13.2293,13.1288,13.0098,12.7593,12.5008,12.2691,12.1,11.8987,11.781,11.9797,12.1613,12.3495,12.5394,12.6588,12.7187,12.6718,12.5312,12.3984,12.3515,12.2383,12.1601,12.1601,11.9687,11.8281,11.8281,11.8281,11.8281,11.8281,11.8281,11.8281,11.8281,11.8711,11.8398,11.7109,11.5508,11.3789,11.1992,10.9883,10.8711,10.8711,10.8711,10.9101,10.9883,11.0,11.0195,11.0586,11.1914,11.3007,11.3784,11.1982,11.1189,0.0,0.0,0.0,0.0,0.0,0.0,0.0,7.6243,7.8525,8.4327,8.9433,9.4346,9.9181,10.2508,10.5796,10.9819,11.3803,11.7517,12.0805,12.6104,12.9121,12.7613,12.9199,13.0707,13.1414,13.1491,13.1713,13.2409,13.2487,13.2177,13.1491,13.0785,13.0785,13.1713,13.1713,13.2796,13.5184,13.588,13.6703,13.7515,13.6703,13.6703,13.7515,13.6703,13.6383,13.651,13.6383,13.5813,13.5001,13.5194,13.5697,13.6306,13.651,13.6084,13.5504,13.5504,13.5504,13.5504,13.5311,13.4692,13.3802,13.299,13.1984,13.0785,12.858,12.622,12.389,12.2391,12.0418,11.9115,12.0888,12.2606,12.4308,12.6211,12.7318,12.8007,12.7812,12.7109,12.6484,12.6289,12.5,12.3906,12.3789,12.2617,12.1484,12.1015,12.0898,12.0898,12.0898,12.0898,12.0898,12.0898,12.0898,12.0312,11.8711,11.6718,11.5117,11.4218,11.3515,11.3086,11.3086,11.3086,11.3515,11.4218,11.4414,11.4804,11.5508,11.6406,11.7109,11.7809,11.9411,11.8782,6.1123,6.6224,7.4303,7.8016,8.1426,8.4289,0.0,8.6842,8.8969,9.4153,9.8717,10.2895,10.6492,10.8117,10.9896,11.3494,11.6279,11.9103,12.181,12.5988,12.8386,12.7497,13.0204,13.2216,13.2293,13.2409,13.2409,13.2487,13.2487,13.2487,13.2409,13.2293,13.2603,13.3415,13.3415,13.4305,13.6112,13.6316,13.6703,13.7515,13.6703,13.6703,13.7515,13.6703,13.6703,13.7283,13.6587,13.5813,13.5117,13.5803,13.619,13.6383,13.709,13.7283,13.7206,13.7206,13.7206,13.709,13.6394,13.562,13.4692,13.3802,13.2487,13.0978,12.9895,12.8386,12.68,12.5795,12.4789,12.4206,12.5507,12.6614,12.7691,12.8902,12.9891,13.0494,12.9799,12.8905,12.8086,12.7304,12.6406,12.5508,12.4804,12.4492,12.3593,12.1211,12.0898,12.0898,12.0898,12.0898,12.0898,12.0898,12.0898,12.0508,11.9492,11.9218,11.8711,11.7812,11.7617,11.7617,11.7617,11.7617,11.7617,11.7695,11.8515,11.8906,11.8984,11.9883,12.039,12.0507,12.1484,12.0896,6.8833,7.3956,8.1221,8.5119,9.0179,9.4539,9.5777,9.7092,9.9375,10.4017,10.7614,11.0399,11.2411,11.2991,11.3919,11.5815,11.7787,12.0108,12.2623,12.622,12.8116,12.68,12.7497,12.858,13.0088,13.0204,13.0707,13.1723,13.2216,13.2487,13.2487,13.2912,13.3609,13.4421,13.4885,13.5813,13.7013,13.7013,13.7206,13.7515,13.7206,13.7206,13.7515,13.7206,13.7206,13.7515,13.709,13.6819,13.651,13.6819,13.7013,13.7013,13.7399,13.7515,13.7515,13.7515,13.7515,13.7515,13.709,13.651,13.562,13.4692,13.3609,13.2487,13.1713,13.0591,12.9508,12.9209,12.8386,12.7903,12.8488,12.8893,12.9415,13.0087,13.0608,13.0816,12.9982,12.9606,12.9101,12.8203,12.7383,12.6601,12.6289,12.5781,12.5117,12.3984,12.3008,12.2383,12.2383,12.2383,12.2383,12.2383,12.1992,12.1718,12.1914,12.1406,12.1015,12.0586,12.0586,12.0312,11.9804,11.9804,11.9804,11.9804,12.0195,12.0586,12.1093,12.1484,12.1914,12.2383,12.3281,12.3281,7.5086,8.0465,8.683,9.1267,9.7434,10.2709,10.3707,10.5293,10.7498,11.0786,11.3107,11.4809,11.5389,11.5505,11.5892,11.7014,11.8987,12.1114,12.3194,12.6298,12.7613,12.5911,12.4596,12.448,12.6298,12.711,12.8386,13.0282,13.1481,13.2293,13.2796,13.3415,13.4189,13.5311,13.6007,13.6703,13.7515,13.7515,13.7515,13.7515,13.7515,13.7515,13.7515,13.7515,13.7515,13.7515,13.7515,13.7515,13.7515,13.7515,13.7515,13.7515,13.7515,13.7515,13.7515,13.7515,13.7515,13.7515,13.7515,13.7013,13.619,13.562,13.4614,13.3609,13.299,13.2216,13.1597,13.1597,13.1094,13.0592,13.0802,13.0805,13.1004,13.129,13.1503,13.1396,13.0708,13.0384,13.0,12.9101,12.8281,12.7617,12.7304,12.6797,12.6289,12.6015,12.5,12.4218,12.4218,12.3984,12.3906,12.3906,12.3086,12.289,12.3789,12.3281,12.3008,12.3203,12.3203,12.3008,12.2304,12.2304,12.2304,12.2304,12.2304,12.2617,12.3203,12.3203,12.3593,12.4218,12.4804,12.539,7.7998,8.486,9.1344,9.6398,10.2298,10.7189,10.8891,11.0593,11.2093,11.2991,11.3997,11.4616,11.4616,11.4616,11.5196,11.6898,11.9992,12.2507,12.3387,12.5795,12.68,12.4982,12.2584,12.1114,12.1192,12.3512,12.5988,12.8502,13.0282,13.1906,13.3609,13.3686,13.4498,13.619,13.6306,13.6703,13.7515,13.7515,13.7515,13.7515,13.7515,13.7515,13.7515,13.7515,13.7515,13.7515,13.7515,13.7515,13.7515,13.7515,13.7515,13.7515,13.7515,13.7515,13.7515,13.7515,13.7515,13.7515,13.7515,13.7013,13.6306,13.6306,13.5117,13.3686,13.3686,13.3106,13.2487,13.2487,13.2409,13.2401,13.2499,13.2603,13.2701,13.2987,13.3083,13.3092,13.2518,13.1708,13.0898,13.0,12.9218,12.8281,12.7383,12.7304,12.6992,12.6093,12.6015,12.5898,12.5898,12.5195,12.4804,12.4804,12.3984,12.3789,12.4687,12.4687,12.5117,12.5781,12.5898,12.5898,12.5781,12.5781,12.5781,12.5781,12.5781,12.5898,12.5898,12.5898,12.5898,12.5898,12.6015,12.6914,8.2201,8.9098,9.5563,10.0692,10.6503,11.1393,11.3207,11.4906,11.5987,11.5688,11.4586,11.3705,11.3714,11.4185,11.5312,11.7594,12.1385,12.4286,12.5098,12.6491,12.6491,12.4209,12.2197,12.0302,11.86,12.0302,12.27,12.5795,12.8193,13.0514,13.2796,13.3995,13.5117,13.6316,13.6819,13.7206,13.7515,13.7515,13.7515,13.7515,13.7515,13.7515,13.7515,13.7515,13.7515,13.7515,13.7515,13.7515,13.7515,13.7515,13.7515,13.7515,13.7515,13.7515,13.7515,13.7515,13.7515,13.7515,13.7515,13.7283,13.7013,13.651,13.588,13.5311,13.4692,13.3995,13.3299,13.3299,13.2912,13.2497,13.2498,13.2605,13.2584,13.2908,13.3119,13.3015,13.2487,13.2211,13.1797,13.0898,13.0117,12.9414,12.9101,12.8515,12.8086,12.7812,12.6718,12.6015,12.6015,12.5781,12.539,12.4883,12.5,12.5312,12.5586,12.6093,12.6601,12.6797,12.6914,12.6601,12.6015,12.6015,12.6015,12.6015,12.6015,12.6015,12.6015,12.6015,12.6015,12.6015,12.7187,12.8008,8.7748,9.4552,10.0709,10.5486,11.0613,11.4693,11.5812,11.7316,11.7779,11.5214,11.2619,11.0714,11.0105,11.0803,11.2604,11.6008,12.0689,12.4286,12.5485,12.6684,12.6684,12.4712,12.27,12.0611,11.829,11.8484,11.9992,12.2787,12.5292,12.8309,13.179,13.3918,13.5504,13.6703,13.7206,13.7515,13.7515,13.7515,13.7515,13.7515,13.7515,13.7515,13.7515,13.7515,13.7515,13.7515,13.7515,13.7515,13.7515,13.7515,13.7515,13.7515,13.7515,13.7515,13.7515,13.7515,13.7515,13.7515,13.7515,13.7515,13.7399,13.6897,13.651,13.6112,13.5311,13.4421,13.3609,13.3415,13.2912,13.2487,13.2487,13.2487,13.2586,13.2782,13.2994,13.2995,13.2787,13.2582,13.2302,13.1717,13.0898,13.039,13.039,12.9609,12.8984,12.8593,12.7617,12.6914,12.6914,12.6718,12.6289,12.5703,12.5898,12.6093,12.6406,12.6992,12.7617,12.8203,12.8203,12.8086,12.789,12.789,12.7695,12.7383,12.7695,12.7695,12.7383,12.7695,12.7695,12.7383,12.8906,12.9492,9.4403,10.1096,10.6709,11.0793,11.4409,11.6987,11.691,11.8116,11.7586,11.1501,10.8084,10.5799,10.4117,10.4617,10.6995,11.2303,11.829,12.2816,12.4605,12.6298,12.6994,12.6182,12.3899,12.1694,11.9992,11.829,11.802,11.9683,12.2197,12.5795,13.0911,13.3492,13.5697,13.7399,13.7399,13.7515,13.7515,13.7515,13.7515,13.7515,13.7515,13.7515,13.7515,13.7515,13.7515,13.7515,13.7515,13.7515,13.7515,13.7515,13.7515,13.7515,13.7515,13.7515,13.7515,13.7515,13.7515,13.7515,13.7515,13.7515,13.7515,13.7515,13.7013,13.6112,13.5311,13.4421,13.3492,13.2796,13.2487,13.2487,13.2487,13.2487,13.2489,13.2706,13.2882,13.3108,13.3405,13.2887,13.2482,13.2493,13.1795,13.1289,13.1211,13.0508,12.9687,12.8789,12.8711,12.8711,12.8593,12.789,12.7304,12.7304,12.6601,12.6406,12.7187,12.7383,12.8086,12.9804,12.9883,13.0312,13.1211,13.1211,13.0781,13.0,13.0781,13.0781,13.0,13.0781,13.0781,13.0,13.0898,13.1289,9.9981,10.681,11.2295,11.4681,11.7282,11.9113,11.7793,11.792,11.6188,10.8911,10.2981,9.8816,9.7799,9.8392,10.1386,10.8504,11.6201,12.2081,12.4489,12.5679,12.6298,12.6104,12.4982,12.3512,12.181,12.0108,11.9799,12.1501,12.3396,12.6182,13.0011,13.2603,13.4808,13.6587,13.6587,13.6897,13.7515,13.7515,13.7515,13.7515,13.7515,13.7515,13.7515,13.7515,13.7515,13.7515,13.7515,13.7515,13.7515,13.7515,13.7515,13.7515,13.7515,13.7515,13.7515,13.7515,13.7515,13.7515,13.7515,13.7515,13.7515,13.7515,13.7013,13.6316,13.5996,13.4885,13.3686,13.3492,13.299,13.2487,13.2487,13.2487,13.2508,13.2696,13.2783,13.2889,13.3302,13.3212,13.319,13.3301,13.2692,13.1992,13.1289,13.1015,13.0586,12.9687,12.9609,12.9297,12.8711,12.8398,12.8008,12.7383,12.7695,12.7812,12.7304,12.8515,12.9414,12.9883,13.0508,13.1015,13.1211,13.1211,13.1093,13.0898,13.1093,13.1093,13.0898,13.1093,13.1093,13.0898,13.1797,13.2187,10.5482,11.1098,11.5484,11.7215,11.8407,11.86,11.6099,11.4407,11.1098,10.3097,9.6406,9.1908,9.1477,9.2812,9.6628,10.4713,11.3494,12.0186,12.2777,12.448,12.5485,12.5485,12.4789,12.3899,12.2894,12.1888,12.1888,12.328,12.3899,12.5911,12.9692,13.2293,13.4305,13.5687,13.6112,13.6703,13.7515,13.7515,13.7515,13.7515,13.7515,13.7515,13.7515,13.7515,13.7515,13.7515,13.7515,13.7515,13.7515,13.7515,13.7283,13.7013,13.7013,13.6703,13.6394,13.6394,13.6394,13.6394,13.6394,13.6394,13.651,13.6819,13.6703,13.619,13.5388,13.4498,13.3609,13.3299,13.2796,13.2487,13.2487,13.2487,13.2508,13.2708,13.2812,13.2904,13.3182,13.3418,13.3494,13.3699,13.3397,13.2812,13.1914,13.1797,13.1484,13.0586,13.0508,13.0312,12.9804,12.9101,12.8398,12.789,12.8711,12.8984,12.8515,12.9687,13.0586,13.1015,13.1484,13.1914,13.2304,13.2304,13.2187,13.1797,13.2109,13.2187,13.1797,13.2187,13.2109,13.1797,13.2695,13.289,11.0521,11.4484,11.7292,11.8715,11.8407,11.6792,11.2896,10.9213,10.4097,9.5451,8.8826,8.4741,8.5157,8.7589,9.2398,10.11,11.0614,11.7692,12.009,12.2623,12.4218,12.4296,12.359,12.331,12.3822,12.4006,12.4596,12.5611,12.4905,12.6094,12.9692,13.2216,13.3995,13.5001,13.5803,13.6703,13.7515,13.7515,13.7515,13.7515,13.7515,13.7515,13.7515,13.7515,13.7515,13.7515,13.7515,13.7515,13.7515,13.7515,13.7013,13.6306,13.6306,13.5813,13.5001,13.5001,13.5001,13.5001,13.5001,13.5001,13.5117,13.588,13.5996,13.5697,13.4189,13.3609,13.3415,13.268,13.2487,13.2487,13.2487,13.2487,13.2508,13.2708,13.2812,13.2982,13.3182,13.3503,13.3704,13.3787,13.3789,13.3593,13.2812,13.2695,13.2383,13.1484,13.1406,13.1289,13.1211,12.9883,12.8906,12.8906,12.9609,13.0117,13.0117,13.0898,13.1718,13.25,13.2617,13.3008,13.3789,13.3789,13.3398,13.2695,13.3515,13.3593,13.2812,13.3711,13.3711,13.3008,13.3789,13.3711,11.3791,11.71,11.96,11.9215,11.8407,11.6215,11.0021,10.4289,9.775,8.8556,8.0853,7.6449,7.8636,8.2326,8.8053,9.7333,10.7891,11.559,11.7406,11.9405,12.0882,12.1578,12.1501,12.2507,12.5408,12.6916,12.8386,13.0021,12.9895,12.9895,12.9885,13.1713,13.3415,13.5001,13.5803,13.6703,13.7515,13.7515,13.7515,13.7515,13.7515,13.7515,13.7515,13.7515,13.7515,13.7515,13.7515,0.0,13.7515,13.7515,13.7013,13.6306,13.6306,13.5813,13.5001,13.5001,13.5001,13.5001,13.5001,13.5001,13.5001,13.5194,13.4692,13.4111,13.3802,13.3183,13.268,13.2487,13.2487,13.2487,13.2487,13.2487,13.2508,13.2708,13.2812,13.2904,13.3182,13.3505,13.3693,13.3788,13.3789,13.3789,13.3593,13.3593,13.3281,13.2383,13.2304,13.1992,13.1289,13.0898,13.0703,13.0703,13.0898,13.1015,13.1015,13.1797,13.2304,13.25,13.3203,13.3593,13.3789,13.3789,13.3711,13.3593,13.4414,13.4687,13.4609,13.539,13.5781,13.5586,13.5781,13.5781,11.5907,11.8407,11.9908,11.8215,11.6099,11.2511,10.4789,9.7442,8.9902,8.1939,7.4966,7.0984,7.3157,7.7068,8.2753,9.1296,10.1995,10.9995,11.2186,11.5517,11.802,11.8909,11.9799,12.1501,12.4518,12.6684,12.8696,13.0398,13.0514,13.0707,13.121,13.1984,13.3299,13.4885,13.5388,13.62,13.7515,13.7515,13.7515,13.7515,13.7515,13.7515,13.7515,13.7515,13.7515,13.7515,13.7515,13.7515,13.7515,13.7515,13.678,13.561,13.561,13.4808,13.3686,13.3686,13.3686,13.3686,13.3686,13.3686,13.3686,13.3686,13.3686,13.3609,13.3183,13.2796,13.2487,13.2487,13.2487,13.2487,13.2487,13.2487,13.2518,13.2693,13.3003,13.3219,13.3482,13.3585,13.3703,13.3789,13.3789,13.3789,13.3789,13.3789,13.3711,13.3203,13.3203,13.3008,13.2617,13.289,13.2695,13.1289,13.1601,13.1914,13.1914,13.2695,13.3203,13.3203,13.3593,13.3789,13.3789,13.3789,13.3789,13.3789,13.4609,13.5,13.5,13.5898,13.6289,13.6289,13.6289,13.6289,11.7407,11.9292,11.9908,11.6995,11.3407,10.8406,9.9481,9.0594,8.2324,7.5745,6.9881,6.6547,6.8449,7.2164,7.7472,8.5255,9.5439,10.3394,10.6189,11.1203,11.4886,11.6008,11.7904,12.0302,12.3194,12.5988,12.8309,12.9808,13.0088,13.0901,13.2409,13.2487,13.3183,13.4692,13.4692,13.5388,13.6897,13.7013,13.7013,13.7013,13.7013,13.7013,13.7013,13.7013,13.709,13.7206,13.7206,13.7283,13.7515,13.7283,13.6394,13.5001,13.4808,13.3802,13.2487,13.2487,13.2487,13.2487,13.2487,13.2487,13.2487,13.2487,13.2912,13.3299,13.268,13.2487,13.2487,13.2487,13.2487,13.2487,13.2487,13.2487,13.2596,13.2791,13.321,13.3593,13.3688,13.3703,13.3709,13.3789,13.3789,13.3789,13.3789,13.3789,13.3789,13.3789,13.3789,13.3789,13.3789,13.4492,13.4218,13.2187,13.2812,13.3281,13.3281,13.3906,13.4297,13.4297,13.4297,13.4297,13.4297,13.4297,13.4297,13.4297,13.5117,13.5586,13.5586,13.6406,13.6914,13.6914,13.6914,13.6914,11.8484,12.0216,12.0496,11.6407,11.1714,10.5405,9.5365,8.5324,7.6399,7.0353,6.5104,6.2342,6.4828,6.8137,7.3026,8.0724,9.0008,9.7395,10.0717,10.6288,11.0709,11.2402,11.538,11.8977,12.3077,12.6491,12.8889,12.9808,13.0591,13.1481,13.2409,13.2487,13.2912,13.3802,13.3802,13.4305,13.5194,13.5194,13.5194,13.5194,13.5194,13.5194,13.5194,13.5194,13.5697,13.6383,13.6383,13.6819,0.0,13.6703,13.5891,13.4885,13.4111,13.3299,13.2487,13.2487,13.2487,13.2487,13.2487,13.2487,13.2487,13.2487,13.2603,13.2603,13.2487,13.2487,13.2487,13.2487,13.2487,13.2487,13.2487,13.2487,13.2614,13.3006,13.3317,13.3609,13.3786,13.3789,13.3789,13.3789,13.3789,13.3789,13.3789,13.3789,13.3789,13.3789,13.3789,13.3789,13.3789,13.4492,13.4883,13.4687,13.539,13.6015,13.6015,13.6015,13.6093,13.6093,13.6093,13.6093,13.6093,13.6093,13.6093,13.6093,13.6914,13.7382,13.7382,13.8203,13.8711,13.8711,13.8711,13.8711,11.6099,11.8792,11.9408,11.3687,10.8406,10.1789,9.1095,8.117,7.2829,6.7898,6.3762,6.1455,6.297,6.5203,6.8872,7.5101,8.3082,8.9914,9.3862,10.0512,10.5603,10.7296,11.0894,11.4809,11.86,12.2507,12.622,12.9614,13.0707,13.1597,13.2487,13.2487,13.2912,13.3686,13.3686,13.4111,13.5001,13.5001,13.5001,13.5001,13.5001,13.5001,13.5001,13.5001,13.5194,13.5504,13.5504,13.5697,0.0,13.562,13.5001,13.4189,13.3802,13.3183,13.2487,13.2487,13.2487,13.2487,13.2487,13.2487,13.2487,13.2487,13.2487,13.2487,13.2487,13.2487,13.2487,13.2487,13.2487,13.2603,13.3106,13.3805,13.4181,13.3888,13.4113,13.4319,13.3904,13.3789,13.3789,13.3789,13.3789,13.3789,13.3789,13.3789,13.3984,13.4414,13.4101,13.3984,13.4492,13.5312,13.5781,13.5781,13.6093,13.6289,13.6289,13.6289,13.6289,13.6289,13.6289,13.6289,13.6289,13.6289,13.6289,13.6289,13.7187,13.7617,13.7617,13.8515,13.8906,13.8906,13.8906,13.8593,11.2983,11.6792,11.7984,11.1406,10.5597,9.8634,8.7825,7.813,7.0328,6.632,6.3107,6.1185,6.173,6.2864,6.5317,7.028,7.6671,8.269,8.7493,9.4772,10.0303,10.2315,10.6291,11.0399,11.3997,11.9219,12.4402,12.9498,13.0514,13.1288,13.2409,13.2487,13.2796,13.3299,13.3299,13.3609,13.4305,13.4305,13.4305,13.4305,13.4305,13.4305,13.4305,13.4305,13.4382,13.4614,13.4614,13.4808,0.0,13.4692,13.4305,13.3686,13.3415,13.299,13.2487,13.2487,13.2487,13.2487,13.2487,13.2487,13.2487,13.2487,13.2487,13.2487,13.2487,13.2487,13.2487,13.2487,13.268,13.299,13.3609,13.4614,13.5314,13.4612,13.4698,13.4709,13.3982,13.3789,13.3711,13.3515,13.3593,13.3711,13.3515,13.3789,13.4297,13.4883,13.4687,13.4687,13.5,13.6015,13.6601,13.6289,13.6797,13.7109,13.7109,13.7109,13.7109,13.7109,13.7109,13.7109,13.7109,13.7109,13.7109,13.7109,13.7695,13.8007,13.8007,13.8593,13.8906,13.8906,13.8906,13.8398,10.9895,11.4588,11.6407,11.0406,10.3789,9.6182,8.5948,7.6399,6.8744,6.532,6.2683,6.0992,6.0992,6.1084,6.2544,6.6843,7.1175,7.6088,8.2051,8.9479,9.5243,9.7866,10.1889,10.6097,11.0391,11.7787,12.4402,12.9498,12.9885,13.0707,13.2409,13.2487,13.2487,13.2487,13.2487,13.2487,13.2487,13.2487,13.2487,13.2487,13.2487,13.2487,13.2487,13.2487,13.299,13.3686,13.3686,13.4189,0.0,13.4111,13.3686,13.3609,13.2796,13.2487,13.2487,13.2487,13.2487,13.2487,13.2487,13.2487,13.2487,13.2487,13.2487,13.2487,13.2487,13.2487,13.2487,13.2487,13.3106,13.3686,13.3686,13.4614,13.5314,13.4612,13.4698,13.4709,13.3982,13.3789,13.3515,13.2695,13.3203,13.3515,13.2695,13.3906,13.5,13.5,13.5703,13.6015,13.5117,13.6484,13.7304,13.6406,13.7812,13.8906,13.8906,13.8906,13.8906,13.8906,13.8906,13.8906,13.8906,13.8906,13.8906,13.8906,13.8906,13.8906,13.8906,13.8906,13.8906,13.8906,13.8906,13.8398,10.0596,10.5905,10.8395,10.1904,9.6903,9.1095,8.1485,7.3406,6.7141,6.4337,6.2287,6.1003,6.1005,6.1032,6.2124,6.5296,6.886,7.3535,8.0111,8.7654,9.3882,9.7634,10.4403,11.0515,11.4809,11.9489,12.4402,12.9498,12.9305,12.9818,13.1481,13.1017,13.1288,13.2487,13.2487,13.2487,13.2487,13.2487,13.2487,13.2487,13.2487,13.2487,13.2487,13.2487,13.2603,13.2912,13.2912,13.299,13.3299,13.299,13.2912,13.2912,13.2603,13.2487,13.2487,13.2487,13.2487,13.2487,13.2487,13.2487,13.2487,13.2487,13.2487,13.2487,13.2487,13.2487,13.2603,13.3183,13.4382,13.5504,13.5504,13.6397,13.7102,13.6281,13.6414,13.6388,13.5701,13.5508,13.539,13.5195,13.5312,13.539,13.5117,13.5508,13.6093,13.6718,13.6484,13.6406,13.6718,13.7304,13.75,13.7187,13.8203,13.8906,13.8906,13.8906,13.8906,13.8906,13.8906,13.8906,13.8906,13.8906,13.8906,13.8906,13.8906,13.8593,13.8007,13.8007,13.8007,13.8007,13.7382,13.7304,9.0902,9.6653,9.948,9.4285,9.0193,8.532,7.7287,7.0664,6.5599,6.3399,6.1913,6.1,6.0997,6.1046,6.1853,6.414,6.6539,7.0717,7.8216,8.5875,9.3534,10.1115,10.7807,11.3184,11.6811,12.0302,12.4286,12.9121,12.8889,12.9199,13.0591,13.0204,13.0398,13.1481,13.152,13.152,13.152,13.152,13.1713,13.1984,13.1984,13.2177,13.2487,13.2487,13.2487,13.2487,13.2487,13.2487,0.0,13.2487,13.2487,13.2487,13.2487,13.2487,13.2487,13.2487,13.2487,13.2487,13.2487,13.2487,13.2487,13.2487,13.2487,13.2487,13.2487,13.268,13.3106,13.3609,13.5001,13.619,13.588,13.6901,13.7802,13.6715,13.6882,13.721,13.6482,13.6289,13.6211,13.5898,13.6093,13.6211,13.5898,13.6406,13.6992,13.75,13.7382,13.7382,13.7617,13.789,13.8007,13.7617,13.8398,13.8906,13.8906,13.8906,13.8906,13.8906,13.8906,13.8906,13.8906,13.9218,13.9414,13.9414,13.9687,13.9609,13.9101,13.8711,13.8398,13.8086,13.789,13.7695,0.0,8.6797,8.9888,8.7316,8.371,7.925,7.3434,6.8277,0.0,6.2541,6.1546,6.1007,6.1007,6.1123,6.1776,6.3521,6.4682,6.8318,7.6868,8.5224,9.505,10.7382,11.18,11.4809,11.7285,12.0495,12.4209,12.8309,12.8502,12.8889,12.9808,12.9808,12.9692,12.9692,12.9692,12.9808,12.9885,12.9885,13.0321,13.122,13.122,13.1723,13.2487,13.2487,13.2487,0.0,13.2487,13.2487,13.2487,13.2487,13.2487,13.2487,13.2487,13.2487,13.2487,13.2487,13.2487,13.2487,13.2487,13.2487,13.2487,13.2487,13.2487,13.2487,13.2487,13.3106,13.3802,13.3802,13.5001,13.619,13.5388,13.6591,13.7685,13.6209,13.6691,13.7288,13.66,13.6484,13.6211,13.539,13.5898,13.6211,13.539,13.6601,13.7695,13.7695,13.8398,13.8593,13.7812,13.8398,13.8593,13.7812,13.8398,13.8906,13.8906,13.8906,13.8906,13.8906,13.8906,13.8906,13.8906,13.9687,14.0195,14.0195,14.1015,14.1406,14.1406,14.0507,13.9687,13.8984,13.9804,13.9297,6.6506,0.0,8.1985,7.9492,7.7631,7.5169,0.0,6.6542,6.3511,6.2478,6.161,6.1017,6.1056,6.165,6.2665,6.4411,6.7003,7.1838,8.0388,9.385,10.5603,11.3184,11.6511,11.8987,12.0921,12.301,12.5408,12.8386,12.8,12.8,12.8889,12.8309,12.8,12.8,12.8,12.8618,12.9885,12.9885,13.0321,13.122,13.122,13.1723,13.2487,13.2487,13.2487,13.2487,13.2487,13.2487,13.2487,13.2487,13.2487,13.2487,13.2487,13.2487,13.2487,13.2487,13.2487,13.2487,13.2487,13.2487,13.2487,13.2487,13.2487,13.2487,13.2487,13.3492,13.4692,13.4692,13.5891,13.7206,13.7013,13.7483,13.7996,13.7689,13.8017,13.8381,13.8318,13.8281,13.8203,13.8007,13.8086,13.8203,13.8007,13.8281,13.8593,13.8593,13.8789,13.8789,13.8593,13.8789,13.8789,13.8593,13.8789,13.8906,13.8906,13.8906,13.8906,13.8906,13.8906,13.8906,13.8906,13.9687,14.0195,14.0195,14.039,14.0507,14.0507,13.8984,13.8789,13.9882,13.9414,13.9687,6.161,6.7811,7.3254,7.1896,7.1231,7.0096,6.7051,6.4309,6.2272,6.1843,6.1384,6.1162,6.1611,6.2394,6.3826,6.634,6.9589,7.6436,8.9711,10.2508,11.2797,11.918,12.1888,12.359,12.4518,12.5485,12.6607,12.7884,12.7613,12.7613,12.8,12.7613,12.7381,12.7381,12.7381,12.7806,12.8696,12.8812,12.9199,13.0011,13.0011,13.0707,13.1906,13.1906,13.21,13.2487,13.2487,13.2487,13.2487,13.2487,13.2487,13.2487,13.2487,13.2487,13.2487,13.2487,13.2487,13.2487,13.2487,13.2487,13.2487,13.2487,13.2487,13.2487,13.2487,13.3415,13.4421,13.4421,13.562,13.6897,13.651,13.7211,13.7996,13.7695,13.8212,13.8694,13.8904,13.8906,13.8906,13.8906,13.8906,13.8906,13.8906,13.8906,13.8906,13.8906,13.8906,13.8906,13.8906,13.8906,13.8906,13.8906,13.8906,13.8906,13.8906,13.9297,13.9492,13.9492,13.9101,13.9101,13.9492,14.0312,14.1211,14.1914,14.1914,14.1797,14.1406,14.039,14.0312,14.0781,14.0703,14.1015,6.1104,6.4023,6.619,6.646,6.6652,6.6417,6.4991,6.3212,6.193,6.2046,6.1853,6.2008,6.3009,6.4097,6.5997,6.9396,7.4154,8.336,10.0496,11.0012,11.7594,12.3986,12.6298,12.7381,12.7381,12.7381,12.7381,12.7381,12.7381,12.7381,12.7381,12.7381,12.7381,12.7381,12.7381,12.7381,12.7381,12.7381,12.7806,12.8618,12.8618,12.9508,13.122,13.122,13.1723,13.2487,0.0,0.0,13.2487,13.2487,13.2487,13.2487,13.2487,13.2487,13.2487,13.2487,13.2409,13.2293,13.2293,13.2409,13.2487,13.2487,13.2487,13.2487,13.2487,13.299,13.3492,13.3492,13.4895,13.6105,13.539,13.6714,13.7994,13.7294,13.7916,13.8698,13.8904,13.8906,13.8906,13.8906,13.8906,13.8906,13.8906,13.8906,13.8906,13.8906,13.8906,13.8906,13.8906,13.8906,13.8906,13.8906,13.8906,13.8906,13.8906,13.9687,14.0312,14.039,13.9687,13.9687,14.0586,14.1211,14.2304,14.3984,14.3984,14.3711,14.3007,14.289,14.25,14.1914,14.25,14.25,5.9532,6.3163,6.6557,6.8026,6.8926,6.9363,6.9092,6.7158,6.5644,6.6379,6.5373,6.4875,6.6417,6.8584,7.1258,7.4701,8.5372,9.6551,10.5989,11.3378,11.9615,12.4218,12.6298,12.7381,12.7381,12.7381,12.7381,12.7381,12.7381,12.7381,12.7381,12.7381,12.7381,12.7381,12.7381,12.7381,12.7381,12.7381,12.7806,12.8618,12.8618,12.9508,13.122,13.122,13.1723,13.2487,0.0,13.2487,13.2487,13.2487,13.2487,13.2487,13.2487,13.2487,13.2487,13.2487,13.1984,13.1414,13.1414,13.1906,13.2487,13.2487,13.2487,13.2487,13.2487,13.2603,13.268,13.268,13.4492,13.6401,13.6294,13.7297,13.8299,13.8301,13.8517,13.8793,13.8905,13.8906,13.8906,13.8906,13.8906,13.8906,13.8906,13.8906,13.8906,13.8906,13.8906,13.8906,13.8906,13.8906,13.8906,13.8906,13.8906,13.8906,13.8906,13.9687,14.0507,14.1289,14.1211,14.1484,14.2382,14.1797,14.2304,14.3984,14.3984,14.3906,14.3789,14.3086,14.3086,14.3593,14.3086,14.3086,5.93,6.267,6.619,6.8816,7.149,7.3347,7.2877,7.1833,7.075,6.9744,6.8589,6.8357,7.0556,7.3032,7.7674,8.6687,9.57,10.4017,11.0786,11.6395,12.0998,12.4402,12.6298,12.7381,12.7381,12.7381,12.7381,12.7381,12.7381,12.7381,12.7381,12.7381,12.7381,12.7381,12.7381,12.7381,12.7381,12.7381,12.7613,12.8,12.8,12.8618,12.9818,12.9818,13.0514,13.179,0.0,13.21,13.2487,13.2487,13.2487,13.2487,13.2487,13.2487,13.2487,13.2487,13.2216,13.1906,13.1906,13.2177,13.2487,13.2487,13.2487,13.2487,13.2487,13.2487,13.2487,13.2487,13.4077,13.5788,13.5784,13.7114,13.839,13.8508,13.8719,13.8807,13.8905,13.8906,13.8906,13.8906,13.8906,13.8906,13.8906,13.8906,13.8906,13.8906,13.8906,13.8906,13.8906,13.8906,13.8906,13.8906,13.8906,13.8906,13.8906,14.0117,14.1093,14.1484,14.1484,14.1718,14.2109,14.1718,14.2109,14.3281,14.3789,14.3984,14.3984,14.3593,14.3593,14.3984,14.3593,14.3593,5.9493,6.2245,6.5494,6.8898,7.2916,7.6127,7.6276,7.6469,7.616,7.4618,7.3618,7.3657,7.5895,7.9028,8.5256,9.7325,10.3591,10.8805,11.4383,11.8909,12.2391,12.448,12.6298,12.7381,12.7381,12.7381,12.7381,12.7381,12.7381,12.7381,12.7381,12.7381,12.7381,12.7381,12.7381,12.7381,12.7381,12.7381,12.7381,12.7381,12.7381,12.7806,12.8618,12.8618,12.9586,13.122,13.122,13.1713,13.2487,13.2487,13.2487,13.2487,13.2487,13.2487,13.2487,13.2293,13.2293,13.2487,13.2293,13.2293,13.2487,13.2487,13.2487,13.2487,13.2487,13.2487,13.2487,13.2487,13.3922,13.5387,13.541,13.6911,13.85,13.8582,13.8713,13.8817,13.8906,13.8906,13.8906,13.8906,13.8906,13.8906,13.8906,13.8906,13.8906,13.8906,13.8906,13.8906,13.8906,13.8906,13.8906,13.8906,13.8906,13.8984,13.9218,14.0586,14.1484,14.1484,14.1484,14.1601,14.1797,14.1406,14.1718,14.2812,14.3398,14.3789,14.3984,14.3984,14.3984,14.3984,14.3984,14.3984,5.9653,6.1819,6.4604,6.8042,7.206,7.6005,7.9099,8.0453,8.1459,8.2896,8.2477,8.2167,8.3167,8.8041,9.4307,10.1618,10.7111,11.1985,11.6395,12.0689,12.3706,12.4721,12.6298,12.7381,12.7381,12.7381,12.7381,12.7381,12.7381,12.7381,12.7381,12.7381,12.7381,12.7381,12.7381,12.7381,12.7381,12.7381,12.7381,12.7381,12.7381,12.7806,12.8618,12.8618,12.9586,13.122,13.122,13.1713,13.2487,13.2487,13.2487,13.2487,13.2487,13.2487,13.2409,13.1597,13.179,13.2409,13.1597,13.179,13.2487,13.2487,13.2487,13.2487,13.2487,13.2487,13.2487,13.2487,13.3898,13.5488,13.5614,13.7121,13.859,13.8788,13.8815,13.8902,13.8906,13.8906,13.8906,13.8906,13.8906,13.8906,13.8906,13.8906,13.8906,13.8906,13.8906,13.8906,13.8906,13.8906,13.8906,13.8906,13.8906,13.9218,14.0,14.1015,14.1484,14.1484,14.1484,14.1914,14.2695,14.1211,14.1093,14.2812,14.289,14.3281,14.3984,14.3984,14.3984,14.3984,14.3984,14.3984,5.9957,6.135,6.3826,6.7805,7.1982,7.643,8.1465,8.5759,8.8846,8.9511,9.0633,9.1135,8.9859,9.4075,9.9259,10.4017,10.9509,11.4499,11.8213,12.1501,12.358,12.4015,12.5485,12.6607,12.6607,12.711,12.7187,12.6607,12.6607,12.6414,12.5795,12.6298,12.6607,12.6607,12.711,12.7381,12.7381,12.7381,12.7381,12.7381,12.7381,12.7613,12.7884,12.7884,12.8502,12.9586,12.9586,13.0398,13.1713,13.1713,13.1984,13.2487,13.2487,13.2487,13.2487,13.21,13.2216,13.2487,13.21,13.2216,13.2487,13.2487,13.2487,13.2487,13.2487,13.2498,13.2596,13.2586,13.4079,13.5614,13.5719,13.7188,13.8702,13.8818,13.8904,13.8905,13.8906,13.8906,13.8906,13.8906,13.8906,13.8906,13.8906,13.8906,13.8906,13.8906,13.8906,13.8711,13.8203,13.8593,13.8711,13.8086,13.8593,13.9297,14.0117,14.0507,14.0898,14.1484,14.1484,14.1406,14.1211,14.0586,14.0507,14.1211,14.2187,14.289,14.3281,14.3789,14.3984,14.3984,14.3984,14.3984,6.0847,6.135,6.3009,6.7302,7.1982,7.7287,8.4134,9.0091,9.4501,9.5584,9.7402,9.8021,9.546,9.8524,10.2508,10.5603,11.0902,11.5815,11.918,12.1888,12.3503,12.3503,12.4982,12.6104,12.6104,12.6607,12.6684,12.6104,12.5795,12.5408,12.4799,12.5408,12.5795,12.6104,12.6414,12.6684,12.6994,12.6684,12.6607,12.6607,12.6607,12.6916,12.7381,12.7381,12.7806,12.8618,12.8618,12.9586,13.122,13.122,13.1713,13.2487,13.2487,13.2487,13.2487,13.2487,13.2487,13.2487,13.2487,13.2487,13.2487,13.2487,13.2487,13.2487,13.2487,13.2586,13.2603,13.2689,13.3978,13.5407,13.5402,13.7011,13.8817,13.8904,13.8906,13.8906,13.8906,13.8906,13.8906,13.8906,13.8906,13.8906,13.8906,13.8906,13.8906,13.8906,13.8906,13.8593,13.7695,13.8398,13.8711,13.8086,13.8515,13.9101,13.9687,14.0,14.0312,14.0703,14.0898,14.0781,14.0195,13.9882,13.9882,14.0195,14.1406,14.2304,14.2812,14.3398,14.3789,14.3984,14.3984,14.3984,6.2428,6.1771,6.2162,6.6495,7.2065,7.8724,8.7228,9.3186,9.7866,10.1309,10.2701,10.2508,9.9831,10.1502,10.4094,10.6616,11.1289,11.5815,11.918,12.1888,12.3503,12.3503,12.4982,12.6104,12.6104,12.6104,12.6104,12.6104,12.5301,12.4799,12.4799,12.4799,12.5185,12.5988,12.5214,12.5185,12.6104,12.5214,12.4799,12.4799,12.4799,12.5679,12.7381,12.7381,12.7806,12.8618,12.8618,12.9586,13.122,13.122,13.1713,13.2487,13.2487,13.2487,13.2487,13.2487,13.2487,13.2487,13.2487,13.2487,13.2487,13.2487,13.2487,13.2487,13.2487,13.2596,13.271,13.2815,13.3701,13.4603,13.4692,13.6696,13.8796,13.8905,13.8906,13.8906,13.8906,13.8906,13.8906,13.8906,13.8906,13.8906,13.8906,13.8906,13.8906,13.8906,13.8906,13.8593,13.7695,13.8281,13.8906,13.8906,13.8906,13.8906,13.8906,13.9687,13.9804,13.8984,13.9687,14.0195,14.0195,13.9414,13.9297,14.0195,14.0195,14.1015,14.2812,14.2812,14.3203,14.3984,14.3984,14.3984,6.3129,6.398,6.6147,7.2225,7.7835,8.4218,9.334,9.8911,10.4094,11.1211,11.0515,10.7614,10.4395,10.5409,10.6995,10.7816,11.2217,11.6704,12.0108,12.181,12.27,12.27,12.359,12.4286,12.4286,12.4789,12.4905,12.4286,12.4015,12.359,12.3087,12.359,12.4015,12.4286,12.4596,12.4905,12.5185,12.4905,12.4799,12.4799,12.4799,12.5108,12.5601,12.6182,12.6607,12.6916,12.7497,12.8386,12.9508,13.0707,13.1414,13.1597,13.2293,13.2487,13.2487,13.2487,13.2487,13.2487,13.2487,13.2487,13.2487,13.2487,13.2487,13.2487,13.2487,13.2604,13.279,13.2887,13.3799,13.4819,13.4906,13.6384,13.7998,13.8007,13.8515,13.8906,13.8906,13.8906,13.8906,13.8906,13.8906,13.8906,13.8906,13.8906,13.8906,13.8906,13.8398,13.7695,13.6797,13.6914,13.7304,13.789,13.8515,13.8906,13.8906,13.9101,13.9218,13.8906,13.9101,13.9297,13.9297,13.8984,13.8984,13.9297,13.9882,14.0507,14.1015,14.2187,14.289,14.3203,14.3711,14.3984,6.4527,6.6693,7.0015,7.7564,8.4102,9.1522,10.2585,10.6608,10.9703,11.5892,11.4616,11.1405,10.831,10.8891,10.9896,11.0206,11.3687,11.7517,12.0611,12.181,12.2313,12.2313,12.301,12.3503,12.3503,12.4015,12.4093,12.3503,12.3194,12.2816,12.2313,12.2816,12.3203,12.3503,12.3706,12.4015,12.4286,12.4015,12.3783,12.3783,12.3783,12.3783,12.3783,12.4982,12.5795,12.6182,12.7381,12.8193,12.8696,13.0514,13.122,13.1298,13.2177,13.2487,13.2487,13.2487,13.2487,13.2487,13.2487,13.2487,13.2487,13.2487,13.2487,13.2487,13.2487,13.2699,13.2885,13.2987,13.3716,13.4385,13.4513,13.5504,13.6717,13.7382,13.8281,13.8906,13.8906,13.8906,13.8906,13.8906,13.8906,13.8906,13.8906,13.8906,13.8906,13.8906,13.789,13.6992,13.6797,13.6484,13.6601,13.75,13.8398,13.8906,13.8906,13.8906,13.8906,13.8906,13.8906,13.8906,13.8906,13.8906,13.8906,13.8906,13.9414,13.9882,14.0195,14.1289,14.2109,14.2812,14.3281,14.3711,6.6108,6.9667,7.3927,8.2509,9.0826,10.0187,11.2991,11.4693,11.4383,11.7014,11.6201,11.4306,11.1908,11.2209,11.2991,11.3803,11.5892,11.8406,12.0805,12.181,12.2313,12.2313,12.2884,12.3387,12.3387,12.3387,12.3387,12.3387,12.27,12.2313,12.2313,12.2313,12.2623,12.3387,12.27,12.27,12.3387,12.27,12.2313,12.2313,12.2313,12.2313,12.2391,12.4015,12.5214,12.6182,12.7806,12.8502,12.8618,13.0282,13.0988,13.1094,13.1984,13.2409,13.2409,13.2487,13.2487,13.2487,13.2487,13.2487,13.2487,13.2487,13.2487,13.2487,13.2487,13.2696,13.289,13.3087,13.3289,13.3611,13.3786,13.4414,13.539,13.6992,13.8086,13.8789,13.8789,13.8789,13.8906,13.8906,13.8906,13.8906,13.8906,13.8906,13.8906,13.8789,13.7382,13.6718,13.7382,13.6914,13.6718,13.75,13.8398,13.8906,13.8906,13.8906,13.8906,13.8906,13.8906,13.8906,13.8906,13.8906,13.8906,13.8906,13.8906,13.9297,14.0117,14.0195,14.1015,14.2617,14.2695,14.3203,6.6108,7.1833,7.837,8.6919,9.8369,10.9007,11.4616,11.6085,11.7091,11.9683,11.9296,11.8213,11.7014,11.7478,11.8097,11.829,11.9412,12.0611,12.181,12.2197,12.2313,12.2313,12.2507,12.2584,12.2584,12.2584,12.2584,12.2584,12.2391,12.2313,12.2313,12.2313,12.2391,12.2584,12.2391,12.2391,12.2584,12.2391,12.2313,12.2313,12.2313,12.2313,12.2313,12.3319,12.4596,12.6182,12.7187,12.769,12.769,12.8696,12.9199,12.9315,13.0901,13.1491,13.1597,13.2216,13.2487,13.2487,13.2487,13.2487,13.2487,13.2487,13.2487,13.2487,13.2487,13.2696,13.289,13.3087,13.3289,13.3611,13.3786,13.4414,13.5117,13.5508,13.6718,13.789,13.789,13.8398,13.8906,13.8906,13.8906,13.8906,13.8906,13.8906,13.8711,13.8007,13.7617,13.7109,13.6601,13.6992,13.7382,13.7617,13.8398,13.8906,13.8906,13.8906,13.8906,13.8906,13.8906,13.8906,13.8906,13.8906,13.8906,13.8906,13.8906,13.8984,13.9218,13.9882,14.039,14.0781,14.2187,14.289,6.6882,7.4314,8.3244,9.628,10.5796,11.2914,11.6318,11.7401,11.829,11.9992,11.9412,11.8406,11.7904,11.8213,11.8793,11.9606,12.0108,12.0805,12.212,12.2313,12.2313,12.2313,12.2313,12.2313,12.2313,12.2313,12.2313,12.2313,12.2313,12.2313,12.2313,12.2313,12.2313,12.2313,12.2313,12.2313,12.2313,12.2313,12.2313,12.2313,12.2313,12.2313,12.2313,12.359,12.4596,12.5485,12.68,12.7381,12.7497,12.8309,12.8618,12.8812,13.0514,13.122,13.1288,13.2177,13.2487,13.2487,13.2487,13.2487,13.2487,13.2487,13.2487,13.2487,13.2487,13.2696,13.289,13.3087,13.3289,13.3611,13.3786,13.4101,13.4414,13.4414,13.6093,13.7617,13.7617,13.8281,13.8906,13.8906,13.8906,13.8906,13.8906,13.8906,13.8711,13.8281,13.789,13.7382,13.6992,13.7304,13.7617,13.7617,13.8398,13.8906,13.8906,13.8906,13.8906,13.8906,13.8906,13.8906,13.8906,13.8906,13.8906,13.8906,13.8906,13.8906,13.8906,13.9414,13.9804,14.0195,14.1093,14.1992,6.7462,7.7332,8.9163,10.5603,11.1598,11.4306,11.7487,11.8213,11.8406,11.9103,11.8406,11.7594,11.7594,11.7594,11.8097,11.9683,11.9915,12.0495,12.212,12.2313,12.2313,12.2313,12.2197,12.212,12.212,12.1888,12.1888,12.1888,12.2004,12.212,12.212,12.2197,12.2197,12.212,12.2197,12.2197,12.212,12.2197,12.2313,12.2313,12.2313,12.2313,12.2391,12.3899,12.4721,12.4915,12.6491,12.7303,12.7497,12.8116,12.8386,12.8502,13.0088,13.0785,13.0901,13.1906,13.2293,13.2293,13.2409,13.2487,13.2487,13.2487,13.2487,13.2487,13.2487,13.2696,13.289,13.3087,13.3289,13.3611,13.3786,13.3789,13.3789,13.3789,13.5586,13.7382,13.7382,13.8203,13.8906,13.8906,13.8906,13.8906,13.8906,13.8906,13.8906,13.8906,13.8281,13.7812,13.7812,13.7812,13.7812,13.7812,13.8515,13.8906,13.8906,13.8906,13.8906,13.8906,13.8906,13.8906,13.8906,13.8906,13.8906,13.8906,13.8906,13.8906,13.8906,13.8906,13.9297,14.0,14.0117,14.1015,6.6644,8.1658,9.7441,10.8001,11.2488,11.4886,11.6898,11.7401,11.7401,11.7517,11.8484,11.9412,11.9412,11.9412,11.9683,12.0689,12.0805,12.1192,12.2197,12.2313,12.2313,12.2313,12.1617,12.1192,12.1192,12.0495,11.9992,11.9992,12.0689,12.1192,12.1192,12.1888,12.2004,12.1192,12.1888,12.1888,12.1192,12.1888,12.2313,12.2313,12.2313,12.2313,12.2313,12.3319,12.4093,12.4915,12.5795,12.6684,12.7381,12.7497,12.7613,12.769,12.8618,12.8889,12.9083,13.0785,13.1414,13.1491,13.2216,13.2487,13.2487,13.2487,13.2487,13.2487,13.2487,13.2696,13.289,13.3087,13.3289,13.3611,13.3786,13.3789,13.3789,13.3789,13.5195,13.6484,13.6484,13.7812,13.8906,13.8906,13.8906,13.8906,13.8906,13.8906,13.8906,13.8906,13.8789,13.8711,13.8711,13.8711,13.8711,13.8711,13.8789,13.8906,13.8906,13.8906,13.8906,13.8906,13.8906,13.8906,13.8906,13.8906,13.8906,13.8906,13.8906,13.8906,13.8906,13.8906,13.8984,13.9101,13.9804,14.0312,7.2761,8.6145,9.8446,10.831,11.2295,11.4306,11.6085,11.6811,11.7207,11.7207,11.7787,11.829,11.829,11.829,11.86,11.9412,11.9489,11.9799,12.0689,12.0805,12.0998,12.1501,12.0805,12.0302,12.0302,11.9489,11.8793,11.829,11.9489,12.0302,12.0302,12.1114,12.1385,12.0998,12.0882,12.0882,12.0998,12.1385,12.181,12.2313,12.2313,12.2313,12.2313,12.27,12.3319,12.4093,12.5485,12.6298,12.6684,12.7187,12.7381,12.7497,12.8309,12.8618,12.8812,13.0591,13.122,13.1288,13.2177,13.2487,13.2487,13.2487,13.2487,13.2487,13.2487,13.2696,13.289,13.3087,13.3289,13.3611,13.3786,13.3789,13.3789,13.3789,13.4687,13.5586,13.5586,13.7304,13.8906,13.8906,13.8906,13.8906,13.8906,13.8906,13.8906,13.8906,13.8906,13.8906,13.8906,13.8906,13.8906,13.8906,13.8906,13.8906,13.8906,13.8906,13.8906,13.8906,13.8906,13.8906,13.8906,13.8906,13.8906,13.8906,13.8906,13.8906,13.8906,13.8906,13.8906,13.8906,13.9297,13.9687,7.5978,8.6571,9.5545,10.5216,10.9316,11.1598,11.3803,11.5312,11.6395,11.682,11.7005,11.7207,11.7207,11.7207,11.7517,11.8299,11.8415,11.8677,11.9606,11.9683,11.9992,12.0882,11.9992,11.9412,11.9412,11.8406,11.7401,11.6588,11.7904,11.8716,11.8716,11.9606,11.9915,11.9683,11.9489,11.9606,11.9992,12.0495,12.1114,12.2004,12.2004,12.212,12.2313,12.2313,12.2584,12.3319,12.4789,12.5679,12.6182,12.68,12.7187,12.7497,12.8116,12.8309,12.8502,13.0204,13.0901,13.1017,13.21,13.2487,13.2487,13.2487,13.2487,13.2487,13.2487,13.2696,13.289,13.3087,13.3289,13.3611,13.3786,13.3789,13.3789,13.3789,13.4414,13.5117,13.5312,13.6914,13.8281,13.8515,13.8593,13.8593,13.8906,13.8906,13.8906,13.8906,13.8906,13.8906,13.8906,13.8906,13.8906,13.8906,13.8906,13.8906,13.8906,13.8906,13.8906,13.8906,13.8906,13.8906,13.8906,13.8906,13.8906,13.8906,13.8906,13.8906,13.8906,13.8906,13.8906,13.8906,13.8906,13.9218,7.133,7.9956,8.8969,9.6783,10.1812,10.5719,10.9084,11.1792,11.3997,11.5583,11.6588,11.7207,11.7207,11.7207,11.7517,11.8299,11.8415,11.8677,11.9606,11.9683,11.9992,12.0882,11.9489,11.8493,11.8493,11.7014,11.5699,11.4809,11.5583,11.6085,11.6085,11.6898,11.7014,11.6201,11.771,11.8097,11.7401,11.8987,12.0186,12.1114,12.1114,12.1501,12.2313,12.2313,12.2313,12.2391,12.3319,12.4596,12.6104,12.6104,12.6684,12.7381,12.7419,12.7497,12.769,12.9305,13.0001,13.0204,13.1906,13.2487,13.2487,13.2487,13.2487,13.2487,13.2487,13.2696,13.289,13.3087,13.3289,13.3611,13.3786,13.3789,13.3789,13.3789,13.4414,13.5195,13.6093,13.6289,13.6718,13.75,13.7695,13.789,13.8789,13.8906,13.8906,13.8906,13.8906,13.8906,13.8906,13.8906,13.8906,13.8906,13.8906,13.8906,13.8906,13.8906,13.8906,13.8906,13.8906,13.8906,13.8906,13.8906,13.8906,13.8906,13.8906,13.8906,13.8906,13.8906,13.8906,13.8906,13.8906,13.8906,6.5571,7.2568,8.0304,8.7963,9.3882,9.9027,10.3591,10.7885,11.1714,11.4499,11.5815,11.6511,11.7091,11.7207,11.7285,11.7594,11.7594,11.771,11.8097,11.8097,11.8406,11.918,11.829,11.7594,11.7594,11.6588,11.5505,11.4693,11.5892,11.6511,11.5892,11.7207,11.7594,11.682,11.7285,11.771,11.7981,11.9103,12.0108,12.0998,12.0998,12.1501,12.2313,12.2313,12.2313,12.2313,12.2584,12.3396,12.4518,12.5601,12.6298,12.6607,12.7187,12.7381,12.7613,12.9315,12.9885,13.0078,13.1906,13.2487,13.2487,13.2487,13.2487,13.2487,13.2487,13.3084,13.3589,13.3204,13.3719,13.4314,13.3904,13.3789,13.3789,13.3789,13.3593,13.3593,13.4492,13.5508,13.6601,13.7382,13.7617,13.789,13.8711,13.8906,13.8906,13.8906,13.8906,13.8906,13.8906,13.8906,13.8906,13.8906,13.8906,13.8906,13.8906,13.8906,13.8906,13.8906,13.8906,13.8906,13.8906,13.8906,13.8906,13.8906,13.8906,13.8906,13.8906,13.8906,13.8906,13.8906,13.8906,13.8906,6.0615,6.6147,7.2413,7.8602,8.4675,9.0516,9.5971,10.1618,10.6995,11.1482,11.3881,11.5505,11.6898,11.7014,11.6898,11.7207,11.7207,11.7207,11.7207,11.7207,11.7517,11.8299,11.771,11.7207,11.7207,11.6395,11.5505,11.4693,11.5699,11.6008,11.508,11.6395,11.7014,11.682,11.682,11.7207,11.7981,11.86,11.9412,12.0611,12.0611,12.1192,12.2313,12.2313,12.2313,12.2313,12.2313,12.2816,12.358,12.5098,12.5795,12.6182,12.711,12.7381,12.7613,12.9315,12.9885,13.0078,13.1906,13.2487,13.2487,13.2487,13.2487,13.2487,13.2487,13.3104,13.37,13.3497,13.4181,13.4798,13.4717,13.4413,13.4101,13.3906,13.3398,13.3086,13.3711,13.4687,13.5703,13.6601,13.6718,13.7109,13.8281,13.8515,13.8593,13.8906,13.8906,13.8906,13.8906,13.8906,13.8906,13.8906,13.8906,13.8906,13.8906,13.8906,13.8906,13.8906,13.8906,13.8906,13.8906,13.8906,13.8906,13.8906,13.8906,13.8906,13.8906,13.8906,13.8906,13.8906,13.8906,13.8906,0.0,0.0,0.0,6.8782,7.416,8.0188,8.6139,9.2837,9.9723,10.6608,11.0794,11.3997,11.6588,11.6395,11.6085,11.7014,11.7082,11.7207,11.7207,11.7207,11.7517,11.8299,11.771,11.7207,11.7207,11.6395,11.5583,11.4693,11.4693,11.4306,11.3494,11.419,11.5002,11.5892,11.5892,11.6318,11.7207,11.7207,11.802,11.9683,11.9683,12.0611,12.2313,12.2313,12.2313,12.2313,12.2313,12.2816,12.358,12.4402,12.5292,12.6182,12.6994,12.7381,12.7613,12.9315,12.9885,13.0078,13.1906,13.2487,13.2487,13.2487,13.2487,13.2487,13.2487,13.271,13.2986,13.3999,13.4588,13.5007,13.6017,13.558,13.4804,13.3984,13.3789,13.3789,13.3789,13.3789,13.3984,13.4804,13.5,13.5586,13.7304,13.7617,13.789,13.8789,13.8906,13.8906,13.8906,13.8906,13.8906,13.8906,13.8906,13.8906,13.8906,13.8906,13.8906,13.8906,13.8906,13.8906,13.8906,13.8906,13.8906,13.8906,13.8906,13.8906,13.8906,13.8906,13.8906,13.8906,13.8906,13.8906,5.2522,0.0,0.0,0.0,0.0,0.0,7.6546,8.4011,9.2257,10.0883,10.5997,11.009,11.4499,11.5118,11.5002,11.5312,11.5815,11.6318,11.6318,11.682,11.7285,11.7517,11.7285,11.7207,11.7207,11.7014,11.6704,11.6511,11.6511,11.6085,11.5312,11.5389,11.5892,11.682,11.682,11.7014,11.7207,11.6588,11.7401,11.9683,11.9112,11.9992,12.2313,12.2313,12.2313,12.2313,12.2313,12.2816,12.358,12.4402,12.4905,12.5292,12.68,12.7381,12.7613,12.9315,12.9885,13.0078,13.1906,13.2487,13.2487,13.2487,13.2487,13.2487,13.2487,13.3002,13.3693,13.4081,13.4809,13.5593,13.6088,13.519,13.4218,13.4609,13.3711,13.3008,13.3711,13.3789,13.3984,13.4804,13.5,13.5586,13.7304,13.7617,13.789,13.8789,13.8906,13.8906,13.8906,13.8906,13.8906,13.8906,13.8906,13.8906,13.8906,13.8906,13.8906,13.8906,13.8906,13.8906,13.8906,13.8906,13.8906,13.8906,13.8906,13.8906,13.8906,13.8906,13.8906,13.8906,13.8906,13.8906,5.2589,5.42,5.6115,5.7056,0.0,0.0,6.9667,7.6746,8.4908,9.3966,9.9529,10.4287,10.9393,11.009,10.978,10.978,11.0902,11.2604,11.5505,11.6318,11.682,11.7207,11.7207,11.7207,11.7207,11.7207,11.7207,11.7207,11.7207,11.7014,11.6511,11.6085,11.6318,11.7207,11.7207,11.7207,11.7207,11.6704,11.7517,11.9683,11.918,12.0108,12.2313,12.2313,12.2313,12.2313,12.2313,12.2816,12.358,12.4402,12.4992,12.5495,12.6916,12.7381,12.7613,12.9315,12.9885,13.0078,13.1906,13.2487,13.2487,13.2487,13.2487,13.2487,13.2487,13.2915,13.3617,13.4387,13.5686,13.6893,13.6781,13.5812,13.4883,13.5,13.3984,13.3203,13.3711,13.3789,13.3906,13.4414,13.4492,13.5,13.6797,13.7109,13.75,13.8711,13.8906,13.8906,13.8906,13.8906,13.8906,13.8906,13.8906,13.8906,13.8906,13.8906,13.8906,13.8906,13.8906,13.8906,13.8906,13.8906,13.8906,13.8906,13.8906,13.8906,13.8906,13.8906,13.8906,13.8906,13.8906,13.8906,5.5282,5.6397,0.0,0.0,5.9063,0.0,6.4638,7.0446,7.7525,8.592,9.16,9.6667,10.1812,10.2082,10.1618,10.1618,10.332,10.6987,11.4113,11.5312,11.5815,11.682,11.6898,11.6898,11.6898,11.6898,11.7014,11.7005,11.7082,11.7207,11.7207,11.6511,11.6395,11.7207,11.7207,11.7207,11.7207,11.7082,11.7904,11.9683,11.9606,12.0495,12.2313,12.2313,12.2313,12.2313,12.2313,12.2816,12.3696,12.448,12.5292,12.6182,12.711,12.7381,12.7613,12.9315,12.9885,13.0078,13.1906,13.2487,13.2487,13.2487,13.2487,13.2487,13.2487,13.2518,13.3002,13.4808,13.6808,13.8302,13.778,13.7018,13.6093,13.5312,13.4492,13.3789,13.3789,13.3789,13.3789,13.3789,13.3789,13.4297,13.6015,13.6289,13.6914,13.8593,13.8906,13.8906,13.8906,13.8906,13.8906,13.8906,13.8906,13.8906,13.8906,13.8906,13.8906,13.8906,13.8906,13.8906,13.8906,13.8906,13.8906,13.8906,13.8906,13.8906,13.8906,13.8906,13.8906,13.8906,13.8906,13.8906,5.7816,5.821,5.8447,5.8359,0.0,0.0,5.9769,6.3792,6.9247,7.6392,8.1381,8.6061,9.1213,9.2025,9.1916,9.1916,9.5042,10.038,10.8581,11.1521,11.3408,11.4886,11.5118,11.5118,11.5118,11.5118,11.5389,11.6085,11.682,11.7207,11.7207,11.7005,11.7014,11.7207,11.7207,11.7207,11.7207,11.6511,11.7285,11.9683,11.8996,11.9915,12.2313,12.2313,12.2313,12.2313,12.2313,12.3203,12.4596,12.4721,12.5292,12.6182,12.711,12.7381,12.7613,12.9315,12.9885,13.0078,13.1906,13.2487,13.2487,13.2487,13.2487,13.2487,13.2487,13.2507,13.2906,13.4908,13.6814,13.8291,13.8411,13.7402,13.6289,13.6093,13.4883,13.3789,13.3789,13.3789,13.3789,13.3789,13.3789,13.4297,13.6015,13.6289,13.6914,13.8593,13.8906,13.8906,13.8906,13.8906,13.8906,13.8906,13.8906,13.8906,13.8906,13.8906,13.8906,13.8906,13.8906,13.8906,13.8906,13.8906,13.8906,13.8906,13.8906,13.8906,13.8906,13.8906,13.8906,13.8906,13.8906,13.8906,6.1946,6.2034,6.1769,6.0872,0.0,0.0,0.0,6.1668,6.5784,7.0398,7.4431,7.8278,8.209,8.3173,8.3444,8.3444,8.7383,9.2489,9.8524,10.5603,11.1289,11.419,11.4616,11.4616,11.4616,11.4616,11.5002,11.5815,11.6704,11.7207,11.7207,11.7207,11.7207,11.7207,11.7207,11.7207,11.7207,11.682,11.7401,11.8987,11.8609,11.9489,12.1694,12.1694,12.1888,12.2313,12.2313,12.328,12.4799,12.4799,12.5601,12.68,12.7187,12.7381,12.7613,12.9315,12.9885,13.0078,13.1906,13.2487,13.2487,13.2487,13.2487,13.2487,13.2487,13.3106,13.3999,13.5085,13.681,13.8184,13.8618,13.7492,13.6284,13.6287,13.4999,13.3789,13.3789,13.3789,13.3789,13.3789,13.3789,13.4297,13.6015,13.6289,13.6914,13.8593,13.8906,13.8906,13.8906,13.8906,13.8906,13.8906,13.8906,13.8906,13.8906,13.8906,13.8906,13.8906,13.8906,13.8906,13.8906,13.8906,13.8906,13.8906,13.8906,13.8906,13.8906,13.8906,13.8906,13.8906,13.8906,13.8906,0.0,0.0,0.0,0.0,0.0,6.1198,0.0,0.0,0.0,6.5933,6.8704,7.1399,7.3552,7.4546,7.5049,7.5243,7.9531,8.4173,8.7925,9.7479,10.6105,11.1482,11.2411,11.2797,11.3107,11.361,11.419,11.4886,11.5699,11.6395,11.6704,11.6898,11.7014,11.7207,11.7207,11.7207,11.7207,11.7207,11.7594,11.8415,11.8415,11.9296,12.0998,12.0998,12.1501,12.2313,12.2313,12.328,12.4799,12.4799,12.5795,12.7381,12.7381,12.7381,12.7613,12.9315,12.9885,13.0078,13.1906,13.2487,13.2487,13.2487,13.2487,13.2487,13.2487,13.3686,13.5101,13.5318,13.6692,13.8086,13.8482,13.7397,13.6186,13.6318,13.4998,13.3789,13.3789,13.3789,13.3789,13.3789,13.3789,13.4297,13.6015,13.6289,13.6914,13.8593,13.8906,13.8906,13.8906,13.8906,13.8906,13.8906,13.8906,13.8906,13.8906,13.8906,13.8906,13.8906,13.8906,13.8906,13.8906,13.8906,13.8906,13.8906,13.8906,13.8906,13.8906,13.8906,13.8906,13.8906,13.8906,13.8906,0.0,0.0,0.0,0.0,6.4919,0.0,0.0,0.0,6.0792,6.1811,0.0,6.3972,6.4972,0.0,0.0,6.6306,7.0711,7.5779,8.0685,8.5797,9.2605,10.2199,10.4713,10.6183,10.7691,10.9896,11.1289,11.1405,11.2209,11.3292,11.4809,11.5583,11.6395,11.7207,11.7207,11.7207,11.7207,11.7207,11.7594,11.8415,11.8415,11.9296,12.0998,12.0998,12.1501,12.2313,12.2313,12.328,12.4799,12.4799,12.5795,12.7381,12.7381,12.7381,12.7613,12.9315,12.9885,13.0078,13.1906,13.2487,13.2487,13.2487,13.2487,13.2487,13.2487,13.3686,13.5003,13.5314,13.6594,13.8011,13.829,13.7206,13.6108,13.6186,13.4995,13.3789,13.3789,13.3789,13.3789,13.3789,13.3789,13.4297,13.6015,13.6289,13.6914,13.8593,13.8906,13.8906,13.8906,13.8906,13.8906,13.8906,13.8906,13.8906,13.8906,13.8906,13.8906,13.8906,13.8906,13.8906,13.8906,13.8906,13.8906,13.8906,13.8906,13.8906,13.8906,13.8906,13.8906,13.8906,13.8906,13.8906,0.0,0.0,0.0,0.0,0.0,0.0,0.0,0.0,6.1062,0.0,0.0,0.0,0.0,0.0,0.0,0.0,6.8147,7.2059,7.4662,7.7867,8.3934,9.4694,9.7905,10.0496,10.3707,10.5912,10.7296,10.7799,10.862,11.009,11.2295,11.4616,11.6085,11.6395,11.6898,11.7207,11.7207,11.7207,11.7401,11.771,11.771,11.86,12.0186,12.0186,12.0998,12.2313,12.2313,12.328,12.4799,12.4799,12.5795,12.7381,12.7381,12.7381,12.7497,12.8696,12.9508,13.0088,13.1288,13.21,13.2487,13.2487,13.2487,13.2487,13.2487,13.3299,13.4297,13.4416,13.5407,13.6511,13.671,13.5991,13.5212,13.53,13.4501,13.3705,13.3708,13.3788,13.3789,13.3789,13.3789,13.4218,13.5312,13.5508,13.6093,13.789,13.8086,13.8281,13.8789,13.8906,13.8906,13.8906,13.8906,13.8906,13.8906,13.8906,13.8906,13.8906,13.8906,13.8906,13.8906,13.8906,13.8906,13.8906,13.8906,13.8906,13.8906,13.8906,13.8906,13.8906,13.8906,13.8906,8.3455,0.0,0.0,0.0,0.0,0.0,0.0,0.0,0.0,0.0,0.0,0.0,0.0,0.0,0.0,0.0,0.0,6.9004,6.9793,7.1291,7.6204,8.661,9.1367,9.5274,9.9104,10.1193,10.2585,10.3196,10.4287,10.6105,10.8891,11.272,11.5118,11.5505,11.6588,11.7207,11.7207,11.7207,11.7207,11.7207,11.7207,11.8097,11.9683,11.9683,12.0689,12.2313,12.2313,12.328,12.4799,12.4799,12.5795,12.7381,12.7381,12.7381,12.7497,12.8309,12.9005,12.9702,13.0785,13.179,13.2487,13.2487,13.2487,13.2487,13.2487,13.3106,13.3696,13.3786,13.4513,13.5293,13.5511,13.4985,13.4506,13.4713,13.421,13.3605,13.37,13.3787,13.3789,13.3789,13.3789,13.4101,13.4883,13.5195,13.5898,13.7382,13.7812,13.8203,13.8789,13.8906,13.8906,13.8906,13.8906,13.8906,13.8906,13.8906,13.8906,13.8906,13.8906,13.8906,13.8906,13.8906,13.8906,13.8906,13.8906,13.8906,13.8906,13.8906,13.8906,13.8906,13.8906,13.8906,0.0,0.0,0.0,7.8085,0.0,0.0,0.0,0.0,6.4438,0.0,0.0,0.0,0.0,0.0,0.0,0.0,0.0,0.0,0.0,6.5765,6.8512,7.7132,8.4798,9.04,9.3031,9.5545,9.7054,9.7092,9.8601,10.0992,10.4403,10.9385,11.2991,11.4616,11.6318,11.7207,11.7207,11.7207,11.7207,11.7207,11.7207,11.8097,11.9683,11.9683,12.0689,12.2313,12.2313,12.328,12.4799,12.4799,12.5795,12.7381,12.7381,12.7381,12.7497,12.8309,12.8618,12.8889,13.0591,13.179,13.2487,13.2487,13.2487,13.2487,13.2487,13.3106,13.3686,13.3686,13.4305,13.5101,13.5314,13.4692,13.4201,13.4512,13.4003,13.3488,13.3685,13.3784,13.3789,13.3789,13.3789,13.4101,13.4883,13.5703,13.6601,13.75,13.8281,13.8906,13.8906,13.8906,13.8906,13.8906,13.8906,13.8906,13.8906,13.8906,13.8906,13.8906,13.8906,13.8906,13.8906,13.8906,13.8906,13.8906,13.8906,13.8906,13.8906,13.8906,13.8906,13.8906,13.8906,13.8906,0.0,0.0,8.9487,8.6364,0.0,0.0,0.0,0.0,0.0,0.0,0.0,0.0,0.0,0.0,0.0,0.0,0.0,0.0,0.0,0.0,6.3903,0.0,0.0,0.0,8.5017,8.7693,8.9665,9.0819,9.1948,9.481,9.9955,10.6183,11.0593,11.2914,11.5699,11.7207,11.7207,11.7207,11.7207,11.7207,11.7207,11.8097,11.9683,11.9683,12.0689,12.2313,12.2313,12.328,12.4799,12.4799,12.5795,12.7381,12.7381,12.7381,12.7419,12.769,12.8502,12.9702,13.1481,13.2293,13.2487,13.2487,13.2487,13.2487,13.2487,13.268,13.2912,13.2912,13.3106,13.3407,13.3515,13.38,13.4001,13.3616,13.3788,13.3984,13.3613,13.3716,13.3703,13.3708,13.4218,13.4687,13.5,13.6211,13.7304,13.7617,13.789,13.8203,13.8789,13.8906,13.8906,13.8906,13.8906,13.8906,13.8906,13.8906,13.8906,13.8906,13.8906,13.8906,13.8906,13.8906,13.8906,13.8906,13.8906,13.8906,13.8906,13.8906,13.8906,13.8906,13.8906,13.8906,10.1385,9.9021,0.0,9.3938,8.9769,0.0,8.0421,0.0,0.0,0.0,0.0,0.0,0.0,0.0,0.0,0.0,0.0,0.0,0.0,6.0446,0.0,0.0,0.0,0.0,0.0,8.1117,8.3206,8.463,8.5759,8.8892,0.0,10.1696,10.7189,11.0593,11.4616,11.6898,11.7207,11.7207,11.7285,11.7594,11.7594,11.8484,12.0186,12.0186,12.0882,12.2313,12.2313,12.328,12.4799,12.4799,12.5795,12.7381,12.7381,12.7381,12.7381,12.7381,12.8502,13.0088,13.1481,13.2216,13.2487,13.2487,13.2487,13.2487,13.2487,13.2487,13.2487,13.2487,13.2487,13.2507,13.2605,13.3216,13.3793,13.3421,13.3901,13.4283,13.392,13.3694,13.368,13.4089,13.4607,13.5195,13.5781,13.6914,13.7617,13.7617,13.789,13.8281,13.8789,13.8906,13.8906,13.8906,13.8906,13.8906,13.8906,13.8906,13.8906,13.8906,13.8906,13.8906,13.8906,13.8906,13.8906,13.8906,13.8906,13.8906,13.8906,13.8906,13.8906,13.8906,13.8906,13.8906]}]]